Wetterdaten: Donnerstag, 14.05.2020
Datum Zeit Temp. 2m Temp +5 cm Feuchte A. Luftdruck Regen Wind Richtung Richtung Sonnenschein UV Solar Taupunkt Windchill Windben
14.05.2020 00:00 3,2 C 1,1 C 81 % 1016,1 hPa 0,0 l/m 14,5 km/h (3 Bft) N-NO 22 0 min 0,0 UV-I 0 W/m 0,3 C -2,8 C 19,3 km/h (3 Bft)
14.05.2020 00:01 3,3 C 1,1 C 81 % 1016,0 hPa 0,0 l/m 8,0 km/h (2 Bft) N-NO 22 0 min 0,0 UV-I 0 W/m 0,4 C 1,8 C 11,3 km/h (2 Bft)
14.05.2020 00:02 3,3 C 1,1 C 81 % 1016,0 hPa 0,0 l/m 9,7 km/h (2 Bft) N 360 0 min 0,0 UV-I 0 W/m 0,4 C 0,4 C 14,5 km/h (3 Bft)
14.05.2020 00:03 3,3 C 1,1 C 81 % 1016,0 hPa 0,0 l/m 8,0 km/h (2 Bft) N-NO 22 0 min 0,0 UV-I 0 W/m 0,4 C 1,8 C 14,5 km/h (3 Bft)
14.05.2020 00:04 3,3 C 1,1 C 81 % 1016,1 hPa 0,0 l/m 11,3 km/h (2 Bft) N-NO 22 0 min 0,0 UV-I 0 W/m 0,4 C -0,7 C 19,3 km/h (3 Bft)
14.05.2020 00:05 3,3 C 1,7 C 81 % 1016,1 hPa 0,0 l/m 9,7 km/h (2 Bft) N-NO 22 0 min 0,0 UV-I 0 W/m 0,4 C 0,4 C 14,5 km/h (3 Bft)
14.05.2020 00:06 3,3 C 1,7 C 81 % 1016,1 hPa 0,0 l/m 8,0 km/h (2 Bft) N 360 0 min 0,0 UV-I 0 W/m 0,4 C 1,8 C 12,9 km/h (3 Bft)
14.05.2020 00:07 3,3 C 1,7 C 81 % 1016,1 hPa 0,0 l/m 11,3 km/h (2 Bft) N-NO 22 0 min 0,0 UV-I 0 W/m 0,4 C -0,7 C 24,1 km/h (4 Bft)
14.05.2020 00:08 3,3 C 1,7 C 81 % 1016,2 hPa 0,0 l/m 11,3 km/h (2 Bft) N-NO 22 0 min 0,0 UV-I 0 W/m 0,4 C -0,7 C 16,1 km/h (3 Bft)
14.05.2020 00:09 3,3 C 1,7 C 81 % 1016,1 hPa 0,0 l/m 9,7 km/h (2 Bft) N-NO 22 0 min 0,0 UV-I 0 W/m 0,4 C 0,4 C 14,5 km/h (3 Bft)
14.05.2020 00:10 3,3 C 1,7 C 81 % 1016,1 hPa 0,0 l/m 9,7 km/h (2 Bft) N 360 0 min 0,0 UV-I 0 W/m 0,4 C 0,4 C 16,1 km/h (3 Bft)
14.05.2020 00:11 3,3 C 1,7 C 81 % 1016,1 hPa 0,0 l/m 11,3 km/h (2 Bft) N-NO 22 0 min 0,0 UV-I 0 W/m 0,4 C -0,7 C 16,1 km/h (3 Bft)
14.05.2020 00:12 3,3 C 1,7 C 81 % 1016,1 hPa 0,0 l/m 12,9 km/h (3 Bft) N-NO 22 0 min 0,0 UV-I 0 W/m 0,4 C -1,8 C 16,1 km/h (3 Bft)
14.05.2020 00:13 3,4 C 1,7 C 81 % 1016,2 hPa 0,0 l/m 17,7 km/h (3 Bft) N-NO 22 0 min 0,0 UV-I 0 W/m 0,5 C -4,2 C 22,5 km/h (4 Bft)
14.05.2020 00:14 3,4 C 1,7 C 81 % 1016,2 hPa 0,0 l/m 12,9 km/h (3 Bft) N 360 0 min 0,0 UV-I 0 W/m 0,5 C -1,7 C 17,7 km/h (3 Bft)
14.05.2020 00:15 3,4 C 1,7 C 81 % 1016,2 hPa 0,0 l/m 8,0 km/h (2 Bft) N-NO 22 0 min 0,0 UV-I 0 W/m 0,5 C 1,9 C 12,9 km/h (3 Bft)
14.05.2020 00:16 3,4 C 1,7 C 81 % 1016,2 hPa 0,0 l/m 8,0 km/h (2 Bft) N-NO 22 0 min 0,0 UV-I 0 W/m 0,5 C 1,9 C 9,7 km/h (2 Bft)
14.05.2020 00:17 3,4 C 1,7 C 81 % 1016,2 hPa 0,0 l/m 11,3 km/h (2 Bft) N-NO 22 0 min 0,0 UV-I 0 W/m 0,5 C -0,6 C 19,3 km/h (3 Bft)
14.05.2020 00:18 3,4 C 1,7 C 81 % 1016,2 hPa 0,0 l/m 8,0 km/h (2 Bft) N 360 0 min 0,0 UV-I 0 W/m 0,5 C 1,9 C 12,9 km/h (3 Bft)
14.05.2020 00:19 3,3 C 1,7 C 81 % 1016,2 hPa 0,0 l/m 9,7 km/h (2 Bft) N-NO 22 0 min 0,0 UV-I 0 W/m 0,4 C 0,4 C 16,1 km/h (3 Bft)
14.05.2020 00:20 3,3 C 1,7 C 81 % 1016,2 hPa 0,0 l/m 9,7 km/h (2 Bft) N 360 0 min 0,0 UV-I 0 W/m 0,4 C 0,4 C 19,3 km/h (3 Bft)
14.05.2020 00:21 3,3 C 1,1 C 81 % 1016,2 hPa 0,0 l/m 8,0 km/h (2 Bft) N-NO 22 0 min 0,0 UV-I 0 W/m 0,4 C 1,8 C 12,9 km/h (3 Bft)
14.05.2020 00:22 3,3 C 1,1 C 81 % 1016,2 hPa 0,0 l/m 9,7 km/h (2 Bft) N-NO 22 0 min 0,0 UV-I 0 W/m 0,4 C 0,4 C 19,3 km/h (3 Bft)
14.05.2020 00:23 3,3 C 1,1 C 81 % 1016,1 hPa 0,0 l/m 14,5 km/h (3 Bft) N-NO 22 0 min 0,0 UV-I 0 W/m 0,4 C -2,7 C 20,9 km/h (4 Bft)
14.05.2020 00:24 3,3 C 1,1 C 81 % 1016,2 hPa 0,0 l/m 9,7 km/h (2 Bft) N-NO 22 0 min 0,0 UV-I 0 W/m 0,4 C 0,4 C 14,5 km/h (3 Bft)
14.05.2020 00:25 3,3 C 1,7 C 81 % 1016,3 hPa 0,0 l/m 6,4 km/h (2 Bft) N-NO 22 0 min 0,0 UV-I 0 W/m 0,4 C 3,3 C 9,7 km/h (2 Bft)
14.05.2020 00:26 3,2 C 1,7 C 81 % 1016,3 hPa 0,0 l/m 11,3 km/h (2 Bft) N-NO 22 0 min 0,0 UV-I 0 W/m 0,3 C -0,8 C 17,7 km/h (3 Bft)
14.05.2020 00:27 3,2 C 1,1 C 81 % 1016,2 hPa 0,0 l/m 8,0 km/h (2 Bft) N-NO 22 0 min 0,0 UV-I 0 W/m 0,3 C 1,7 C 12,9 km/h (3 Bft)
14.05.2020 00:28 3,2 C 1,7 C 81 % 1016,4 hPa 0,0 l/m 8,0 km/h (2 Bft) N-NO 22 0 min 0,0 UV-I 0 W/m 0,3 C 1,7 C 12,9 km/h (3 Bft)
14.05.2020 00:29 3,2 C 1,1 C 81 % 1016,3 hPa 0,0 l/m 9,7 km/h (2 Bft) N-NO 22 0 min 0,0 UV-I 0 W/m 0,3 C 0,3 C 14,5 km/h (3 Bft)
14.05.2020 00:30 3,2 C 1,1 C 81 % 1016,3 hPa 0,0 l/m 8,0 km/h (2 Bft) N-NO 22 0 min 0,0 UV-I 0 W/m 0,3 C 1,7 C 12,9 km/h (3 Bft)
14.05.2020 00:31 3,2 C 1,1 C 82 % 1016,3 hPa 0,0 l/m 6,4 km/h (2 Bft) N-NO 22 0 min 0,0 UV-I 0 W/m 0,4 C 3,2 C 12,9 km/h (3 Bft)
14.05.2020 00:32 3,1 C 1,1 C 82 % 1016,3 hPa 0,0 l/m 8,0 km/h (2 Bft) N 360 0 min 0,0 UV-I 0 W/m 0,3 C 1,6 C 9,7 km/h (2 Bft)
14.05.2020 00:33 3,1 C 1,1 C 82 % 1016,3 hPa 0,0 l/m 8,0 km/h (2 Bft) N-NO 22 0 min 0,0 UV-I 0 W/m 0,3 C 1,6 C 12,9 km/h (3 Bft)
14.05.2020 00:34 3,1 C 1,1 C 82 % 1016,3 hPa 0,0 l/m 4,8 km/h (1 Bft) N-NO 22 0 min 0,0 UV-I 0 W/m 0,3 C 3,1 C 11,3 km/h (2 Bft)
14.05.2020 00:35 3,1 C 1,1 C 82 % 1016,3 hPa 0,0 l/m 11,3 km/h (2 Bft) N-NO 22 0 min 0,0 UV-I 0 W/m 0,3 C -1,0 C 16,1 km/h (3 Bft)
14.05.2020 00:36 3,1 C 1,1 C 82 % 1016,3 hPa 0,0 l/m 11,3 km/h (2 Bft) N-NO 22 0 min 0,0 UV-I 0 W/m 0,3 C -1,0 C 16,1 km/h (3 Bft)
14.05.2020 00:37 3,1 C 1,1 C 82 % 1016,3 hPa 0,0 l/m 12,9 km/h (3 Bft) N-NO 22 0 min 0,0 UV-I 0 W/m 0,3 C -2,0 C 17,7 km/h (3 Bft)
14.05.2020 00:38 3,1 C 1,1 C 82 % 1016,3 hPa 0,0 l/m 12,9 km/h (3 Bft) N-NO 22 0 min 0,0 UV-I 0 W/m 0,3 C -2,0 C 16,1 km/h (3 Bft)
14.05.2020 00:39 3,1 C 1,1 C 82 % 1016,4 hPa 0,0 l/m 9,7 km/h (2 Bft) N-NO 22 0 min 0,0 UV-I 0 W/m 0,3 C 0,2 C 16,1 km/h (3 Bft)
14.05.2020 00:40 3,1 C 1,1 C 82 % 1016,3 hPa 0,0 l/m 9,7 km/h (2 Bft) N-NO 22 0 min 0,0 UV-I 0 W/m 0,3 C 0,2 C 12,9 km/h (3 Bft)
14.05.2020 00:41 3,1 C 1,1 C 82 % 1016,3 hPa 0,0 l/m 8,0 km/h (2 Bft) N-NO 22 0 min 0,0 UV-I 0 W/m 0,3 C 1,6 C 16,1 km/h (3 Bft)
14.05.2020 00:42 3,1 C 1,1 C 82 % 1016,4 hPa 0,0 l/m 12,9 km/h (3 Bft) N 360 0 min 0,0 UV-I 0 W/m 0,3 C -2,0 C 17,7 km/h (3 Bft)
14.05.2020 00:43 3,1 C 1,1 C 82 % 1016,3 hPa 0,0 l/m 9,7 km/h (2 Bft) N 360 0 min 0,0 UV-I 0 W/m 0,3 C 0,2 C 17,7 km/h (3 Bft)
14.05.2020 00:44 3,1 C 1,1 C 82 % 1016,3 hPa 0,0 l/m 6,4 km/h (2 Bft) N-NO 22 0 min 0,0 UV-I 0 W/m 0,3 C 3,1 C 11,3 km/h (2 Bft)
14.05.2020 00:45 3,1 C 1,1 C 82 % 1016,4 hPa 0,0 l/m 8,0 km/h (2 Bft) N-NO 22 0 min 0,0 UV-I 0 W/m 0,3 C 1,6 C 16,1 km/h (3 Bft)
14.05.2020 00:46 3,1 C 1,1 C 82 % 1016,3 hPa 0,0 l/m 8,0 km/h (2 Bft) N 360 0 min 0,0 UV-I 0 W/m 0,3 C 1,6 C 14,5 km/h (3 Bft)
14.05.2020 00:47 3,1 C 1,1 C 82 % 1016,3 hPa 0,0 l/m 12,9 km/h (3 Bft) N-NO 22 0 min 0,0 UV-I 0 W/m 0,3 C -2,0 C 19,3 km/h (3 Bft)
14.05.2020 00:48 3,1 C 1,1 C 82 % 1016,2 hPa 0,0 l/m 11,3 km/h (2 Bft) N-NO 22 0 min 0,0 UV-I 0 W/m 0,3 C -1,0 C 16,1 km/h (3 Bft)
14.05.2020 00:49 3,1 C 1,1 C 82 % 1016,3 hPa 0,0 l/m 8,0 km/h (2 Bft) N-NO 22 0 min 0,0 UV-I 0 W/m 0,3 C 1,6 C 9,7 km/h (2 Bft)
14.05.2020 00:50 3,1 C 1,1 C 82 % 1016,3 hPa 0,0 l/m 8,0 km/h (2 Bft) N 360 0 min 0,0 UV-I 0 W/m 0,3 C 1,6 C 14,5 km/h (3 Bft)
14.05.2020 00:51 3,1 C 1,1 C 82 % 1016,3 hPa 0,0 l/m 12,9 km/h (3 Bft) N-NO 22 0 min 0,0 UV-I 0 W/m 0,3 C -2,0 C 24,1 km/h (4 Bft)
14.05.2020 00:52 3,1 C 1,1 C 82 % 1016,3 hPa 0,0 l/m 9,7 km/h (2 Bft) N-NO 22 0 min 0,0 UV-I 0 W/m 0,3 C 0,2 C 14,5 km/h (3 Bft)
14.05.2020 00:53 3,0 C 1,1 C 82 % 1016,3 hPa 0,0 l/m 6,4 km/h (2 Bft) N-NO 22 0 min 0,0 UV-I 0 W/m 0,2 C 3,0 C 8,0 km/h (2 Bft)
14.05.2020 00:54 3,1 C 1,1 C 82 % 1016,3 hPa 0,0 l/m 8,0 km/h (2 Bft) N-NO 22 0 min 0,0 UV-I 0 W/m 0,3 C 1,6 C 12,9 km/h (3 Bft)
14.05.2020 00:55 2,9 C 1,1 C 82 % 1016,3 hPa 0,0 l/m 8,0 km/h (2 Bft) N-NO 22 0 min 0,0 UV-I 0 W/m 0,1 C 1,4 C 12,9 km/h (3 Bft)
14.05.2020 00:56 3,0 C 1,1 C 82 % 1016,3 hPa 0,0 l/m 9,7 km/h (2 Bft) N-NO 22 0 min 0,0 UV-I 0 W/m 0,2 C 0,1 C 19,3 km/h (3 Bft)
14.05.2020 00:57 2,9 C 1,1 C 82 % 1016,2 hPa 0,0 l/m 14,5 km/h (3 Bft) N-NO 22 0 min 0,0 UV-I 0 W/m 0,1 C -3,2 C 19,3 km/h (3 Bft)
14.05.2020 00:58 3,0 C 1,1 C 82 % 1016,2 hPa 0,0 l/m 11,3 km/h (2 Bft) N-NO 22 0 min 0,0 UV-I 0 W/m 0,2 C -1,1 C 16,1 km/h (3 Bft)
14.05.2020 00:59 3,0 C 1,1 C 82 % 1016,3 hPa 0,0 l/m 8,0 km/h (2 Bft) N 360 0 min 0,0 UV-I 0 W/m 0,2 C 1,5 C 11,3 km/h (2 Bft)
14.05.2020 01:00 3,0 C 1,1 C 82 % 1016,3 hPa 0,0 l/m 8,0 km/h (2 Bft) N-NO 22 0 min 0,0 UV-I 0 W/m 0,2 C 1,5 C 12,9 km/h (3 Bft)
14.05.2020 01:01 3,0 C 1,1 C 82 % 1016,2 hPa 0,0 l/m 6,4 km/h (2 Bft) N 360 0 min 0,0 UV-I 0 W/m 0,2 C 3,0 C 12,9 km/h (3 Bft)
14.05.2020 01:02 3,0 C 1,1 C 82 % 1016,3 hPa 0,0 l/m 8,0 km/h (2 Bft) N-NO 22 0 min 0,0 UV-I 0 W/m 0,2 C 1,5 C 12,9 km/h (3 Bft)
14.05.2020 01:03 3,0 C 1,1 C 82 % 1016,3 hPa 0,0 l/m 6,4 km/h (2 Bft) N-NO 22 0 min 0,0 UV-I 0 W/m 0,2 C 3,0 C 11,3 km/h (2 Bft)
14.05.2020 01:04 3,0 C 1,1 C 82 % 1016,3 hPa 0,0 l/m 9,7 km/h (2 Bft) N-NO 22 0 min 0,0 UV-I 0 W/m 0,2 C 0,1 C 14,5 km/h (3 Bft)
14.05.2020 01:05 2,9 C 1,1 C 82 % 1016,3 hPa 0,0 l/m 9,7 km/h (2 Bft) N 360 0 min 0,0 UV-I 0 W/m 0,1 C -0,0 C 16,1 km/h (3 Bft)
14.05.2020 01:06 2,9 C 1,1 C 82 % 1016,3 hPa 0,0 l/m 6,4 km/h (2 Bft) N-NO 22 0 min 0,0 UV-I 0 W/m 0,1 C 2,9 C 14,5 km/h (3 Bft)
14.05.2020 01:07 2,9 C 1,1 C 82 % 1016,3 hPa 0,0 l/m 9,7 km/h (2 Bft) N-NO 22 0 min 0,0 UV-I 0 W/m 0,1 C -0,0 C 17,7 km/h (3 Bft)
14.05.2020 01:08 2,9 C 1,1 C 82 % 1016,2 hPa 0,0 l/m 8,0 km/h (2 Bft) N-NO 22 0 min 0,0 UV-I 0 W/m 0,1 C 1,4 C 12,9 km/h (3 Bft)
14.05.2020 01:09 2,9 C 1,1 C 82 % 1016,3 hPa 0,0 l/m 8,0 km/h (2 Bft) N-NO 22 0 min 0,0 UV-I 0 W/m 0,1 C 1,4 C 16,1 km/h (3 Bft)
14.05.2020 01:10 2,9 C 1,1 C 82 % 1016,3 hPa 0,0 l/m 14,5 km/h (3 Bft) N-NO 22 0 min 0,0 UV-I 0 W/m 0,1 C -3,2 C 19,3 km/h (3 Bft)
14.05.2020 01:11 2,9 C 1,1 C 83 % 1016,4 hPa 0,0 l/m 14,5 km/h (3 Bft) N-NO 22 0 min 0,0 UV-I 0 W/m 0,3 C -3,2 C 20,9 km/h (4 Bft)
14.05.2020 01:12 2,9 C 1,1 C 83 % 1016,4 hPa 0,0 l/m 9,7 km/h (2 Bft) N-NO 22 0 min 0,0 UV-I 0 W/m 0,3 C -0,0 C 14,5 km/h (3 Bft)
14.05.2020 01:13 3,0 C 1,1 C 82 % 1016,4 hPa 0,0 l/m 9,7 km/h (2 Bft) N-NO 22 0 min 0,0 UV-I 0 W/m 0,2 C 0,1 C 14,5 km/h (3 Bft)
14.05.2020 01:14 2,9 C 1,1 C 82 % 1016,5 hPa 0,0 l/m 6,4 km/h (2 Bft) N 360 0 min 0,0 UV-I 0 W/m 0,1 C 2,9 C 11,3 km/h (2 Bft)
14.05.2020 01:15 2,9 C 1,1 C 82 % 1016,4 hPa 0,0 l/m 6,4 km/h (2 Bft) N-NO 22 0 min 0,0 UV-I 0 W/m 0,1 C 2,9 C 8,0 km/h (2 Bft)
14.05.2020 01:16 2,8 C 1,1 C 82 % 1016,5 hPa 0,0 l/m 4,8 km/h (1 Bft) N-NO 22 0 min 0,0 UV-I 0 W/m 0,0 C 2,8 C 6,4 km/h (2 Bft)
14.05.2020 01:17 2,8 C 0,6 C 82 % 1016,4 hPa 0,0 l/m 8,0 km/h (2 Bft) N-NO 22 0 min 0,0 UV-I 0 W/m 0,0 C 1,3 C 12,9 km/h (3 Bft)
14.05.2020 01:18 2,8 C 0,6 C 82 % 1016,4 hPa 0,0 l/m 8,0 km/h (2 Bft) N-NO 22 0 min 0,0 UV-I 0 W/m 0,0 C 1,3 C 12,9 km/h (3 Bft)
14.05.2020 01:19 2,7 C 0,6 C 83 % 1016,5 hPa 0,0 l/m 9,7 km/h (2 Bft) N 360 0 min 0,0 UV-I 0 W/m 0,1 C -0,2 C 14,5 km/h (3 Bft)
14.05.2020 01:20 2,8 C 0,6 C 83 % 1016,4 hPa 0,0 l/m 9,7 km/h (2 Bft) N 360 0 min 0,0 UV-I 0 W/m 0,2 C -0,1 C 16,1 km/h (3 Bft)
14.05.2020 01:21 2,8 C 0,6 C 83 % 1016,4 hPa 0,0 l/m 8,0 km/h (2 Bft) N-NO 22 0 min 0,0 UV-I 0 W/m 0,2 C 1,3 C 12,9 km/h (3 Bft)
14.05.2020 01:22 2,8 C 0,6 C 83 % 1016,5 hPa 0,0 l/m 8,0 km/h (2 Bft) N-NO 22 0 min 0,0 UV-I 0 W/m 0,2 C 1,3 C 11,3 km/h (2 Bft)
14.05.2020 01:23 2,8 C 0,6 C 83 % 1016,5 hPa 0,0 l/m 6,4 km/h (2 Bft) N-NO 22 0 min 0,0 UV-I 0 W/m 0,2 C 2,8 C 11,3 km/h (2 Bft)
14.05.2020 01:24 2,7 C 0,6 C 83 % 1016,4 hPa 0,0 l/m 9,7 km/h (2 Bft) N-NO 22 0 min 0,0 UV-I 0 W/m 0,1 C -0,2 C 16,1 km/h (3 Bft)
14.05.2020 01:25 2,7 C 0,6 C 83 % 1016,5 hPa 0,0 l/m 8,0 km/h (2 Bft) N-NO 22 0 min 0,0 UV-I 0 W/m 0,1 C 1,2 C 11,3 km/h (2 Bft)
14.05.2020 01:26 2,7 C 0,6 C 83 % 1016,5 hPa 0,0 l/m 8,0 km/h (2 Bft) N-NO 22 0 min 0,0 UV-I 0 W/m 0,1 C 1,2 C 12,9 km/h (3 Bft)
14.05.2020 01:27 2,6 C 0,6 C 83 % 1016,5 hPa 0,0 l/m 4,8 km/h (1 Bft) N-NO 22 0 min 0,0 UV-I 0 W/m 0,0 C 2,6 C 6,4 km/h (2 Bft)
14.05.2020 01:28 2,6 C 0,6 C 83 % 1016,5 hPa 0,0 l/m 8,0 km/h (2 Bft) N-NO 22 0 min 0,0 UV-I 0 W/m 0,0 C 1,1 C 9,7 km/h (2 Bft)
14.05.2020 01:29 2,6 C 0,6 C 83 % 1016,5 hPa 0,0 l/m 4,8 km/h (1 Bft) N-NO 22 0 min 0,0 UV-I 0 W/m 0,0 C 2,6 C 8,0 km/h (2 Bft)
14.05.2020 01:30 2,6 C 0,6 C 84 % 1016,5 hPa 0,0 l/m 6,4 km/h (2 Bft) N 360 0 min 0,0 UV-I 0 W/m 0,2 C 2,6 C 9,7 km/h (2 Bft)
14.05.2020 01:31 2,5 C 0,6 C 84 % 1016,5 hPa 0,0 l/m 8,0 km/h (2 Bft) N-NO 22 0 min 0,0 UV-I 0 W/m 0,1 C 1,0 C 11,3 km/h (2 Bft)
14.05.2020 01:32 2,5 C 0,6 C 84 % 1016,5 hPa 0,0 l/m 9,7 km/h (2 Bft) N-NO 22 0 min 0,0 UV-I 0 W/m 0,1 C -0,5 C 16,1 km/h (3 Bft)
14.05.2020 01:33 2,5 C 0,6 C 84 % 1016,5 hPa 0,0 l/m 11,3 km/h (2 Bft) N-NO 22 0 min 0,0 UV-I 0 W/m 0,1 C -1,6 C 16,1 km/h (3 Bft)
14.05.2020 01:34 2,6 C 0,6 C 84 % 1016,5 hPa 0,0 l/m 8,0 km/h (2 Bft) N-NO 22 0 min 0,0 UV-I 0 W/m 0,2 C 1,1 C 12,9 km/h (3 Bft)
14.05.2020 01:35 2,6 C 0,6 C 84 % 1016,5 hPa 0,0 l/m 9,7 km/h (2 Bft) N-NO 22 0 min 0,0 UV-I 0 W/m 0,2 C -0,3 C 16,1 km/h (3 Bft)
14.05.2020 01:36 2,6 C 0,6 C 84 % 1016,5 hPa 0,0 l/m 8,0 km/h (2 Bft) N-NO 22 0 min 0,0 UV-I 0 W/m 0,2 C 1,1 C 12,9 km/h (3 Bft)
14.05.2020 01:37 2,6 C 0,6 C 84 % 1016,5 hPa 0,0 l/m 9,7 km/h (2 Bft) N-NO 22 0 min 0,0 UV-I 0 W/m 0,2 C -0,3 C 14,5 km/h (3 Bft)
14.05.2020 01:38 2,6 C 0,6 C 84 % 1016,6 hPa 0,0 l/m 8,0 km/h (2 Bft) N-NO 22 0 min 0,0 UV-I 0 W/m 0,2 C 1,1 C 14,5 km/h (3 Bft)
14.05.2020 01:39 2,6 C 0,6 C 84 % 1016,6 hPa 0,0 l/m 8,0 km/h (2 Bft) NO 45 0 min 0,0 UV-I 0 W/m 0,2 C 1,1 C 14,5 km/h (3 Bft)
14.05.2020 01:40 2,7 C 0,6 C 83 % 1016,6 hPa 0,0 l/m 8,0 km/h (2 Bft) N-NO 22 0 min 0,0 UV-I 0 W/m 0,1 C 1,2 C 11,3 km/h (2 Bft)
14.05.2020 01:41 2,7 C 0,6 C 83 % 1016,7 hPa 0,0 l/m 6,4 km/h (2 Bft) N-NO 22 0 min 0,0 UV-I 0 W/m 0,1 C 2,7 C 11,3 km/h (2 Bft)
14.05.2020 01:42 2,7 C 0,6 C 83 % 1016,7 hPa 0,0 l/m 3,2 km/h (1 Bft) N-NO 22 0 min 0,0 UV-I 0 W/m 0,1 C 2,7 C 6,4 km/h (2 Bft)
14.05.2020 01:43 2,6 C 0,6 C 83 % 1016,7 hPa 0,0 l/m 4,8 km/h (1 Bft) N 360 0 min 0,0 UV-I 0 W/m 0,0 C 2,6 C 8,0 km/h (2 Bft)
14.05.2020 01:44 2,6 C 0,6 C 83 % 1016,7 hPa 0,0 l/m 4,8 km/h (1 Bft) N-NO 22 0 min 0,0 UV-I 0 W/m 0,0 C 2,6 C 6,4 km/h (2 Bft)
14.05.2020 01:45 2,6 C 0,0 C 83 % 1016,7 hPa 0,0 l/m 6,4 km/h (2 Bft) N-NO 22 0 min 0,0 UV-I 0 W/m 0,0 C 2,6 C 11,3 km/h (2 Bft)
14.05.2020 01:46 2,5 C 0,0 C 83 % 1016,7 hPa 0,0 l/m 11,3 km/h (2 Bft) N-NO 22 0 min 0,0 UV-I 0 W/m -0,1 C -1,6 C 17,7 km/h (3 Bft)
14.05.2020 01:47 2,5 C 0,0 C 84 % 1016,7 hPa 0,0 l/m 8,0 km/h (2 Bft) N-NO 22 0 min 0,0 UV-I 0 W/m 0,1 C 1,0 C 11,3 km/h (2 Bft)
14.05.2020 01:48 2,6 C 0,0 C 84 % 1016,6 hPa 0,0 l/m 8,0 km/h (2 Bft) N-NO 22 0 min 0,0 UV-I 0 W/m 0,2 C 1,1 C 14,5 km/h (3 Bft)
14.05.2020 01:49 2,6 C 0,0 C 84 % 1016,7 hPa 0,0 l/m 11,3 km/h (2 Bft) N-NO 22 0 min 0,0 UV-I 0 W/m 0,2 C -1,5 C 16,1 km/h (3 Bft)
14.05.2020 01:50 2,5 C 0,0 C 84 % 1016,8 hPa 0,0 l/m 11,3 km/h (2 Bft) NO 45 0 min 0,0 UV-I 0 W/m 0,1 C -1,6 C 17,7 km/h (3 Bft)
14.05.2020 01:51 2,6 C 0,6 C 84 % 1016,7 hPa 0,0 l/m 8,0 km/h (2 Bft) N-NO 22 0 min 0,0 UV-I 0 W/m 0,2 C 1,1 C 12,9 km/h (3 Bft)
14.05.2020 01:52 2,6 C 0,6 C 84 % 1016,7 hPa 0,0 l/m 12,9 km/h (3 Bft) N 360 0 min 0,0 UV-I 0 W/m 0,2 C -2,6 C 20,9 km/h (4 Bft)
14.05.2020 01:53 2,6 C 0,6 C 84 % 1016,7 hPa 0,0 l/m 9,7 km/h (2 Bft) N 360 0 min 0,0 UV-I 0 W/m 0,2 C -0,3 C 17,7 km/h (3 Bft)
14.05.2020 01:54 2,7 C 0,6 C 84 % 1016,7 hPa 0,0 l/m 8,0 km/h (2 Bft) N-NO 22 0 min 0,0 UV-I 0 W/m 0,3 C 1,2 C 12,9 km/h (3 Bft)
14.05.2020 01:55 2,7 C 1,1 C 84 % 1016,8 hPa 0,0 l/m 9,7 km/h (2 Bft) N-NO 22 0 min 0,0 UV-I 0 W/m 0,3 C -0,2 C 12,9 km/h (3 Bft)
14.05.2020 01:56 2,7 C 0,6 C 84 % 1016,8 hPa 0,0 l/m 8,0 km/h (2 Bft) N-NO 22 0 min 0,0 UV-I 0 W/m 0,3 C 1,2 C 12,9 km/h (3 Bft)
14.05.2020 01:57 2,7 C 0,6 C 83 % 1016,7 hPa 0,0 l/m 8,0 km/h (2 Bft) N-NO 22 0 min 0,0 UV-I 0 W/m 0,1 C 1,2 C 12,9 km/h (3 Bft)
14.05.2020 01:58 2,7 C 0,6 C 83 % 1016,8 hPa 0,0 l/m 4,8 km/h (1 Bft) N-NO 22 0 min 0,0 UV-I 0 W/m 0,1 C 2,7 C 8,0 km/h (2 Bft)
14.05.2020 01:59 2,6 C 0,6 C 83 % 1016,7 hPa 0,0 l/m 6,4 km/h (2 Bft) N-NO 22 0 min 0,0 UV-I 0 W/m 0,0 C 2,6 C 8,0 km/h (2 Bft)
14.05.2020 02:00 2,5 C 0,6 C 84 % 1016,8 hPa 0,0 l/m 6,4 km/h (2 Bft) N 360 0 min 0,0 UV-I 0 W/m 0,1 C 2,5 C 8,0 km/h (2 Bft)
14.05.2020 02:01 2,4 C 0,6 C 84 % 1016,8 hPa 0,0 l/m 6,4 km/h (2 Bft) N-NO 22 0 min 0,0 UV-I 0 W/m -0,0 C 2,4 C 8,0 km/h (2 Bft)
14.05.2020 02:02 2,5 C 0,0 C 84 % 1016,7 hPa 0,0 l/m 6,4 km/h (2 Bft) N-NO 22 0 min 0,0 UV-I 0 W/m 0,1 C 2,5 C 9,7 km/h (2 Bft)
14.05.2020 02:03 2,4 C 0,0 C 84 % 1016,7 hPa 0,0 l/m 8,0 km/h (2 Bft) N-NO 22 0 min 0,0 UV-I 0 W/m -0,0 C 0,9 C 11,3 km/h (2 Bft)
14.05.2020 02:04 2,4 C 0,0 C 84 % 1016,8 hPa 0,0 l/m 9,7 km/h (2 Bft) N-NO 22 0 min 0,0 UV-I 0 W/m -0,0 C -0,6 C 12,9 km/h (3 Bft)
14.05.2020 02:05 2,4 C 0,0 C 84 % 1016,7 hPa 0,0 l/m 9,7 km/h (2 Bft) N-NO 22 0 min 0,0 UV-I 0 W/m -0,0 C -0,6 C 14,5 km/h (3 Bft)
14.05.2020 02:06 2,4 C 0,6 C 84 % 1016,7 hPa 0,0 l/m 4,8 km/h (1 Bft) N-NO 22 0 min 0,0 UV-I 0 W/m -0,0 C 2,4 C 8,0 km/h (2 Bft)
14.05.2020 02:07 2,4 C 0,0 C 84 % 1016,8 hPa 0,0 l/m 6,4 km/h (2 Bft) N-NO 22 0 min 0,0 UV-I 0 W/m -0,0 C 2,4 C 8,0 km/h (2 Bft)
14.05.2020 02:08 2,4 C 0,0 C 84 % 1016,8 hPa 0,0 l/m 8,0 km/h (2 Bft) NO 45 0 min 0,0 UV-I 0 W/m -0,0 C 0,9 C 11,3 km/h (2 Bft)
14.05.2020 02:09 2,3 C 0,6 C 84 % 1016,8 hPa 0,0 l/m 6,4 km/h (2 Bft) N 360 0 min 0,0 UV-I 0 W/m -0,1 C 2,3 C 11,3 km/h (2 Bft)
14.05.2020 02:10 2,3 C 0,6 C 84 % 1016,8 hPa 0,0 l/m 8,0 km/h (2 Bft) N-NO 22 0 min 0,0 UV-I 0 W/m -0,1 C 0,8 C 12,9 km/h (3 Bft)
14.05.2020 02:11 2,3 C 0,6 C 84 % 1016,8 hPa 0,0 l/m 8,0 km/h (2 Bft) N-NO 22 0 min 0,0 UV-I 0 W/m -0,1 C 0,8 C 12,9 km/h (3 Bft)
14.05.2020 02:12 2,3 C 0,0 C 85 % 1016,8 hPa 0,0 l/m 6,4 km/h (2 Bft) N-NO 22 0 min 0,0 UV-I 0 W/m 0,0 C 2,3 C 8,0 km/h (2 Bft)
14.05.2020 02:13 2,3 C 0,0 C 84 % 1016,8 hPa 0,0 l/m 6,4 km/h (2 Bft) N-NO 22 0 min 0,0 UV-I 0 W/m -0,1 C 2,3 C 8,0 km/h (2 Bft)
14.05.2020 02:14 2,3 C 0,0 C 84 % 1016,8 hPa 0,0 l/m 6,4 km/h (2 Bft) N-NO 22 0 min 0,0 UV-I 0 W/m -0,1 C 2,3 C 8,0 km/h (2 Bft)
14.05.2020 02:15 2,2 C 0,0 C 84 % 1016,8 hPa 0,0 l/m 8,0 km/h (2 Bft) N-NO 22 0 min 0,0 UV-I 0 W/m -0,2 C 0,7 C 11,3 km/h (2 Bft)
14.05.2020 02:16 2,2 C 0,0 C 84 % 1016,8 hPa 0,0 l/m 6,4 km/h (2 Bft) NO 45 0 min 0,0 UV-I 0 W/m -0,2 C 2,2 C 9,7 km/h (2 Bft)
14.05.2020 02:17 2,2 C 0,0 C 85 % 1016,8 hPa 0,0 l/m 6,4 km/h (2 Bft) NO 45 0 min 0,0 UV-I 0 W/m -0,1 C 2,2 C 8,0 km/h (2 Bft)
14.05.2020 02:18 2,2 C 0,0 C 85 % 1016,8 hPa 0,0 l/m 6,4 km/h (2 Bft) NO 45 0 min 0,0 UV-I 0 W/m -0,1 C 2,2 C 11,3 km/h (2 Bft)
14.05.2020 02:19 2,1 C 0,0 C 85 % 1016,8 hPa 0,0 l/m 8,0 km/h (2 Bft) NO 45 0 min 0,0 UV-I 0 W/m -0,2 C 0,6 C 11,3 km/h (2 Bft)
14.05.2020 02:20 2,1 C 0,0 C 85 % 1016,9 hPa 0,0 l/m 8,0 km/h (2 Bft) NO 45 0 min 0,0 UV-I 0 W/m -0,2 C 0,6 C 11,3 km/h (2 Bft)
14.05.2020 02:21 2,1 C 0,0 C 85 % 1016,8 hPa 0,0 l/m 6,4 km/h (2 Bft) N-NO 22 0 min 0,0 UV-I 0 W/m -0,2 C 2,1 C 8,0 km/h (2 Bft)
14.05.2020 02:22 2,1 C 0,0 C 85 % 1016,9 hPa 0,0 l/m 9,7 km/h (2 Bft) N-NO 22 0 min 0,0 UV-I 0 W/m -0,2 C -0,9 C 14,5 km/h (3 Bft)
14.05.2020 02:23 2,1 C 0,0 C 85 % 1017,0 hPa 0,0 l/m 6,4 km/h (2 Bft) N-NO 22 0 min 0,0 UV-I 0 W/m -0,2 C 2,1 C 8,0 km/h (2 Bft)
14.05.2020 02:24 2,0 C 0,0 C 85 % 1016,9 hPa 0,0 l/m 6,4 km/h (2 Bft) N-NO 22 0 min 0,0 UV-I 0 W/m -0,3 C 2,0 C 6,4 km/h (2 Bft)
14.05.2020 02:25 2,0 C 0,0 C 85 % 1016,9 hPa 0,0 l/m 4,8 km/h (1 Bft) N-NO 22 0 min 0,0 UV-I 0 W/m -0,3 C 2,0 C 4,8 km/h (1 Bft)
14.05.2020 02:26 1,9 C 0,0 C 85 % 1016,9 hPa 0,0 l/m 6,4 km/h (2 Bft) N-NO 22 0 min 0,0 UV-I 0 W/m -0,3 C 1,9 C 9,7 km/h (2 Bft)
14.05.2020 02:27 1,9 C -0,6 C 85 % 1016,9 hPa 0,0 l/m 6,4 km/h (2 Bft) N-NO 22 0 min 0,0 UV-I 0 W/m -0,3 C 1,9 C 9,7 km/h (2 Bft)
14.05.2020 02:28 1,9 C -0,6 C 86 % 1016,9 hPa 0,0 l/m 8,0 km/h (2 Bft) N-NO 22 0 min 0,0 UV-I 0 W/m -0,2 C 0,3 C 9,7 km/h (2 Bft)
14.05.2020 02:29 1,9 C -0,6 C 86 % 1016,9 hPa 0,0 l/m 4,8 km/h (1 Bft) N-NO 22 0 min 0,0 UV-I 0 W/m -0,2 C 1,9 C 8,0 km/h (2 Bft)
14.05.2020 02:30 1,9 C -0,6 C 86 % 1016,9 hPa 0,0 l/m 8,0 km/h (2 Bft) N-NO 22 0 min 0,0 UV-I 0 W/m -0,2 C 0,3 C 12,9 km/h (3 Bft)
14.05.2020 02:31 1,9 C -0,6 C 86 % 1017,0 hPa 0,0 l/m 6,4 km/h (2 Bft) N-NO 22 0 min 0,0 UV-I 0 W/m -0,2 C 1,9 C 8,0 km/h (2 Bft)
14.05.2020 02:32 1,9 C -0,6 C 86 % 1016,9 hPa 0,0 l/m 6,4 km/h (2 Bft) N-NO 22 0 min 0,0 UV-I 0 W/m -0,2 C 1,9 C 8,0 km/h (2 Bft)
14.05.2020 02:33 1,9 C -0,6 C 86 % 1017,0 hPa 0,0 l/m 6,4 km/h (2 Bft) N-NO 22 0 min 0,0 UV-I 0 W/m -0,2 C 1,9 C 11,3 km/h (2 Bft)
14.05.2020 02:34 1,9 C -0,6 C 86 % 1017,0 hPa 0,0 l/m 6,4 km/h (2 Bft) N-NO 22 0 min 0,0 UV-I 0 W/m -0,2 C 1,9 C 11,3 km/h (2 Bft)
14.05.2020 02:35 1,9 C -0,6 C 86 % 1017,0 hPa 0,0 l/m 9,7 km/h (2 Bft) N-NO 22 0 min 0,0 UV-I 0 W/m -0,2 C -1,1 C 17,7 km/h (3 Bft)
14.05.2020 02:36 1,9 C -0,6 C 86 % 1016,9 hPa 0,0 l/m 8,0 km/h (2 Bft) N 360 0 min 0,0 UV-I 0 W/m -0,2 C 0,3 C 12,9 km/h (3 Bft)
14.05.2020 02:37 2,0 C 0,0 C 86 % 1017,0 hPa 0,0 l/m 6,4 km/h (2 Bft) N-NO 22 0 min 0,0 UV-I 0 W/m -0,1 C 2,0 C 8,0 km/h (2 Bft)
14.05.2020 02:38 2,1 C -0,6 C 86 % 1017,0 hPa 0,0 l/m 6,4 km/h (2 Bft) N-NO 22 0 min 0,0 UV-I 0 W/m 0,0 C 2,1 C 8,0 km/h (2 Bft)
14.05.2020 02:39 2,0 C -0,6 C 86 % 1016,9 hPa 0,0 l/m 4,8 km/h (1 Bft) N-NO 22 0 min 0,0 UV-I 0 W/m -0,1 C 2,0 C 6,4 km/h (2 Bft)
14.05.2020 02:40 2,0 C 0,0 C 86 % 1017,0 hPa 0,0 l/m 9,7 km/h (2 Bft) N-NO 22 0 min 0,0 UV-I 0 W/m -0,1 C -1,0 C 16,1 km/h (3 Bft)
14.05.2020 02:41 2,1 C 0,0 C 86 % 1017,0 hPa 0,0 l/m 9,7 km/h (2 Bft) N 360 0 min 0,0 UV-I 0 W/m 0,0 C -0,9 C 12,9 km/h (3 Bft)
14.05.2020 02:42 2,1 C 0,0 C 86 % 1017,0 hPa 0,0 l/m 6,4 km/h (2 Bft) N-NO 22 0 min 0,0 UV-I 0 W/m 0,0 C 2,1 C 8,0 km/h (2 Bft)
14.05.2020 02:43 2,1 C 0,0 C 86 % 1017,0 hPa 0,0 l/m 6,4 km/h (2 Bft) N-NO 22 0 min 0,0 UV-I 0 W/m 0,0 C 2,1 C 8,0 km/h (2 Bft)
14.05.2020 02:44 2,1 C 0,0 C 86 % 1017,0 hPa 0,0 l/m 6,4 km/h (2 Bft) N-NO 22 0 min 0,0 UV-I 0 W/m 0,0 C 2,1 C 8,0 km/h (2 Bft)
14.05.2020 02:45 2,1 C -0,6 C 86 % 1016,9 hPa 0,0 l/m 4,8 km/h (1 Bft) N 360 0 min 0,0 UV-I 0 W/m 0,0 C 2,1 C 8,0 km/h (2 Bft)
14.05.2020 02:46 1,9 C -0,6 C 86 % 1017,1 hPa 0,0 l/m 6,4 km/h (2 Bft) N-NO 22 0 min 0,0 UV-I 0 W/m -0,2 C 1,9 C 6,4 km/h (2 Bft)
14.05.2020 02:47 1,9 C -0,6 C 86 % 1017,0 hPa 0,0 l/m 6,4 km/h (2 Bft) N-NO 22 0 min 0,0 UV-I 0 W/m -0,2 C 1,9 C 11,3 km/h (2 Bft)
14.05.2020 02:48 1,9 C -0,6 C 86 % 1017,1 hPa 0,0 l/m 9,7 km/h (2 Bft) N-NO 22 0 min 0,0 UV-I 0 W/m -0,2 C -1,1 C 16,1 km/h (3 Bft)
14.05.2020 02:49 1,9 C -0,6 C 86 % 1017,0 hPa 0,0 l/m 8,0 km/h (2 Bft) N-NO 22 0 min 0,0 UV-I 0 W/m -0,2 C 0,3 C 9,7 km/h (2 Bft)
14.05.2020 02:50 1,9 C -0,6 C 86 % 1017,0 hPa 0,0 l/m 8,0 km/h (2 Bft) N-NO 22 0 min 0,0 UV-I 0 W/m -0,2 C 0,3 C 12,9 km/h (3 Bft)
14.05.2020 02:51 1,9 C -0,6 C 86 % 1017,1 hPa 0,0 l/m 6,4 km/h (2 Bft) NO 45 0 min 0,0 UV-I 0 W/m -0,2 C 1,9 C 8,0 km/h (2 Bft)
14.05.2020 02:52 1,9 C -0,6 C 86 % 1017,2 hPa 0,0 l/m 6,4 km/h (2 Bft) NO 45 0 min 0,0 UV-I 0 W/m -0,2 C 1,9 C 11,3 km/h (2 Bft)
14.05.2020 02:53 1,8 C -0,6 C 86 % 1017,1 hPa 0,0 l/m 8,0 km/h (2 Bft) NO 45 0 min 0,0 UV-I 0 W/m -0,3 C 0,2 C 11,3 km/h (2 Bft)
14.05.2020 02:54 1,9 C -0,6 C 86 % 1017,1 hPa 0,0 l/m 6,4 km/h (2 Bft) NO 45 0 min 0,0 UV-I 0 W/m -0,2 C 1,9 C 8,0 km/h (2 Bft)
14.05.2020 02:55 1,8 C -0,6 C 87 % 1017,1 hPa 0,0 l/m 4,8 km/h (1 Bft) NO 45 0 min 0,0 UV-I 0 W/m -0,1 C 1,8 C 8,0 km/h (2 Bft)
14.05.2020 02:56 1,9 C -0,6 C 87 % 1017,1 hPa 0,0 l/m 4,8 km/h (1 Bft) N-NO 22 0 min 0,0 UV-I 0 W/m -0,0 C 1,9 C 8,0 km/h (2 Bft)
14.05.2020 02:57 1,8 C -0,6 C 87 % 1017,1 hPa 0,0 l/m 9,7 km/h (2 Bft) N-NO 22 0 min 0,0 UV-I 0 W/m -0,1 C -1,2 C 12,9 km/h (3 Bft)
14.05.2020 02:58 1,9 C -0,6 C 87 % 1017,2 hPa 0,0 l/m 11,3 km/h (2 Bft) N-NO 22 0 min 0,0 UV-I 0 W/m -0,0 C -2,3 C 14,5 km/h (3 Bft)
14.05.2020 02:59 1,9 C -0,6 C 87 % 1017,2 hPa 0,0 l/m 8,0 km/h (2 Bft) N-NO 22 0 min 0,0 UV-I 0 W/m -0,0 C 0,3 C 9,7 km/h (2 Bft)
14.05.2020 03:00 1,9 C 0,0 C 87 % 1017,2 hPa 0,0 l/m 6,4 km/h (2 Bft) N-NO 22 0 min 0,0 UV-I 0 W/m -0,0 C 1,9 C 11,3 km/h (2 Bft)
14.05.2020 03:01 1,9 C 0,0 C 87 % 1017,2 hPa 0,0 l/m 6,4 km/h (2 Bft) N-NO 22 0 min 0,0 UV-I 0 W/m -0,0 C 1,9 C 8,0 km/h (2 Bft)
14.05.2020 03:02 2,0 C 0,0 C 87 % 1017,2 hPa 0,0 l/m 9,7 km/h (2 Bft) N-NO 22 0 min 0,0 UV-I 0 W/m 0,1 C -1,0 C 14,5 km/h (3 Bft)
14.05.2020 03:03 1,9 C 0,0 C 87 % 1017,2 hPa 0,0 l/m 9,7 km/h (2 Bft) N-NO 22 0 min 0,0 UV-I 0 W/m -0,0 C -1,1 C 12,9 km/h (3 Bft)
14.05.2020 03:04 1,9 C 0,0 C 87 % 1017,2 hPa 0,0 l/m 8,0 km/h (2 Bft) N-NO 22 0 min 0,0 UV-I 0 W/m -0,0 C 0,3 C 11,3 km/h (2 Bft)
14.05.2020 03:05 1,9 C 0,0 C 87 % 1017,3 hPa 0,0 l/m 6,4 km/h (2 Bft) N-NO 22 0 min 0,0 UV-I 0 W/m -0,0 C 1,9 C 9,7 km/h (2 Bft)
14.05.2020 03:06 1,9 C 0,0 C 87 % 1017,1 hPa 0,0 l/m 8,0 km/h (2 Bft) N-NO 22 0 min 0,0 UV-I 0 W/m -0,0 C 0,3 C 12,9 km/h (3 Bft)
14.05.2020 03:07 1,9 C 0,0 C 87 % 1017,2 hPa 0,0 l/m 6,4 km/h (2 Bft) N 360 0 min 0,0 UV-I 0 W/m -0,0 C 1,9 C 8,0 km/h (2 Bft)
14.05.2020 03:08 1,9 C 0,0 C 87 % 1017,2 hPa 0,0 l/m 8,0 km/h (2 Bft) N-NO 22 0 min 0,0 UV-I 0 W/m -0,0 C 0,3 C 9,7 km/h (2 Bft)
14.05.2020 03:09 1,9 C 0,0 C 87 % 1017,2 hPa 0,0 l/m 8,0 km/h (2 Bft) N-NO 22 0 min 0,0 UV-I 0 W/m -0,0 C 0,3 C 12,9 km/h (3 Bft)
14.05.2020 03:10 1,9 C 0,0 C 87 % 1017,1 hPa 0,0 l/m 8,0 km/h (2 Bft) N-NO 22 0 min 0,0 UV-I 0 W/m -0,0 C 0,3 C 12,9 km/h (3 Bft)
14.05.2020 03:11 1,9 C 0,0 C 87 % 1017,2 hPa 0,0 l/m 9,7 km/h (2 Bft) N-NO 22 0 min 0,0 UV-I 0 W/m -0,0 C -1,1 C 12,9 km/h (3 Bft)
14.05.2020 03:12 1,9 C 0,0 C 87 % 1017,2 hPa 0,0 l/m 11,3 km/h (2 Bft) N-NO 22 0 min 0,0 UV-I 0 W/m -0,0 C -2,3 C 16,1 km/h (3 Bft)
14.05.2020 03:13 1,9 C 0,0 C 87 % 1017,1 hPa 0,0 l/m 16,1 km/h (3 Bft) N-NO 22 0 min 0,0 UV-I 0 W/m -0,0 C -5,3 C 22,5 km/h (4 Bft)
14.05.2020 03:14 1,9 C 0,0 C 87 % 1017,3 hPa 0,0 l/m 17,7 km/h (3 Bft) NO 45 0 min 0,0 UV-I 0 W/m -0,0 C -6,1 C 24,1 km/h (4 Bft)
14.05.2020 03:15 2,1 C 0,6 C 88 % 1017,2 hPa 0,0 l/m 14,5 km/h (3 Bft) N-NO 22 0 min 0,0 UV-I 0 W/m 0,3 C -4,2 C 17,7 km/h (3 Bft)
14.05.2020 03:16 2,1 C 0,6 C 87 % 1017,3 hPa 0,0 l/m 14,5 km/h (3 Bft) N-NO 22 0 min 0,0 UV-I 0 W/m 0,2 C -4,2 C 17,7 km/h (3 Bft)
14.05.2020 03:17 2,2 C 0,6 C 87 % 1017,2 hPa 0,0 l/m 16,1 km/h (3 Bft) N-NO 22 0 min 0,0 UV-I 0 W/m 0,3 C -4,9 C 22,5 km/h (4 Bft)
14.05.2020 03:18 2,2 C 0,6 C 87 % 1017,2 hPa 0,0 l/m 16,1 km/h (3 Bft) N-NO 22 0 min 0,0 UV-I 0 W/m 0,3 C -4,9 C 22,5 km/h (4 Bft)
14.05.2020 03:19 2,2 C 0,6 C 87 % 1017,2 hPa 0,0 l/m 12,9 km/h (3 Bft) N-NO 22 0 min 0,0 UV-I 0 W/m 0,3 C -3,1 C 17,7 km/h (3 Bft)
14.05.2020 03:20 2,2 C 0,6 C 87 % 1017,2 hPa 0,0 l/m 14,5 km/h (3 Bft) N-NO 22 0 min 0,0 UV-I 0 W/m 0,3 C -4,0 C 19,3 km/h (3 Bft)
14.05.2020 03:21 2,3 C 0,6 C 87 % 1017,2 hPa 0,0 l/m 11,3 km/h (2 Bft) N-NO 22 0 min 0,0 UV-I 0 W/m 0,4 C -1,9 C 16,1 km/h (3 Bft)
14.05.2020 03:22 2,2 C 0,6 C 87 % 1017,2 hPa 0,0 l/m 11,3 km/h (2 Bft) N-NO 22 0 min 0,0 UV-I 0 W/m 0,3 C -2,0 C 19,3 km/h (3 Bft)
14.05.2020 03:23 2,2 C 0,6 C 87 % 1017,2 hPa 0,0 l/m 11,3 km/h (2 Bft) N-NO 22 0 min 0,0 UV-I 0 W/m 0,3 C -2,0 C 17,7 km/h (3 Bft)
14.05.2020 03:24 2,2 C 0,6 C 87 % 1017,3 hPa 0,0 l/m 17,7 km/h (3 Bft) N-NO 22 0 min 0,0 UV-I 0 W/m 0,3 C -5,7 C 24,1 km/h (4 Bft)
14.05.2020 03:25 2,2 C 0,6 C 87 % 1017,2 hPa 0,0 l/m 17,7 km/h (3 Bft) N-NO 22 0 min 0,0 UV-I 0 W/m 0,3 C -5,7 C 24,1 km/h (4 Bft)
14.05.2020 03:26 2,3 C 0,6 C 87 % 1017,3 hPa 0,0 l/m 16,1 km/h (3 Bft) N-NO 22 0 min 0,0 UV-I 0 W/m 0,4 C -4,8 C 20,9 km/h (4 Bft)
14.05.2020 03:27 2,3 C 0,6 C 87 % 1017,3 hPa 0,0 l/m 14,5 km/h (3 Bft) N-NO 22 0 min 0,0 UV-I 0 W/m 0,4 C -3,9 C 19,3 km/h (3 Bft)
14.05.2020 03:28 2,3 C 0,6 C 87 % 1017,3 hPa 0,0 l/m 14,5 km/h (3 Bft) N-NO 22 0 min 0,0 UV-I 0 W/m 0,4 C -3,9 C 16,1 km/h (3 Bft)
14.05.2020 03:29 2,3 C 0,6 C 87 % 1017,3 hPa 0,0 l/m 11,3 km/h (2 Bft) N-NO 22 0 min 0,0 UV-I 0 W/m 0,4 C -1,9 C 14,5 km/h (3 Bft)
14.05.2020 03:30 2,3 C 0,6 C 87 % 1017,4 hPa 0,0 l/m 11,3 km/h (2 Bft) N-NO 22 0 min 0,0 UV-I 0 W/m 0,4 C -1,9 C 16,1 km/h (3 Bft)
14.05.2020 03:31 2,2 C 0,6 C 87 % 1017,4 hPa 0,0 l/m 8,0 km/h (2 Bft) N-NO 22 0 min 0,0 UV-I 0 W/m 0,3 C 0,7 C 9,7 km/h (2 Bft)
14.05.2020 03:32 2,2 C 0,6 C 86 % 1017,4 hPa 0,0 l/m 12,9 km/h (3 Bft) N-NO 22 0 min 0,0 UV-I 0 W/m 0,1 C -3,1 C 17,7 km/h (3 Bft)
14.05.2020 03:33 2,2 C 0,6 C 87 % 1017,4 hPa 0,0 l/m 11,3 km/h (2 Bft) N 360 0 min 0,0 UV-I 0 W/m 0,3 C -2,0 C 17,7 km/h (3 Bft)
14.05.2020 03:34 2,2 C 0,6 C 87 % 1017,3 hPa 0,0 l/m 14,5 km/h (3 Bft) N-NO 22 0 min 0,0 UV-I 0 W/m 0,3 C -4,0 C 17,7 km/h (3 Bft)
14.05.2020 03:35 2,3 C 0,6 C 87 % 1017,3 hPa 0,0 l/m 9,7 km/h (2 Bft) N-NO 22 0 min 0,0 UV-I 0 W/m 0,4 C -0,7 C 14,5 km/h (3 Bft)
14.05.2020 03:36 2,3 C 0,6 C 87 % 1017,3 hPa 0,0 l/m 8,0 km/h (2 Bft) N-NO 22 0 min 0,0 UV-I 0 W/m 0,4 C 0,8 C 11,3 km/h (2 Bft)
14.05.2020 03:37 2,2 C 0,6 C 87 % 1017,4 hPa 0,0 l/m 11,3 km/h (2 Bft) N-NO 22 0 min 0,0 UV-I 0 W/m 0,3 C -2,0 C 14,5 km/h (3 Bft)
14.05.2020 03:38 2,2 C 0,0 C 87 % 1017,4 hPa 0,0 l/m 9,7 km/h (2 Bft) N-NO 22 0 min 0,0 UV-I 0 W/m 0,3 C -0,8 C 14,5 km/h (3 Bft)
14.05.2020 03:39 2,2 C 0,0 C 87 % 1017,4 hPa 0,0 l/m 11,3 km/h (2 Bft) N-NO 22 0 min 0,0 UV-I 0 W/m 0,3 C -2,0 C 16,1 km/h (3 Bft)
14.05.2020 03:40 2,1 C 0,6 C 87 % 1017,3 hPa 0,0 l/m 11,3 km/h (2 Bft) N-NO 22 0 min 0,0 UV-I 0 W/m 0,2 C -2,1 C 14,5 km/h (3 Bft)
14.05.2020 03:41 2,1 C 0,6 C 87 % 1017,4 hPa 0,0 l/m 9,7 km/h (2 Bft) N-NO 22 0 min 0,0 UV-I 0 W/m 0,2 C -0,9 C 14,5 km/h (3 Bft)
14.05.2020 03:42 2,1 C 0,0 C 87 % 1017,4 hPa 0,0 l/m 9,7 km/h (2 Bft) N-NO 22 0 min 0,0 UV-I 0 W/m 0,2 C -0,9 C 14,5 km/h (3 Bft)
14.05.2020 03:43 2,1 C 0,0 C 87 % 1017,4 hPa 0,0 l/m 11,3 km/h (2 Bft) N-NO 22 0 min 0,0 UV-I 0 W/m 0,2 C -2,1 C 12,9 km/h (3 Bft)
14.05.2020 03:44 2,1 C 0,0 C 87 % 1017,4 hPa 0,0 l/m 12,9 km/h (3 Bft) N-NO 22 0 min 0,0 UV-I 0 W/m 0,2 C -3,2 C 16,1 km/h (3 Bft)
14.05.2020 03:45 2,1 C 0,0 C 87 % 1017,4 hPa 0,0 l/m 14,5 km/h (3 Bft) N-NO 22 0 min 0,0 UV-I 0 W/m 0,2 C -4,2 C 17,7 km/h (3 Bft)
14.05.2020 03:46 2,1 C 0,6 C 88 % 1017,4 hPa 0,0 l/m 14,5 km/h (3 Bft) N-NO 22 0 min 0,0 UV-I 0 W/m 0,3 C -4,2 C 16,1 km/h (3 Bft)
14.05.2020 03:47 2,2 C 0,6 C 88 % 1017,4 hPa 0,0 l/m 9,7 km/h (2 Bft) N-NO 22 0 min 0,0 UV-I 0 W/m 0,4 C -0,8 C 14,5 km/h (3 Bft)
14.05.2020 03:48 2,2 C 0,6 C 87 % 1017,4 hPa 0,0 l/m 14,5 km/h (3 Bft) N-NO 22 0 min 0,0 UV-I 0 W/m 0,3 C -4,0 C 19,3 km/h (3 Bft)
14.05.2020 03:49 2,2 C 0,6 C 88 % 1017,4 hPa 0,0 l/m 11,3 km/h (2 Bft) N-NO 22 0 min 0,0 UV-I 0 W/m 0,4 C -2,0 C 16,1 km/h (3 Bft)
14.05.2020 03:50 2,2 C 0,6 C 88 % 1017,4 hPa 0,0 l/m 14,5 km/h (3 Bft) N-NO 22 0 min 0,0 UV-I 0 W/m 0,4 C -4,0 C 17,7 km/h (3 Bft)
14.05.2020 03:51 2,2 C 0,6 C 88 % 1017,4 hPa 0,0 l/m 11,3 km/h (2 Bft) N-NO 22 0 min 0,0 UV-I 0 W/m 0,4 C -2,0 C 14,5 km/h (3 Bft)
14.05.2020 03:52 2,2 C 0,6 C 88 % 1017,5 hPa 0,0 l/m 12,9 km/h (3 Bft) N-NO 22 0 min 0,0 UV-I 0 W/m 0,4 C -3,1 C 14,5 km/h (3 Bft)
14.05.2020 03:53 2,2 C 0,6 C 88 % 1017,4 hPa 0,0 l/m 12,9 km/h (3 Bft) N-NO 22 0 min 0,0 UV-I 0 W/m 0,4 C -3,1 C 14,5 km/h (3 Bft)
14.05.2020 03:54 2,1 C 0,6 C 87 % 1017,4 hPa 0,0 l/m 9,7 km/h (2 Bft) N-NO 22 0 min 0,0 UV-I 0 W/m 0,2 C -0,9 C 14,5 km/h (3 Bft)
14.05.2020 03:55 2,1 C 0,6 C 87 % 1017,4 hPa 0,0 l/m 11,3 km/h (2 Bft) N-NO 22 0 min 0,0 UV-I 0 W/m 0,2 C -2,1 C 14,5 km/h (3 Bft)
14.05.2020 03:56 2,1 C 0,6 C 88 % 1017,4 hPa 0,0 l/m 9,7 km/h (2 Bft) N-NO 22 0 min 0,0 UV-I 0 W/m 0,3 C -0,9 C 12,9 km/h (3 Bft)
14.05.2020 03:57 2,1 C 0,6 C 88 % 1017,5 hPa 0,0 l/m 9,7 km/h (2 Bft) N-NO 22 0 min 0,0 UV-I 0 W/m 0,3 C -0,9 C 14,5 km/h (3 Bft)
14.05.2020 03:58 2,1 C 0,6 C 88 % 1017,4 hPa 0,0 l/m 6,4 km/h (2 Bft) N-NO 22 0 min 0,0 UV-I 0 W/m 0,3 C 2,1 C 14,5 km/h (3 Bft)
14.05.2020 03:59 2,1 C 0,6 C 88 % 1017,4 hPa 0,0 l/m 12,9 km/h (3 Bft) N-NO 22 0 min 0,0 UV-I 0 W/m 0,3 C -3,2 C 17,7 km/h (3 Bft)
14.05.2020 04:00 2,1 C 0,6 C 88 % 1017,5 hPa 0,0 l/m 11,3 km/h (2 Bft) N-NO 22 0 min 0,0 UV-I 0 W/m 0,3 C -2,1 C 17,7 km/h (3 Bft)
14.05.2020 04:01 2,2 C 1,1 C 88 % 1017,4 hPa 0,0 l/m 12,9 km/h (3 Bft) N-NO 22 0 min 0,0 UV-I 0 W/m 0,4 C -3,1 C 17,7 km/h (3 Bft)
14.05.2020 04:02 2,2 C 1,1 C 88 % 1017,5 hPa 0,0 l/m 14,5 km/h (3 Bft) N-NO 22 0 min 0,0 UV-I 0 W/m 0,4 C -4,0 C 16,1 km/h (3 Bft)
14.05.2020 04:03 2,3 C 1,1 C 88 % 1017,4 hPa 0,0 l/m 11,3 km/h (2 Bft) N-NO 22 0 min 0,0 UV-I 0 W/m 0,5 C -1,9 C 14,5 km/h (3 Bft)
14.05.2020 04:04 2,3 C 1,1 C 88 % 1017,4 hPa 0,0 l/m 9,7 km/h (2 Bft) N-NO 22 0 min 0,0 UV-I 0 W/m 0,5 C -0,7 C 14,5 km/h (3 Bft)
14.05.2020 04:05 2,4 C 1,1 C 88 % 1017,5 hPa 0,0 l/m 9,7 km/h (2 Bft) N-NO 22 0 min 0,0 UV-I 0 W/m 0,6 C -0,6 C 12,9 km/h (3 Bft)
14.05.2020 04:06 2,4 C 1,1 C 88 % 1017,5 hPa 0,0 l/m 8,0 km/h (2 Bft) N-NO 22 0 min 0,0 UV-I 0 W/m 0,6 C 0,9 C 12,9 km/h (3 Bft)
14.05.2020 04:07 2,4 C 1,1 C 88 % 1017,6 hPa 0,0 l/m 11,3 km/h (2 Bft) N-NO 22 0 min 0,0 UV-I 0 W/m 0,6 C -1,8 C 14,5 km/h (3 Bft)
14.05.2020 04:08 2,4 C 1,1 C 88 % 1017,5 hPa 0,0 l/m 8,0 km/h (2 Bft) N-NO 22 0 min 0,0 UV-I 0 W/m 0,6 C 0,9 C 11,3 km/h (2 Bft)
14.05.2020 04:09 2,4 C 1,1 C 88 % 1017,6 hPa 0,0 l/m 8,0 km/h (2 Bft) N-NO 22 0 min 0,0 UV-I 0 W/m 0,6 C 0,9 C 12,9 km/h (3 Bft)
14.05.2020 04:10 2,4 C 1,1 C 88 % 1017,6 hPa 0,0 l/m 8,0 km/h (2 Bft) N-NO 22 0 min 0,0 UV-I 0 W/m 0,6 C 0,9 C 12,9 km/h (3 Bft)
14.05.2020 04:11 2,4 C 1,1 C 88 % 1017,6 hPa 0,0 l/m 9,7 km/h (2 Bft) N-NO 22 0 min 0,0 UV-I 0 W/m 0,6 C -0,6 C 12,9 km/h (3 Bft)
14.05.2020 04:12 2,4 C 1,1 C 88 % 1017,6 hPa 0,0 l/m 11,3 km/h (2 Bft) N-NO 22 0 min 0,0 UV-I 0 W/m 0,6 C -1,8 C 14,5 km/h (3 Bft)
14.05.2020 04:13 2,4 C 1,1 C 88 % 1017,5 hPa 0,0 l/m 6,4 km/h (2 Bft) N-NO 22 0 min 0,0 UV-I 0 W/m 0,6 C 2,4 C 8,0 km/h (2 Bft)
14.05.2020 04:14 2,4 C 1,1 C 88 % 1017,6 hPa 0,0 l/m 6,4 km/h (2 Bft) NO 45 0 min 0,0 UV-I 0 W/m 0,6 C 2,4 C 8,0 km/h (2 Bft)
14.05.2020 04:15 2,4 C 1,1 C 88 % 1017,6 hPa 0,0 l/m 4,8 km/h (1 Bft) NO 45 0 min 0,0 UV-I 0 W/m 0,6 C 2,4 C 8,0 km/h (2 Bft)
14.05.2020 04:16 2,4 C 1,1 C 88 % 1017,6 hPa 0,0 l/m 6,4 km/h (2 Bft) N-NO 22 0 min 0,0 UV-I 0 W/m 0,6 C 2,4 C 12,9 km/h (3 Bft)
14.05.2020 04:17 2,4 C 1,1 C 88 % 1017,7 hPa 0,0 l/m 6,4 km/h (2 Bft) N-NO 22 0 min 0,0 UV-I 0 W/m 0,6 C 2,4 C 12,9 km/h (3 Bft)
14.05.2020 04:18 2,4 C 1,1 C 88 % 1017,6 hPa 0,0 l/m 4,8 km/h (1 Bft) N 360 0 min 0,0 UV-I 0 W/m 0,6 C 2,4 C 6,4 km/h (2 Bft)
14.05.2020 04:19 2,3 C 1,1 C 88 % 1017,6 hPa 0,0 l/m 6,4 km/h (2 Bft) N 360 0 min 0,0 UV-I 0 W/m 0,5 C 2,3 C 8,0 km/h (2 Bft)
14.05.2020 04:20 2,3 C 1,1 C 88 % 1017,8 hPa 0,0 l/m 4,8 km/h (1 Bft) N-NO 22 0 min 0,0 UV-I 0 W/m 0,5 C 2,3 C 6,4 km/h (2 Bft)
14.05.2020 04:21 2,3 C 1,1 C 88 % 1017,6 hPa 0,0 l/m 8,0 km/h (2 Bft) N 360 0 min 0,0 UV-I 0 W/m 0,5 C 0,8 C 12,9 km/h (3 Bft)
14.05.2020 04:22 2,3 C 1,1 C 88 % 1017,7 hPa 0,0 l/m 8,0 km/h (2 Bft) N-NO 22 0 min 0,0 UV-I 0 W/m 0,5 C 0,8 C 12,9 km/h (3 Bft)
14.05.2020 04:23 2,3 C 1,1 C 88 % 1017,7 hPa 0,0 l/m 6,4 km/h (2 Bft) N 360 0 min 0,0 UV-I 0 W/m 0,5 C 2,3 C 9,7 km/h (2 Bft)
14.05.2020 04:24 2,3 C 1,1 C 88 % 1017,7 hPa 0,0 l/m 4,8 km/h (1 Bft) N 360 0 min 0,0 UV-I 0 W/m 0,5 C 2,3 C 6,4 km/h (2 Bft)
14.05.2020 04:25 2,3 C 1,1 C 88 % 1017,7 hPa 0,0 l/m 6,4 km/h (2 Bft) N 360 0 min 0,0 UV-I 0 W/m 0,5 C 2,3 C 8,0 km/h (2 Bft)
14.05.2020 04:26 2,3 C 1,1 C 88 % 1017,7 hPa 0,0 l/m 9,7 km/h (2 Bft) N 360 0 min 0,0 UV-I 0 W/m 0,5 C -0,7 C 14,5 km/h (3 Bft)
14.05.2020 04:27 2,3 C 1,1 C 88 % 1017,7 hPa 0,0 l/m 6,4 km/h (2 Bft) N 360 0 min 0,0 UV-I 0 W/m 0,5 C 2,3 C 12,9 km/h (3 Bft)
14.05.2020 04:28 2,3 C 1,1 C 88 % 1017,7 hPa 0,0 l/m 8,0 km/h (2 Bft) N-NO 22 0 min 0,0 UV-I 0 W/m 0,5 C 0,8 C 11,3 km/h (2 Bft)
14.05.2020 04:29 2,4 C 1,1 C 88 % 1017,7 hPa 0,0 l/m 12,9 km/h (3 Bft) N 360 0 min 0,0 UV-I 0 W/m 0,6 C -2,8 C 22,5 km/h (4 Bft)
14.05.2020 04:30 2,4 C 1,7 C 88 % 1017,6 hPa 0,0 l/m 12,9 km/h (3 Bft) N 360 0 min 0,0 UV-I 0 W/m 0,6 C -2,8 C 16,1 km/h (3 Bft)
14.05.2020 04:31 2,4 C 1,7 C 87 % 1017,7 hPa 0,0 l/m 19,3 km/h (3 Bft) N 360 0 min 0,0 UV-I 0 W/m 0,5 C -6,2 C 24,1 km/h (4 Bft)
14.05.2020 04:32 2,4 C 1,7 C 87 % 1017,6 hPa 0,0 l/m 17,7 km/h (3 Bft) N 360 0 min 0,0 UV-I 0 W/m 0,5 C -5,5 C 22,5 km/h (4 Bft)
14.05.2020 04:33 2,4 C 1,7 C 87 % 1017,7 hPa 0,0 l/m 12,9 km/h (3 Bft) N 360 0 min 0,0 UV-I 0 W/m 0,5 C -2,8 C 20,9 km/h (4 Bft)
14.05.2020 04:34 2,6 C 1,7 C 87 % 1017,8 hPa 0,0 l/m 14,5 km/h (3 Bft) N 360 0 min 0,0 UV-I 0 W/m 0,7 C -3,5 C 19,3 km/h (3 Bft)
14.05.2020 04:35 2,5 C 1,7 C 86 % 1017,7 hPa 0,0 l/m 9,7 km/h (2 Bft) N 360 0 min 0,0 UV-I 0 W/m 0,4 C -0,5 C 16,1 km/h (3 Bft)
14.05.2020 04:36 2,6 C 1,7 C 86 % 1017,7 hPa 0,0 l/m 12,9 km/h (3 Bft) N 360 0 min 0,0 UV-I 0 W/m 0,5 C -2,6 C 17,7 km/h (3 Bft)
14.05.2020 04:37 2,6 C 1,7 C 86 % 1017,8 hPa 0,0 l/m 8,0 km/h (2 Bft) N-NO 22 0 min 0,0 UV-I 0 W/m 0,5 C 1,1 C 12,9 km/h (3 Bft)
14.05.2020 04:38 2,6 C 1,7 C 85 % 1017,7 hPa 0,0 l/m 12,9 km/h (3 Bft) N 360 0 min 0,0 UV-I 0 W/m 0,3 C -2,6 C 16,1 km/h (3 Bft)
14.05.2020 04:39 2,6 C 1,7 C 85 % 1017,7 hPa 0,0 l/m 14,5 km/h (3 Bft) N 360 0 min 0,0 UV-I 0 W/m 0,3 C -3,5 C 20,9 km/h (4 Bft)
14.05.2020 04:40 2,5 C 1,7 C 85 % 1017,7 hPa 0,0 l/m 11,3 km/h (2 Bft) N 360 0 min 0,0 UV-I 0 W/m 0,2 C -1,6 C 17,7 km/h (3 Bft)
14.05.2020 04:41 2,5 C 1,7 C 85 % 1017,8 hPa 0,0 l/m 12,9 km/h (3 Bft) N-NO 22 0 min 0,0 UV-I 0 W/m 0,2 C -2,7 C 16,1 km/h (3 Bft)
14.05.2020 04:42 2,5 C 1,7 C 85 % 1017,9 hPa 0,0 l/m 12,9 km/h (3 Bft) N-NO 22 0 min 0,0 UV-I 0 W/m 0,2 C -2,7 C 17,7 km/h (3 Bft)
14.05.2020 04:43 2,5 C 1,7 C 85 % 1017,8 hPa 0,0 l/m 9,7 km/h (2 Bft) N-NO 22 0 min 0,0 UV-I 0 W/m 0,2 C -0,5 C 14,5 km/h (3 Bft)
14.05.2020 04:44 2,5 C 1,7 C 85 % 1017,8 hPa 0,0 l/m 8,0 km/h (2 Bft) N 360 0 min 0,0 UV-I 0 W/m 0,2 C 1,0 C 16,1 km/h (3 Bft)
14.05.2020 04:45 2,4 C 1,7 C 85 % 1017,8 hPa 0,0 l/m 8,0 km/h (2 Bft) N 360 0 min 0,0 UV-I 0 W/m 0,1 C 0,9 C 12,9 km/h (3 Bft)
14.05.2020 04:46 2,4 C 1,7 C 85 % 1017,8 hPa 0,0 l/m 14,5 km/h (3 Bft) N-NO 22 0 min 0,0 UV-I 0 W/m 0,1 C -3,8 C 17,7 km/h (3 Bft)
14.05.2020 04:47 2,4 C 1,7 C 85 % 1017,8 hPa 0,0 l/m 9,7 km/h (2 Bft) N-NO 22 0 min 0,0 UV-I 0 W/m 0,1 C -0,6 C 14,5 km/h (3 Bft)
14.05.2020 04:48 2,4 C 1,7 C 85 % 1017,7 hPa 0,0 l/m 9,7 km/h (2 Bft) N-NO 22 0 min 0,0 UV-I 0 W/m 0,1 C -0,6 C 14,5 km/h (3 Bft)
14.05.2020 04:49 2,4 C 1,7 C 85 % 1017,8 hPa 0,0 l/m 9,7 km/h (2 Bft) N-NO 22 0 min 0,0 UV-I 0 W/m 0,1 C -0,6 C 14,5 km/h (3 Bft)
14.05.2020 04:50 2,4 C 1,7 C 85 % 1017,8 hPa 0,0 l/m 9,7 km/h (2 Bft) N-NO 22 0 min 0,0 UV-I 0 W/m 0,1 C -0,6 C 12,9 km/h (3 Bft)
14.05.2020 04:51 2,4 C 1,7 C 85 % 1017,7 hPa 0,0 l/m 11,3 km/h (2 Bft) N-NO 22 0 min 0,0 UV-I 0 W/m 0,1 C -1,8 C 17,7 km/h (3 Bft)
14.05.2020 04:52 2,4 C 1,7 C 85 % 1017,7 hPa 0,0 l/m 14,5 km/h (3 Bft) N 360 0 min 0,0 UV-I 0 W/m 0,1 C -3,8 C 19,3 km/h (3 Bft)
14.05.2020 04:53 2,3 C 1,7 C 85 % 1017,7 hPa 0,0 l/m 16,1 km/h (3 Bft) N-NO 22 0 min 0,0 UV-I 0 W/m 0,0 C -4,8 C 22,5 km/h (4 Bft)
14.05.2020 04:54 2,3 C 1,7 C 85 % 1017,8 hPa 0,0 l/m 14,5 km/h (3 Bft) N-NO 22 0 min 0,0 UV-I 0 W/m 0,0 C -3,9 C 17,7 km/h (3 Bft)
14.05.2020 04:55 2,3 C 1,7 C 84 % 1017,8 hPa 0,0 l/m 16,1 km/h (3 Bft) N-NO 22 0 min 0,0 UV-I 0 W/m -0,1 C -4,8 C 20,9 km/h (4 Bft)
14.05.2020 04:56 2,3 C 1,7 C 84 % 1017,7 hPa 0,0 l/m 14,5 km/h (3 Bft) N-NO 22 0 min 0,0 UV-I 0 W/m -0,1 C -3,9 C 19,3 km/h (3 Bft)
14.05.2020 04:57 2,3 C 1,7 C 84 % 1017,8 hPa 0,0 l/m 9,7 km/h (2 Bft) N-NO 22 0 min 0,0 UV-I 0 W/m -0,1 C -0,7 C 14,5 km/h (3 Bft)
14.05.2020 04:58 2,3 C 1,1 C 84 % 1017,8 hPa 0,0 l/m 8,0 km/h (2 Bft) N-NO 22 0 min 0,0 UV-I 0 W/m -0,1 C 0,8 C 14,5 km/h (3 Bft)
14.05.2020 04:59 2,2 C 1,1 C 84 % 1017,9 hPa 0,0 l/m 12,9 km/h (3 Bft) N 360 0 min 0,0 UV-I 0 W/m -0,2 C -3,1 C 16,1 km/h (3 Bft)
14.05.2020 05:00 2,2 C 1,1 C 84 % 1017,9 hPa 0,0 l/m 11,3 km/h (2 Bft) N-NO 22 0 min 0,0 UV-I 0 W/m -0,2 C -2,0 C 16,1 km/h (3 Bft)
14.05.2020 05:01 2,1 C 1,1 C 84 % 1017,9 hPa 0,0 l/m 12,9 km/h (3 Bft) N-NO 22 0 min 0,0 UV-I 0 W/m -0,3 C -3,2 C 17,7 km/h (3 Bft)
14.05.2020 05:02 2,1 C 1,1 C 84 % 1017,9 hPa 0,0 l/m 11,3 km/h (2 Bft) N-NO 22 0 min 0,0 UV-I 0 W/m -0,3 C -2,1 C 17,7 km/h (3 Bft)
14.05.2020 05:03 2,1 C 1,1 C 84 % 1017,9 hPa 0,0 l/m 6,4 km/h (2 Bft) N 360 0 min 0,0 UV-I 0 W/m -0,3 C 2,1 C 8,0 km/h (2 Bft)
14.05.2020 05:04 2,1 C 1,1 C 84 % 1018,0 hPa 0,0 l/m 8,0 km/h (2 Bft) N-NO 22 0 min 0,0 UV-I 0 W/m -0,3 C 0,6 C 11,3 km/h (2 Bft)
14.05.2020 05:05 2,1 C 1,1 C 84 % 1017,9 hPa 0,0 l/m 6,4 km/h (2 Bft) N-NO 22 0 min 0,0 UV-I 0 W/m -0,3 C 2,1 C 8,0 km/h (2 Bft)
14.05.2020 05:06 2,0 C 1,1 C 84 % 1017,9 hPa 0,0 l/m 6,4 km/h (2 Bft) N-NO 22 0 min 0,0 UV-I 0 W/m -0,4 C 2,0 C 11,3 km/h (2 Bft)
14.05.2020 05:07 2,0 C 1,1 C 85 % 1017,9 hPa 0,0 l/m 6,4 km/h (2 Bft) N-NO 22 0 min 0,0 UV-I 0 W/m -0,3 C 2,0 C 8,0 km/h (2 Bft)
14.05.2020 05:08 1,9 C 1,1 C 85 % 1017,9 hPa 0,0 l/m 9,7 km/h (2 Bft) N-NO 22 0 min 0,0 UV-I 0 W/m -0,3 C -1,1 C 14,5 km/h (3 Bft)
14.05.2020 05:09 1,9 C 1,1 C 85 % 1017,9 hPa 0,0 l/m 16,1 km/h (3 Bft) N 360 0 min 0,0 UV-I 0 W/m -0,3 C -5,3 C 20,9 km/h (4 Bft)
14.05.2020 05:10 1,9 C 1,1 C 85 % 1017,9 hPa 0,0 l/m 9,7 km/h (2 Bft) N-NO 22 0 min 0,0 UV-I 0 W/m -0,3 C -1,1 C 14,5 km/h (3 Bft)
14.05.2020 05:11 1,9 C 1,1 C 85 % 1018,0 hPa 0,0 l/m 12,9 km/h (3 Bft) N-NO 22 0 min 0,0 UV-I 0 W/m -0,3 C -3,4 C 16,1 km/h (3 Bft)
14.05.2020 05:12 1,9 C 1,1 C 85 % 1017,9 hPa 0,0 l/m 11,3 km/h (2 Bft) N-NO 22 0 min 0,0 UV-I 0 W/m -0,3 C -2,3 C 17,7 km/h (3 Bft)
14.05.2020 05:13 1,9 C 1,1 C 85 % 1017,9 hPa 0,0 l/m 12,9 km/h (3 Bft) N-NO 22 0 min 0,0 UV-I 0 W/m -0,3 C -3,4 C 17,7 km/h (3 Bft)
14.05.2020 05:14 1,9 C 1,1 C 85 % 1017,9 hPa 0,0 l/m 12,9 km/h (3 Bft) N-NO 22 0 min 0,0 UV-I 0 W/m -0,3 C -3,4 C 16,1 km/h (3 Bft)
14.05.2020 05:15 1,9 C 1,1 C 85 % 1017,9 hPa 0,0 l/m 9,7 km/h (2 Bft) N 360 0 min 0,0 UV-I 0 W/m -0,3 C -1,1 C 14,5 km/h (3 Bft)
14.05.2020 05:16 1,9 C 0,6 C 84 % 1017,9 hPa 0,0 l/m 11,3 km/h (2 Bft) N 360 0 min 0,0 UV-I 0 W/m -0,5 C -2,3 C 16,1 km/h (3 Bft)
14.05.2020 05:17 1,8 C 0,6 C 84 % 1017,8 hPa 0,0 l/m 9,7 km/h (2 Bft) N-NO 22 0 min 0,0 UV-I 0 W/m -0,6 C -1,2 C 14,5 km/h (3 Bft)
14.05.2020 05:18 1,8 C 0,6 C 84 % 1017,9 hPa 0,0 l/m 8,0 km/h (2 Bft) N-NO 22 0 min 0,0 UV-I 0 W/m -0,6 C 0,2 C 12,9 km/h (3 Bft)
14.05.2020 05:19 1,8 C 0,6 C 84 % 1017,9 hPa 0,0 l/m 9,7 km/h (2 Bft) N-NO 22 0 min 0,0 UV-I 0 W/m -0,6 C -1,2 C 14,5 km/h (3 Bft)
14.05.2020 05:20 1,7 C 0,6 C 85 % 1017,9 hPa 0,0 l/m 11,3 km/h (2 Bft) N-NO 22 0 min 0,0 UV-I 0 W/m -0,5 C -2,6 C 16,1 km/h (3 Bft)
14.05.2020 05:21 1,7 C 0,6 C 85 % 1017,9 hPa 0,0 l/m 8,0 km/h (2 Bft) N-NO 22 0 min 0,0 UV-I 0 W/m -0,5 C 0,1 C 14,5 km/h (3 Bft)
14.05.2020 05:22 1,6 C 0,0 C 85 % 1017,9 hPa 0,0 l/m 8,0 km/h (2 Bft) N-NO 22 0 min 0,0 UV-I 0 W/m -0,6 C 0,0 C 11,3 km/h (2 Bft)
14.05.2020 05:23 1,6 C 0,0 C 85 % 1017,9 hPa 0,0 l/m 6,4 km/h (2 Bft) N-NO 22 0 min 0,0 UV-I 0 W/m -0,6 C 1,6 C 12,9 km/h (3 Bft)
14.05.2020 05:24 1,4 C 0,0 C 85 % 1017,8 hPa 0,0 l/m 9,7 km/h (2 Bft) N-NO 22 0 min 0,0 UV-I 0 W/m -0,8 C -1,7 C 14,5 km/h (3 Bft)
14.05.2020 05:25 1,4 C 0,0 C 85 % 1017,9 hPa 0,0 l/m 8,0 km/h (2 Bft) N 360 0 min 0,0 UV-I 0 W/m -0,8 C -0,2 C 14,5 km/h (3 Bft)
14.05.2020 05:26 1,3 C 0,0 C 85 % 1017,9 hPa 0,0 l/m 6,4 km/h (2 Bft) N-NO 22 0 min 0,0 UV-I 0 W/m -0,9 C 1,3 C 11,3 km/h (2 Bft)
14.05.2020 05:27 1,3 C 0,0 C 85 % 1017,9 hPa 0,0 l/m 6,4 km/h (2 Bft) N-NO 22 0 min 0,0 UV-I 0 W/m -0,9 C 1,3 C 11,3 km/h (2 Bft)
14.05.2020 05:28 1,3 C -0,6 C 85 % 1017,9 hPa 0,0 l/m 6,4 km/h (2 Bft) N-NO 22 0 min 0,0 UV-I 0 W/m -0,9 C 1,3 C 11,3 km/h (2 Bft)
14.05.2020 05:29 1,2 C -0,6 C 86 % 1018,0 hPa 0,0 l/m 6,4 km/h (2 Bft) N-NO 22 0 min 0,0 UV-I 0 W/m -0,9 C 1,2 C 11,3 km/h (2 Bft)
14.05.2020 05:30 1,2 C -0,6 C 86 % 1017,9 hPa 0,0 l/m 4,8 km/h (1 Bft) N-NO 22 0 min 0,0 UV-I 0 W/m -0,9 C 1,2 C 6,4 km/h (2 Bft)
14.05.2020 05:31 1,2 C -0,6 C 86 % 1017,9 hPa 0,0 l/m 6,4 km/h (2 Bft) N-NO 22 0 min 0,0 UV-I 0 W/m -0,9 C 1,2 C 8,0 km/h (2 Bft)
14.05.2020 05:32 1,1 C -0,6 C 86 % 1017,9 hPa 0,0 l/m 6,4 km/h (2 Bft) N-NO 22 0 min 0,0 UV-I 0 W/m -1,0 C 1,1 C 12,9 km/h (3 Bft)
14.05.2020 05:33 1,1 C -0,6 C 86 % 1017,9 hPa 0,0 l/m 11,3 km/h (2 Bft) N-NO 22 0 min 0,0 UV-I 0 W/m -1,0 C -3,2 C 16,1 km/h (3 Bft)
14.05.2020 05:34 1,1 C -0,6 C 86 % 1018,0 hPa 0,0 l/m 9,7 km/h (2 Bft) N-NO 22 0 min 0,0 UV-I 0 W/m -1,0 C -2,0 C 12,9 km/h (3 Bft)
14.05.2020 05:35 1,0 C -0,6 C 87 % 1018,0 hPa 0,0 l/m 11,3 km/h (2 Bft) N-NO 22 0 min 0,0 UV-I 0 W/m -0,9 C -3,3 C 14,5 km/h (3 Bft)
14.05.2020 05:36 1,1 C -0,6 C 86 % 1017,9 hPa 0,0 l/m 8,0 km/h (2 Bft) N-NO 22 0 min 0,0 UV-I 0 W/m -1,0 C -0,5 C 11,3 km/h (2 Bft)
14.05.2020 05:37 1,0 C -0,6 C 87 % 1018,0 hPa 0,0 l/m 8,0 km/h (2 Bft) N-NO 22 0 min 0,0 UV-I 0 W/m -0,9 C -0,6 C 17,7 km/h (3 Bft)
14.05.2020 05:38 0,9 C -1,1 C 86 % 1018,0 hPa 0,0 l/m 6,4 km/h (2 Bft) N-NO 22 0 min 0,0 UV-I 0 W/m -1,2 C 0,9 C 9,7 km/h (2 Bft)
14.05.2020 05:39 0,9 C -0,6 C 87 % 1018,1 hPa 0,0 l/m 8,0 km/h (2 Bft) N-NO 22 0 min 0,0 UV-I 0 W/m -1,0 C -0,7 C 11,3 km/h (2 Bft)
14.05.2020 05:40 0,9 C -0,6 C 87 % 1018,2 hPa 0,0 l/m 6,4 km/h (2 Bft) N-NO 22 0 min 0,0 UV-I 0 W/m -1,0 C 0,9 C 9,7 km/h (2 Bft)
14.05.2020 05:41 0,9 C -0,6 C 87 % 1018,2 hPa 0,0 l/m 8,0 km/h (2 Bft) N-NO 22 0 min 0,0 UV-I 0 W/m -1,0 C -0,7 C 11,3 km/h (2 Bft)
14.05.2020 05:42 0,8 C -1,1 C 87 % 1018,1 hPa 0,0 l/m 4,8 km/h (1 Bft) N-NO 22 0 min 0,0 UV-I 0 W/m -1,1 C 0,8 C 9,7 km/h (2 Bft)
14.05.2020 05:43 0,8 C -0,6 C 87 % 1018,1 hPa 0,0 l/m 4,8 km/h (1 Bft) N-NO 22 0 min 0,0 UV-I 0 W/m -1,1 C 0,8 C 6,4 km/h (2 Bft)
14.05.2020 05:44 0,8 C -0,6 C 87 % 1018,2 hPa 0,0 l/m 6,4 km/h (2 Bft) N-NO 22 0 min 0,0 UV-I 0 W/m -1,1 C 0,8 C 8,0 km/h (2 Bft)
14.05.2020 05:45 0,8 C -1,1 C 87 % 1018,2 hPa 0,0 l/m 8,0 km/h (2 Bft) N-NO 22 0 min 0,0 UV-I 0 W/m -1,1 C -0,8 C 12,9 km/h (3 Bft)
14.05.2020 05:46 0,8 C -1,1 C 87 % 1018,1 hPa 0,0 l/m 6,4 km/h (2 Bft) N-NO 22 0 min 0,0 UV-I 0 W/m -1,1 C 0,8 C 8,0 km/h (2 Bft)
14.05.2020 05:47 0,8 C -1,1 C 87 % 1018,2 hPa 0,0 l/m 11,3 km/h (2 Bft) N-NO 22 0 min 0,0 UV-I 0 W/m -1,1 C -3,6 C 16,1 km/h (3 Bft)
14.05.2020 05:48 0,8 C -0,6 C 88 % 1018,2 hPa 0,0 l/m 12,9 km/h (3 Bft) N-NO 22 0 min 0,0 UV-I 0 W/m -1,0 C -4,7 C 17,7 km/h (3 Bft)
14.05.2020 05:49 0,8 C -0,6 C 88 % 1018,2 hPa 0,0 l/m 6,4 km/h (2 Bft) N-NO 22 0 min 0,0 UV-I 0 W/m -1,0 C 0,8 C 9,7 km/h (2 Bft)
14.05.2020 05:50 0,9 C -0,6 C 88 % 1018,3 hPa 0,0 l/m 6,4 km/h (2 Bft) N-NO 22 0 min 0,0 UV-I 0 W/m -0,9 C 0,9 C 8,0 km/h (2 Bft)
14.05.2020 05:51 0,9 C -0,6 C 88 % 1018,1 hPa 0,0 l/m 6,4 km/h (2 Bft) N-NO 22 0 min 0,0 UV-I 0 W/m -0,9 C 0,9 C 9,7 km/h (2 Bft)
14.05.2020 05:52 0,9 C -0,6 C 88 % 1018,1 hPa 0,0 l/m 8,0 km/h (2 Bft) N-NO 22 0 min 0,0 UV-I 0 W/m -0,9 C -0,7 C 12,9 km/h (3 Bft)
14.05.2020 05:53 0,9 C -0,6 C 88 % 1018,1 hPa 0,0 l/m 8,0 km/h (2 Bft) N-NO 22 0 min 0,0 UV-I 5 W/m -0,9 C -0,7 C 12,9 km/h (3 Bft)
14.05.2020 05:54 0,9 C 0,0 C 88 % 1018,2 hPa 0,0 l/m 9,7 km/h (2 Bft) N 360 0 min 0,0 UV-I 5 W/m -0,9 C -2,2 C 12,9 km/h (3 Bft)
14.05.2020 05:55 1,0 C 0,0 C 88 % 1018,1 hPa 0,0 l/m 6,4 km/h (2 Bft) N-NO 22 0 min 0,0 UV-I 5 W/m -0,8 C 1,0 C 8,0 km/h (2 Bft)
14.05.2020 05:56 1,0 C 0,0 C 88 % 1018,1 hPa 0,0 l/m 6,4 km/h (2 Bft) N-NO 22 0 min 0,0 UV-I 5 W/m -0,8 C 1,0 C 8,0 km/h (2 Bft)
14.05.2020 05:57 1,0 C 0,0 C 88 % 1018,2 hPa 0,0 l/m 6,4 km/h (2 Bft) N-NO 22 0 min 0,0 UV-I 7 W/m -0,8 C 1,0 C 8,0 km/h (2 Bft)
14.05.2020 05:58 1,1 C 0,0 C 88 % 1018,1 hPa 0,0 l/m 8,0 km/h (2 Bft) N-NO 22 0 min 0,0 UV-I 7 W/m -0,7 C -0,5 C 11,3 km/h (2 Bft)
14.05.2020 05:59 1,1 C 0,0 C 88 % 1018,1 hPa 0,0 l/m 8,0 km/h (2 Bft) N-NO 22 0 min 0,0 UV-I 7 W/m -0,7 C -0,5 C 12,9 km/h (3 Bft)
14.05.2020 06:00 1,1 C 0,0 C 88 % 1018,1 hPa 0,0 l/m 8,0 km/h (2 Bft) N 360 0 min 0,0 UV-I 9 W/m -0,7 C -0,5 C 14,5 km/h (3 Bft)
14.05.2020 06:01 1,1 C 0,0 C 88 % 1018,1 hPa 0,0 l/m 6,4 km/h (2 Bft) N-NO 22 0 min 0,0 UV-I 9 W/m -0,7 C 1,1 C 9,7 km/h (2 Bft)
14.05.2020 06:02 1,1 C 0,0 C 88 % 1018,1 hPa 0,0 l/m 6,4 km/h (2 Bft) N-NO 22 0 min 0,0 UV-I 9 W/m -0,7 C 1,1 C 11,3 km/h (2 Bft)
14.05.2020 06:03 1,1 C 0,0 C 88 % 1018,1 hPa 0,0 l/m 11,3 km/h (2 Bft) N-NO 22 0 min 0,0 UV-I 11 W/m -0,7 C -3,2 C 14,5 km/h (3 Bft)
14.05.2020 06:04 1,0 C 0,0 C 88 % 1018,2 hPa 0,0 l/m 11,3 km/h (2 Bft) NO 45 0 min 0,0 UV-I 11 W/m -0,8 C -3,3 C 14,5 km/h (3 Bft)
14.05.2020 06:05 1,0 C 0,0 C 87 % 1018,2 hPa 0,0 l/m 8,0 km/h (2 Bft) N-NO 22 0 min 0,0 UV-I 12 W/m -0,9 C -0,6 C 11,3 km/h (2 Bft)
14.05.2020 06:06 0,9 C 0,0 C 88 % 1018,3 hPa 0,0 l/m 8,0 km/h (2 Bft) N-NO 22 0 min 0,0 UV-I 12 W/m -0,9 C -0,7 C 12,9 km/h (3 Bft)
14.05.2020 06:07 0,9 C -0,6 C 88 % 1018,3 hPa 0,0 l/m 6,4 km/h (2 Bft) N-NO 22 0 min 0,0 UV-I 12 W/m -0,9 C 0,9 C 8,0 km/h (2 Bft)
14.05.2020 06:08 0,9 C -0,6 C 88 % 1018,4 hPa 0,0 l/m 9,7 km/h (2 Bft) N-NO 22 0 min 0,0 UV-I 12 W/m -0,9 C -2,2 C 16,1 km/h (3 Bft)
14.05.2020 06:09 0,9 C -0,6 C 88 % 1018,3 hPa 0,0 l/m 6,4 km/h (2 Bft) N-NO 22 0 min 0,0 UV-I 12 W/m -0,9 C 0,9 C 11,3 km/h (2 Bft)
14.05.2020 06:10 0,9 C -0,6 C 88 % 1018,4 hPa 0,0 l/m 11,3 km/h (2 Bft) N-NO 22 0 min 0,0 UV-I 14 W/m -0,9 C -3,5 C 16,1 km/h (3 Bft)
14.05.2020 06:11 0,9 C -0,6 C 88 % 1018,4 hPa 0,0 l/m 9,7 km/h (2 Bft) N-NO 22 0 min 0,0 UV-I 16 W/m -0,9 C -2,2 C 16,1 km/h (3 Bft)
14.05.2020 06:12 0,9 C 0,0 C 88 % 1018,3 hPa 0,0 l/m 12,9 km/h (3 Bft) N-NO 22 0 min 0,0 UV-I 18 W/m -0,9 C -4,6 C 16,1 km/h (3 Bft)
14.05.2020 06:13 0,9 C 0,0 C 88 % 1018,4 hPa 0,0 l/m 11,3 km/h (2 Bft) N-NO 22 0 min 0,0 UV-I 18 W/m -0,9 C -3,5 C 16,1 km/h (3 Bft)
14.05.2020 06:14 1,0 C 0,0 C 88 % 1018,5 hPa 0,0 l/m 9,7 km/h (2 Bft) N-NO 22 0 min 0,0 UV-I 18 W/m -0,8 C -2,1 C 12,9 km/h (3 Bft)
14.05.2020 06:15 1,0 C 0,0 C 88 % 1018,4 hPa 0,0 l/m 9,7 km/h (2 Bft) N-NO 22 0 min 0,0 UV-I 18 W/m -0,8 C -2,1 C 12,9 km/h (3 Bft)
14.05.2020 06:16 1,0 C 0,0 C 88 % 1018,5 hPa 0,0 l/m 6,4 km/h (2 Bft) N-NO 22 0 min 0,0 UV-I 18 W/m -0,8 C 1,0 C 9,7 km/h (2 Bft)
14.05.2020 06:17 0,9 C 0,0 C 88 % 1018,3 hPa 0,0 l/m 6,4 km/h (2 Bft) N-NO 22 0 min 0,0 UV-I 18 W/m -0,9 C 0,9 C 8,0 km/h (2 Bft)
14.05.2020 06:18 0,9 C 0,0 C 88 % 1018,5 hPa 0,0 l/m 6,4 km/h (2 Bft) N-NO 22 0 min 0,0 UV-I 18 W/m -0,9 C 0,9 C 11,3 km/h (2 Bft)
14.05.2020 06:19 0,9 C -0,6 C 88 % 1018,4 hPa 0,0 l/m 8,0 km/h (2 Bft) N-NO 22 0 min 0,0 UV-I 18 W/m -0,9 C -0,7 C 11,3 km/h (2 Bft)
14.05.2020 06:20 0,8 C -0,6 C 88 % 1018,4 hPa 0,0 l/m 6,4 km/h (2 Bft) N-NO 22 0 min 0,0 UV-I 19 W/m -1,0 C 0,8 C 8,0 km/h (2 Bft)
14.05.2020 06:21 0,8 C -0,6 C 88 % 1018,4 hPa 0,0 l/m 9,7 km/h (2 Bft) N-NO 22 0 min 0,0 UV-I 21 W/m -1,0 C -2,3 C 19,3 km/h (3 Bft)
14.05.2020 06:22 0,8 C -0,6 C 88 % 1018,4 hPa 0,0 l/m 9,7 km/h (2 Bft) N-NO 22 0 min 0,0 UV-I 23 W/m -1,0 C -2,3 C 14,5 km/h (3 Bft)
14.05.2020 06:23 0,8 C -0,6 C 88 % 1018,4 hPa 0,0 l/m 9,7 km/h (2 Bft) N-NO 22 0 min 0,0 UV-I 23 W/m -1,0 C -2,3 C 12,9 km/h (3 Bft)
14.05.2020 06:24 0,8 C -0,6 C 88 % 1018,3 hPa 0,0 l/m 6,4 km/h (2 Bft) N-NO 22 0 min 0,0 UV-I 23 W/m -1,0 C 0,8 C 8,0 km/h (2 Bft)
14.05.2020 06:25 0,8 C -0,6 C 88 % 1018,3 hPa 0,0 l/m 6,4 km/h (2 Bft) N-NO 22 0 min 0,0 UV-I 23 W/m -1,0 C 0,8 C 9,7 km/h (2 Bft)
14.05.2020 06:26 0,8 C -0,6 C 88 % 1018,3 hPa 0,0 l/m 6,4 km/h (2 Bft) N-NO 22 0 min 0,0 UV-I 23 W/m -1,0 C 0,8 C 8,0 km/h (2 Bft)
14.05.2020 06:27 0,8 C -0,6 C 88 % 1018,4 hPa 0,0 l/m 9,7 km/h (2 Bft) N-NO 22 0 min 0,0 UV-I 23 W/m -1,0 C -2,3 C 17,7 km/h (3 Bft)
14.05.2020 06:28 0,8 C -0,6 C 88 % 1018,4 hPa 0,0 l/m 11,3 km/h (2 Bft) N-NO 22 0 min 0,0 UV-I 25 W/m -1,0 C -3,6 C 16,1 km/h (3 Bft)
14.05.2020 06:29 0,9 C -0,6 C 89 % 1018,3 hPa 0,0 l/m 9,7 km/h (2 Bft) N-NO 22 0 min 0,0 UV-I 25 W/m -0,7 C -2,2 C 17,7 km/h (3 Bft)
14.05.2020 06:30 0,9 C -0,6 C 89 % 1018,4 hPa 0,0 l/m 8,0 km/h (2 Bft) N-NO 22 0 min 0,0 UV-I 26 W/m -0,7 C -0,7 C 12,9 km/h (3 Bft)
14.05.2020 06:31 1,0 C -0,6 C 89 % 1018,4 hPa 0,0 l/m 14,5 km/h (3 Bft) N-NO 22 0 min 0,0 UV-I 27 W/m -0,6 C -5,5 C 20,9 km/h (4 Bft)
14.05.2020 06:32 1,0 C 0,0 C 89 % 1018,4 hPa 0,0 l/m 16,1 km/h (3 Bft) N-NO 22 0 min 0,0 UV-I 28 W/m -0,6 C -6,4 C 19,3 km/h (3 Bft)
14.05.2020 06:33 1,1 C 0,0 C 89 % 1018,3 hPa 0,0 l/m 17,7 km/h (3 Bft) N-NO 22 0 min 0,0 UV-I 30 W/m -0,5 C -7,1 C 22,5 km/h (4 Bft)
14.05.2020 06:34 1,2 C 0,0 C 89 % 1018,5 hPa 0,0 l/m 11,3 km/h (2 Bft) N-NO 22 0 min 0,0 UV-I 32 W/m -0,4 C -3,1 C 17,7 km/h (3 Bft)
14.05.2020 06:35 1,2 C 0,0 C 88 % 1018,4 hPa 0,0 l/m 14,5 km/h (3 Bft) N-NO 22 0 min 0,0 UV-I 33 W/m -0,6 C -5,2 C 19,3 km/h (3 Bft)
14.05.2020 06:36 1,2 C 0,0 C 88 % 1018,4 hPa 0,0 l/m 12,9 km/h (3 Bft) N-NO 22 0 min 0,0 UV-I 35 W/m -0,6 C -4,2 C 17,7 km/h (3 Bft)
14.05.2020 06:37 1,3 C 0,0 C 88 % 1018,4 hPa 0,0 l/m 14,5 km/h (3 Bft) N-NO 22 0 min 0,0 UV-I 37 W/m -0,5 C -5,1 C 19,3 km/h (3 Bft)
14.05.2020 06:38 1,3 C 0,0 C 88 % 1018,5 hPa 0,0 l/m 8,0 km/h (2 Bft) N-NO 22 0 min 0,0 UV-I 39 W/m -0,5 C -0,3 C 12,9 km/h (3 Bft)
14.05.2020 06:39 1,3 C 0,0 C 88 % 1018,4 hPa 0,0 l/m 9,7 km/h (2 Bft) N-NO 22 0 min 0,0 UV-I 40 W/m -0,5 C -1,8 C 14,5 km/h (3 Bft)
14.05.2020 06:40 1,3 C 0,0 C 88 % 1018,5 hPa 0,0 l/m 9,7 km/h (2 Bft) N-NO 22 0 min 0,0 UV-I 42 W/m -0,5 C -1,8 C 16,1 km/h (3 Bft)
14.05.2020 06:41 1,3 C 0,0 C 88 % 1018,5 hPa 0,0 l/m 8,0 km/h (2 Bft) N-NO 22 0 min 0,0 UV-I 44 W/m -0,5 C -0,3 C 11,3 km/h (2 Bft)
14.05.2020 06:42 1,3 C 0,0 C 88 % 1018,5 hPa 0,0 l/m 6,4 km/h (2 Bft) N-NO 22 0 min 0,0 UV-I 46 W/m -0,5 C 1,3 C 11,3 km/h (2 Bft)
14.05.2020 06:43 1,3 C 0,0 C 88 % 1018,5 hPa 0,0 l/m 8,0 km/h (2 Bft) N-NO 22 0 min 0,0 UV-I 48 W/m -0,5 C -0,3 C 11,3 km/h (2 Bft)
14.05.2020 06:44 1,3 C 0,0 C 88 % 1018,6 hPa 0,0 l/m 11,3 km/h (2 Bft) N-NO 22 0 min 0,0 UV-I 51 W/m -0,5 C -3,0 C 16,1 km/h (3 Bft)
14.05.2020 06:45 1,4 C 0,0 C 88 % 1018,5 hPa 0,0 l/m 9,7 km/h (2 Bft) N-NO 22 0 min 0,0 UV-I 53 W/m -0,4 C -1,7 C 17,7 km/h (3 Bft)
14.05.2020 06:46 1,4 C 0,0 C 88 % 1018,6 hPa 0,0 l/m 8,0 km/h (2 Bft) N-NO 22 0 min 0,0 UV-I 54 W/m -0,4 C -0,2 C 14,5 km/h (3 Bft)
14.05.2020 06:47 1,4 C 0,6 C 88 % 1018,5 hPa 0,0 l/m 8,0 km/h (2 Bft) N 360 0 min 0,0 UV-I 56 W/m -0,4 C -0,2 C 14,5 km/h (3 Bft)
14.05.2020 06:48 1,4 C 0,6 C 88 % 1018,6 hPa 0,0 l/m 11,3 km/h (2 Bft) N 360 0 min 0,0 UV-I 58 W/m -0,4 C -2,9 C 14,5 km/h (3 Bft)
14.05.2020 06:49 1,5 C 0,6 C 88 % 1018,6 hPa 0,0 l/m 8,0 km/h (2 Bft) N-NO 22 0 min 0,0 UV-I 61 W/m -0,3 C -0,1 C 11,3 km/h (2 Bft)
14.05.2020 06:50 1,5 C 0,6 C 88 % 1018,6 hPa 0,0 l/m 6,4 km/h (2 Bft) N 360 0 min 0,0 UV-I 65 W/m -0,3 C 1,5 C 8,0 km/h (2 Bft)
14.05.2020 06:51 1,6 C 0,6 C 88 % 1018,7 hPa 0,0 l/m 9,7 km/h (2 Bft) N-NO 22 0 min 0,0 UV-I 67 W/m -0,2 C -1,4 C 17,7 km/h (3 Bft)
14.05.2020 06:52 1,6 C 0,6 C 87 % 1018,7 hPa 0,0 l/m 8,0 km/h (2 Bft) N 360 0 min 0,0 UV-I 67 W/m -0,3 C 0,0 C 14,5 km/h (3 Bft)
14.05.2020 06:53 1,6 C 0,6 C 87 % 1018,7 hPa 0,0 l/m 9,7 km/h (2 Bft) N 360 0 min 0,0 UV-I 69 W/m -0,3 C -1,4 C 14,5 km/h (3 Bft)
14.05.2020 06:54 1,6 C 0,6 C 87 % 1018,8 hPa 0,0 l/m 9,7 km/h (2 Bft) N 360 0 min 0,0 UV-I 70 W/m -0,3 C -1,4 C 12,9 km/h (3 Bft)
14.05.2020 06:55 1,7 C 0,6 C 87 % 1018,7 hPa 0,0 l/m 8,0 km/h (2 Bft) N 360 0 min 0,0 UV-I 72 W/m -0,2 C 0,1 C 14,5 km/h (3 Bft)
14.05.2020 06:56 1,7 C 0,6 C 87 % 1018,7 hPa 0,0 l/m 8,0 km/h (2 Bft) N-NO 22 0 min 0,0 UV-I 70 W/m -0,2 C 0,1 C 16,1 km/h (3 Bft)
14.05.2020 06:57 1,7 C 0,6 C 87 % 1018,7 hPa 0,0 l/m 6,4 km/h (2 Bft) N-NO 22 0 min 0,0 UV-I 72 W/m -0,2 C 1,7 C 9,7 km/h (2 Bft)
14.05.2020 06:58 1,7 C 0,6 C 87 % 1018,8 hPa 0,0 l/m 9,7 km/h (2 Bft) N-NO 22 0 min 0,0 UV-I 72 W/m -0,2 C -1,3 C 12,9 km/h (3 Bft)
14.05.2020 06:59 1,8 C 0,6 C 87 % 1018,8 hPa 0,0 l/m 9,7 km/h (2 Bft) N-NO 22 0 min 0,0 UV-I 74 W/m -0,1 C -1,2 C 12,9 km/h (3 Bft)
14.05.2020 07:00 1,8 C 0,6 C 87 % 1018,7 hPa 0,0 l/m 8,0 km/h (2 Bft) N 360 0 min 0,0 UV-I 74 W/m -0,1 C 0,2 C 11,3 km/h (2 Bft)
14.05.2020 07:01 1,8 C 1,1 C 87 % 1018,7 hPa 0,0 l/m 8,0 km/h (2 Bft) N-NO 22 0 min 0,0 UV-I 78 W/m -0,1 C 0,2 C 14,5 km/h (3 Bft)
14.05.2020 07:02 1,9 C 1,1 C 87 % 1018,8 hPa 0,0 l/m 14,5 km/h (3 Bft) N 360 0 min 0,0 UV-I 81 W/m -0,0 C -4,4 C 19,3 km/h (3 Bft)
14.05.2020 07:03 1,9 C 1,1 C 87 % 1018,7 hPa 0,0 l/m 11,3 km/h (2 Bft) N-NO 22 0 min 0,0 UV-I 81 W/m -0,0 C -2,3 C 16,1 km/h (3 Bft)
14.05.2020 07:04 1,9 C 1,1 C 87 % 1018,8 hPa 0,0 l/m 9,7 km/h (2 Bft) N-NO 22 0 min 0,0 UV-I 84 W/m -0,0 C -1,1 C 16,1 km/h (3 Bft)
14.05.2020 07:05 1,9 C 1,1 C 87 % 1018,9 hPa 0,0 l/m 9,7 km/h (2 Bft) N-NO 22 0 min 0,0 UV-I 88 W/m -0,0 C -1,1 C 14,5 km/h (3 Bft)
14.05.2020 07:06 2,0 C 1,1 C 86 % 1018,8 hPa 0,0 l/m 9,7 km/h (2 Bft) N 360 0 min 0,0 UV-I 97 W/m -0,1 C -1,0 C 16,1 km/h (3 Bft)
14.05.2020 07:07 2,0 C 1,7 C 86 % 1018,7 hPa 0,0 l/m 11,3 km/h (2 Bft) N-NO 22 0 min 0,0 UV-I 111 W/m -0,1 C -2,2 C 17,7 km/h (3 Bft)
14.05.2020 07:08 2,1 C 1,7 C 87 % 1018,8 hPa 0,0 l/m 11,3 km/h (2 Bft) N-NO 22 0 min 0,0 UV-I 116 W/m 0,2 C -2,1 C 16,1 km/h (3 Bft)
14.05.2020 07:09 2,1 C 1,7 C 86 % 1018,8 hPa 0,0 l/m 11,3 km/h (2 Bft) N-NO 22 0 min 0,0 UV-I 104 W/m 0,0 C -2,1 C 14,5 km/h (3 Bft)
14.05.2020 07:10 2,2 C 2,2 C 86 % 1018,8 hPa 0,0 l/m 8,0 km/h (2 Bft) N 360 0 min 0,0 UV-I 95 W/m 0,1 C 0,7 C 14,5 km/h (3 Bft)
14.05.2020 07:11 2,2 C 2,2 C 86 % 1018,9 hPa 0,0 l/m 11,3 km/h (2 Bft) N-NO 22 0 min 0,0 UV-I 77 W/m 0,1 C -2,0 C 16,1 km/h (3 Bft)
14.05.2020 07:12 2,2 C 2,2 C 86 % 1018,9 hPa 0,0 l/m 12,9 km/h (3 Bft) N-NO 22 0 min 0,0 UV-I 134 W/m 0,1 C -3,1 C 19,3 km/h (3 Bft)
14.05.2020 07:13 2,2 C 2,2 C 86 % 1019,0 hPa 0,0 l/m 11,3 km/h (2 Bft) N 360 0 min 0,3 UV-I 128 W/m 0,1 C -2,0 C 14,5 km/h (3 Bft)
14.05.2020 07:14 2,2 C 2,2 C 86 % 1018,9 hPa 0,0 l/m 14,5 km/h (3 Bft) N-NO 22 0 min 0,5 UV-I 135 W/m 0,1 C -4,0 C 22,5 km/h (4 Bft)
14.05.2020 07:15 2,3 C 2,2 C 86 % 1018,8 hPa 0,0 l/m 11,3 km/h (2 Bft) N 360 0 min 0,0 UV-I 88 W/m 0,2 C -1,9 C 17,7 km/h (3 Bft)
14.05.2020 07:16 2,3 C 2,2 C 86 % 1018,9 hPa 0,0 l/m 16,1 km/h (3 Bft) N-NO 22 0 min 0,0 UV-I 77 W/m 0,2 C -4,8 C 19,3 km/h (3 Bft)
14.05.2020 07:17 2,2 C 2,2 C 86 % 1019,0 hPa 0,0 l/m 14,5 km/h (3 Bft) N-NO 22 0 min 0,0 UV-I 121 W/m 0,1 C -4,0 C 20,9 km/h (4 Bft)
14.05.2020 07:18 2,2 C 2,2 C 86 % 1018,8 hPa 0,0 l/m 12,9 km/h (3 Bft) N-NO 22 0 min 0,5 UV-I 138 W/m 0,1 C -3,1 C 16,1 km/h (3 Bft)
14.05.2020 07:19 2,2 C 2,2 C 86 % 1018,9 hPa 0,0 l/m 12,9 km/h (3 Bft) N-NO 22 0 min 0,3 UV-I 107 W/m 0,1 C -3,1 C 19,3 km/h (3 Bft)
14.05.2020 07:20 2,2 C 2,2 C 86 % 1018,9 hPa 0,0 l/m 14,5 km/h (3 Bft) N-NO 22 0 min 0,5 UV-I 114 W/m 0,1 C -4,0 C 16,1 km/h (3 Bft)
14.05.2020 07:21 2,2 C 2,2 C 86 % 1018,9 hPa 0,0 l/m 14,5 km/h (3 Bft) N-NO 22 0 min 0,5 UV-I 86 W/m 0,1 C -4,0 C 19,3 km/h (3 Bft)
14.05.2020 07:22 2,2 C 2,2 C 86 % 1019,0 hPa 0,0 l/m 14,5 km/h (3 Bft) N-NO 22 0 min 0,0 UV-I 84 W/m 0,1 C -4,0 C 19,3 km/h (3 Bft)
14.05.2020 07:23 2,2 C 2,2 C 86 % 1018,9 hPa 0,0 l/m 16,1 km/h (3 Bft) N 360 0 min 0,5 UV-I 113 W/m 0,1 C -4,9 C 20,9 km/h (4 Bft)
14.05.2020 07:24 2,2 C 2,2 C 86 % 1019,0 hPa 0,0 l/m 9,7 km/h (2 Bft) N-NO 22 0 min 0,5 UV-I 108 W/m 0,1 C -0,8 C 16,1 km/h (3 Bft)
14.05.2020 07:25 2,2 C 2,2 C 86 % 1019,0 hPa 0,0 l/m 14,5 km/h (3 Bft) N-NO 22 0 min 0,3 UV-I 114 W/m 0,1 C -4,0 C 19,3 km/h (3 Bft)
14.05.2020 07:26 2,2 C 2,2 C 86 % 1019,0 hPa 0,0 l/m 14,5 km/h (3 Bft) N-NO 22 0 min 0,5 UV-I 120 W/m 0,1 C -4,0 C 19,3 km/h (3 Bft)
14.05.2020 07:27 2,2 C 2,8 C 86 % 1019,0 hPa 0,0 l/m 16,1 km/h (3 Bft) N 360 0 min 0,0 UV-I 111 W/m 0,1 C -4,9 C 22,5 km/h (4 Bft)
14.05.2020 07:28 2,2 C 2,8 C 86 % 1019,0 hPa 0,0 l/m 14,5 km/h (3 Bft) N-NO 22 0 min 0,5 UV-I 109 W/m 0,1 C -4,0 C 22,5 km/h (4 Bft)
14.05.2020 07:34 2,3 C 2,8 C 87 % 1019,2 hPa 0,0 l/m 14,3 km/h (3 Bft) N-NO 16 0 min 0,5 UV-I 131 W/m 0,4 C -3,8 C 19,3 km/h (3 Bft)
14.05.2020 07:36 2,3 C 3,3 C 87 % 1019,2 hPa 0,0 l/m 14,6 km/h (3 Bft) N-NO 24 0 min 0,5 UV-I 136 W/m 0,4 C -4,0 C 20,9 km/h (4 Bft)
14.05.2020 07:38 2,4 C 3,3 C 86 % 1019,2 hPa 0,0 l/m 15,6 km/h (3 Bft) N 5 0 min 0,5 UV-I 129 W/m 0,3 C -4,4 C 20,9 km/h (4 Bft)
14.05.2020 07:40 2,4 C 3,3 C 87 % 1019,2 hPa 0,0 l/m 10,2 km/h (2 Bft) N 349 0 min 0,5 UV-I 139 W/m 0,5 C -1,0 C 16,1 km/h (3 Bft)
14.05.2020 07:42 2,6 C 3,3 C 87 % 1019,2 hPa 0,0 l/m 14,9 km/h (3 Bft) N 350 0 min 0,6 UV-I 119 W/m 0,7 C -3,8 C 24,1 km/h (4 Bft)
14.05.2020 07:44 2,4 C 3,3 C 86 % 1019,2 hPa 0,0 l/m 14,4 km/h (3 Bft) N 9 0 min 0,6 UV-I 116 W/m 0,3 C -3,7 C 24,1 km/h (4 Bft)
14.05.2020 07:46 2,4 C 3,3 C 86 % 1019,2 hPa 0,0 l/m 14,3 km/h (3 Bft) N-NO 20 0 min 0,6 UV-I 115 W/m 0,3 C -3,7 C 24,1 km/h (4 Bft)
14.05.2020 07:48 2,4 C 3,3 C 86 % 1019,1 hPa 0,0 l/m 12,2 km/h (2 Bft) N 360 0 min 0,6 UV-I 119 W/m 0,3 C -2,4 C 19,3 km/h (3 Bft)
14.05.2020 07:50 2,5 C 3,3 C 87 % 1019,1 hPa 0,0 l/m 11,0 km/h (2 Bft) N-NO 21 0 min 0,7 UV-I 187 W/m 0,6 C -1,4 C 17,7 km/h (3 Bft)
14.05.2020 07:52 2,6 C 3,9 C 86 % 1019,1 hPa 0,0 l/m 18,1 km/h (3 Bft) N-NO 14 0 min 0,7 UV-I 141 W/m 0,5 C -5,4 C 25,7 km/h (4 Bft)
14.05.2020 07:54 2,7 C 3,9 C 86 % 1019,2 hPa 0,0 l/m 11,7 km/h (2 Bft) N 355 0 min 0,6 UV-I 144 W/m 0,6 C -1,7 C 22,5 km/h (4 Bft)
14.05.2020 07:56 2,7 C 3,9 C 86 % 1019,2 hPa 0,0 l/m 14,1 km/h (3 Bft) NO 39 0 min 0,6 UV-I 131 W/m 0,6 C -3,2 C 20,9 km/h (4 Bft)
14.05.2020 07:58 2,7 C 3,9 C 86 % 1019,2 hPa 0,0 l/m 15,1 km/h (3 Bft) N 5 0 min 0,6 UV-I 121 W/m 0,6 C -3,8 C 20,9 km/h (4 Bft)
14.05.2020 08:00 2,7 C 3,9 C 86 % 1019,3 hPa 0,0 l/m 15,8 km/h (3 Bft) N 9 0 min 0,5 UV-I 123 W/m 0,6 C -4,1 C 22,5 km/h (4 Bft)
14.05.2020 08:02 2,7 C 3,9 C 86 % 1019,3 hPa 0,0 l/m 13,5 km/h (3 Bft) N-NO 19 0 min 0,5 UV-I 129 W/m 0,6 C -2,8 C 22,5 km/h (4 Bft)
14.05.2020 08:04 2,7 C 3,9 C 86 % 1019,3 hPa 0,0 l/m 15,3 km/h (3 Bft) N-NO 17 0 min 0,6 UV-I 134 W/m 0,6 C -3,9 C 24,1 km/h (4 Bft)
14.05.2020 08:06 2,6 C 3,9 C 86 % 1019,3 hPa 0,0 l/m 18,7 km/h (3 Bft) N 11 0 min 0,6 UV-I 125 W/m 0,5 C -5,7 C 33,8 km/h (5 Bft)
14.05.2020 08:08 2,6 C 3,9 C 85 % 1019,3 hPa 0,0 l/m 19,6 km/h (3 Bft) N 5 0 min 0,6 UV-I 127 W/m 0,3 C -6,1 C 27,4 km/h (4 Bft)
14.05.2020 08:10 2,6 C 3,9 C 86 % 1019,4 hPa 0,0 l/m 19,7 km/h (3 Bft) N-NO 30 0 min 0,7 UV-I 143 W/m 0,5 C -6,1 C 25,7 km/h (4 Bft)
14.05.2020 08:12 2,6 C 3,9 C 86 % 1019,4 hPa 0,0 l/m 19,0 km/h (3 Bft) NO 34 0 min 0,7 UV-I 133 W/m 0,5 C -5,8 C 30,6 km/h (5 Bft)
14.05.2020 08:14 2,6 C 3,9 C 86 % 1019,4 hPa 0,0 l/m 16,3 km/h (3 Bft) N-NO 16 0 min 0,6 UV-I 132 W/m 0,5 C -4,5 C 29,0 km/h (5 Bft)
14.05.2020 08:16 2,6 C 3,9 C 86 % 1019,3 hPa 0,0 l/m 11,6 km/h (2 Bft) N-NO 20 0 min 0,6 UV-I 148 W/m 0,5 C -1,7 C 17,7 km/h (3 Bft)
14.05.2020 08:18 2,8 C 4,4 C 86 % 1019,4 hPa 0,0 l/m 15,8 km/h (3 Bft) N-NO 22 0 min 0,7 UV-I 159 W/m 0,7 C -4,0 C 20,9 km/h (4 Bft)
14.05.2020 08:20 2,8 C 4,4 C 86 % 1019,3 hPa 0,0 l/m 17,0 km/h (3 Bft) N 5 0 min 0,8 UV-I 154 W/m 0,7 C -4,6 C 25,7 km/h (4 Bft)
14.05.2020 08:22 2,8 C 4,4 C 86 % 1019,4 hPa 0,0 l/m 17,8 km/h (3 Bft) N-NO 23 0 min 0,9 UV-I 175 W/m 0,7 C -5,0 C 24,1 km/h (4 Bft)
14.05.2020 08:24 2,8 C 4,4 C 85 % 1019,4 hPa 0,0 l/m 18,7 km/h (3 Bft) N 360 0 min 0,9 UV-I 172 W/m 0,5 C -5,4 C 29,0 km/h (5 Bft)
14.05.2020 08:26 2,8 C 4,4 C 85 % 1019,4 hPa 0,0 l/m 16,9 km/h (3 Bft) N-NO 17 0 min 0,9 UV-I 182 W/m 0,5 C -4,6 C 22,5 km/h (4 Bft)
14.05.2020 08:28 2,8 C 5,0 C 85 % 1019,4 hPa 0,0 l/m 11,9 km/h (2 Bft) N-NO 19 0 min 1,2 UV-I 208 W/m 0,5 C -1,7 C 19,3 km/h (3 Bft)
14.05.2020 08:30 3,1 C 5,0 C 86 % 1019,4 hPa 0,0 l/m 13,2 km/h (3 Bft) N 5 0 min 1,0 UV-I 207 W/m 1,0 C -2,2 C 19,3 km/h (3 Bft)
14.05.2020 08:32 3,2 C 5,0 C 85 % 1019,4 hPa 0,0 l/m 16,5 km/h (3 Bft) N 5 0 min 1,1 UV-I 228 W/m 0,9 C -3,9 C 19,3 km/h (3 Bft)
14.05.2020 08:34 3,3 C 5,6 C 85 % 1019,4 hPa 0,0 l/m 16,7 km/h (3 Bft) N-NO 15 0 min 1,3 UV-I 170 W/m 1,0 C -3,9 C 29,0 km/h (5 Bft)
14.05.2020 08:36 3,3 C 5,6 C 84 % 1019,4 hPa 0,0 l/m 16,9 km/h (3 Bft) N-NO 20 0 min 1,2 UV-I 212 W/m 0,9 C -4,0 C 27,4 km/h (4 Bft)
14.05.2020 08:38 3,3 C 5,6 C 83 % 1019,4 hPa 0,0 l/m 18,4 km/h (3 Bft) N 360 0 min 1,3 UV-I 298 W/m 0,7 C -4,7 C 27,4 km/h (4 Bft)
14.05.2020 08:40 3,4 C 5,6 C 83 % 1019,3 hPa 0,0 l/m 18,7 km/h (3 Bft) N-NO 19 0 min 1,3 UV-I 311 W/m 0,8 C -4,7 C 29,0 km/h (5 Bft)
14.05.2020 08:42 3,4 C 5,6 C 83 % 1019,4 hPa 0,0 l/m 18,7 km/h (3 Bft) N 5 0 min 1,5 UV-I 231 W/m 0,8 C -4,7 C 29,0 km/h (5 Bft)
14.05.2020 08:44 3,4 C 5,0 C 83 % 1019,5 hPa 0,0 l/m 18,2 km/h (3 Bft) N 11 0 min 1,3 UV-I 197 W/m 0,8 C -4,5 C 30,6 km/h (5 Bft)
14.05.2020 08:46 3,2 C 4,4 C 83 % 1019,6 hPa 0,0 l/m 17,2 km/h (3 Bft) N 5 0 min 1,2 UV-I 118 W/m 0,6 C -4,2 C 24,1 km/h (4 Bft)
14.05.2020 08:48 3,3 C 5,0 C 83 % 1019,5 hPa 0,0 l/m 14,6 km/h (3 Bft) N 5 0 min 1,7 UV-I 223 W/m 0,7 C -2,8 C 19,3 km/h (3 Bft)
14.05.2020 08:50 3,4 C 5,6 C 83 % 1019,5 hPa 0,0 l/m 20,5 km/h (4 Bft) N-NO 22 0 min 1,6 UV-I 469 W/m 0,8 C -5,4 C 29,0 km/h (5 Bft)
14.05.2020 08:52 3,6 C 5,6 C 84 % 1019,6 hPa 0,0 l/m 17,9 km/h (3 Bft) N 360 0 min 1,7 UV-I 469 W/m 1,2 C -4,1 C 25,7 km/h (4 Bft)
14.05.2020 08:54 3,7 C 5,6 C 83 % 1019,6 hPa 0,0 l/m 18,2 km/h (3 Bft) N-NO 22 0 min 1,5 UV-I 393 W/m 1,1 C -4,1 C 24,1 km/h (4 Bft)
14.05.2020 08:56 3,8 C 5,6 C 83 % 1019,5 hPa 0,0 l/m 16,1 km/h (3 Bft) N 360 0 min 1,6 UV-I 210 W/m 1,2 C -2,9 C 24,1 km/h (4 Bft)
14.05.2020 08:58 4,1 C 6,1 C 83 % 1019,5 hPa 0,0 l/m 18,5 km/h (3 Bft) N 351 0 min 1,8 UV-I 456 W/m 1,5 C -3,7 C 24,1 km/h (4 Bft)
14.05.2020 09:00 4,0 C 6,1 C 81 % 1019,6 hPa 0,0 l/m 16,4 km/h (3 Bft) N 360 0 min 1,5 UV-I 290 W/m 1,0 C -2,8 C 24,1 km/h (4 Bft)
14.05.2020 09:02 3,9 C 5,6 C 81 % 1019,6 hPa 0,0 l/m 17,7 km/h (3 Bft) N 11 0 min 1,4 UV-I 169 W/m 0,9 C -3,6 C 25,7 km/h (4 Bft)
14.05.2020 09:04 3,8 C 5,6 C 82 % 1019,6 hPa 0,0 l/m 20,8 km/h (4 Bft) N-NO 13 0 min 1,8 UV-I 311 W/m 1,0 C -5,0 C 30,6 km/h (5 Bft)
14.05.2020 09:06 3,9 C 5,6 C 81 % 1019,6 hPa 0,0 l/m 18,6 km/h (3 Bft) N-NO 30 0 min 1,7 UV-I 471 W/m 0,9 C -4,0 C 25,7 km/h (4 Bft)
14.05.2020 09:08 4,1 C 6,1 C 82 % 1019,7 hPa 0,0 l/m 15,2 km/h (3 Bft) N 5 0 min 2,1 UV-I 497 W/m 1,3 C -2,1 C 24,1 km/h (4 Bft)
14.05.2020 09:10 4,4 C 6,7 C 82 % 1019,7 hPa 0,0 l/m 17,6 km/h (3 Bft) N-NO 22 0 min 2,0 UV-I 512 W/m 1,6 C -2,9 C 27,4 km/h (4 Bft)
14.05.2020 09:12 4,8 C 7,2 C 82 % 1019,7 hPa 0,0 l/m 19,0 km/h (3 Bft) N 355 0 min 2,2 UV-I 514 W/m 2,0 C -3,0 C 29,0 km/h (5 Bft)
14.05.2020 09:14 4,8 C 7,8 C 80 % 1019,8 hPa 0,0 l/m 15,8 km/h (3 Bft) N 5 0 min 2,1 UV-I 516 W/m 1,6 C -1,6 C 25,7 km/h (4 Bft)
14.05.2020 09:16 4,7 C 7,8 C 79 % 1019,8 hPa 0,0 l/m 14,8 km/h (3 Bft) NO 36 0 min 2,0 UV-I 536 W/m 1,4 C -1,2 C 20,9 km/h (4 Bft)
14.05.2020 09:18 4,6 C 7,2 C 78 % 1019,9 hPa 0,0 l/m 19,1 km/h (3 Bft) N-NO 27 0 min 1,6 UV-I 304 W/m 1,1 C -3,3 C 30,6 km/h (5 Bft)
14.05.2020 09:20 4,5 C 6,7 C 78 % 1019,9 hPa 0,0 l/m 18,0 km/h (3 Bft) N-NO 20 0 min 1,8 UV-I 179 W/m 1,0 C -3,0 C 25,7 km/h (4 Bft)
14.05.2020 09:22 4,4 C 6,7 C 79 % 1020,0 hPa 0,0 l/m 18,3 km/h (3 Bft) N-NO 30 0 min 1,9 UV-I 364 W/m 1,1 C -3,2 C 24,1 km/h (4 Bft)
14.05.2020 09:24 4,3 C 6,7 C 78 % 1020,0 hPa 0,0 l/m 21,0 km/h (4 Bft) NO 40 0 min 1,6 UV-I 244 W/m 0,8 C -4,5 C 33,8 km/h (5 Bft)
14.05.2020 09:26 4,2 C 6,1 C 79 % 1019,9 hPa 0,0 l/m 20,8 km/h (4 Bft) N-NO 24 0 min 1,9 UV-I 118 W/m 0,9 C -4,5 C 27,4 km/h (4 Bft)
14.05.2020 09:28 4,3 C 6,7 C 79 % 1020,0 hPa 0,0 l/m 18,6 km/h (3 Bft) N-NO 24 0 min 2,1 UV-I 510 W/m 1,0 C -3,5 C 25,7 km/h (4 Bft)
14.05.2020 09:30 4,3 C 6,7 C 79 % 1019,9 hPa 0,0 l/m 16,9 km/h (3 Bft) N-NO 26 0 min 1,9 UV-I 237 W/m 1,0 C -2,7 C 22,5 km/h (4 Bft)
14.05.2020 09:32 4,3 C 6,7 C 79 % 1020,0 hPa 0,0 l/m 17,8 km/h (3 Bft) NO 36 0 min 2,3 UV-I 442 W/m 1,0 C -3,1 C 24,1 km/h (4 Bft)
14.05.2020 09:34 4,6 C 7,2 C 80 % 1020,0 hPa 0,0 l/m 18,6 km/h (3 Bft) N 5 0 min 2,4 UV-I 524 W/m 1,5 C -3,1 C 24,1 km/h (4 Bft)
14.05.2020 09:36 4,6 C 7,2 C 79 % 1020,0 hPa 0,0 l/m 18,5 km/h (3 Bft) N 5 0 min 2,1 UV-I 281 W/m 1,3 C -3,1 C 25,7 km/h (4 Bft)
14.05.2020 09:38 4,9 C 7,8 C 80 % 1020,0 hPa 0,0 l/m 15,4 km/h (3 Bft) N-NO 15 0 min 2,6 UV-I 493 W/m 1,7 C -1,2 C 22,5 km/h (4 Bft)
14.05.2020 09:40 5,0 C 7,8 C 78 % 1020,1 hPa 0,0 l/m 18,2 km/h (3 Bft) N-NO 13 0 min 2,3 UV-I 335 W/m 1,5 C -2,4 C 25,7 km/h (4 Bft)
14.05.2020 09:42 5,2 C 7,8 C 79 % 1020,0 hPa 0,0 l/m 17,8 km/h (3 Bft) N 5 0 min 2,4 UV-I 430 W/m 1,9 C -2,0 C 25,7 km/h (4 Bft)
14.05.2020 09:44 5,2 C 7,8 C 78 % 1020,0 hPa 0,0 l/m 18,1 km/h (3 Bft) N 349 0 min 2,5 UV-I 485 W/m 1,7 C -2,1 C 25,7 km/h (4 Bft)
14.05.2020 09:46 5,1 C 8,3 C 76 % 1020,0 hPa 0,0 l/m 19,4 km/h (3 Bft) NO 44 0 min 2,6 UV-I 471 W/m 1,2 C -2,8 C 25,7 km/h (4 Bft)
14.05.2020 09:48 5,2 C 8,3 C 76 % 1020,0 hPa 0,0 l/m 21,2 km/h (4 Bft) N-NO 22 0 min 2,3 UV-I 519 W/m 1,3 C -3,4 C 29,0 km/h (5 Bft)
14.05.2020 09:50 5,4 C 8,3 C 77 % 1020,0 hPa 0,0 l/m 16,1 km/h (3 Bft) N-NO 29 0 min 2,8 UV-I 524 W/m 1,7 C -1,0 C 24,1 km/h (4 Bft)
14.05.2020 09:52 5,6 C 8,3 C 77 % 1019,9 hPa 0,0 l/m 17,1 km/h (3 Bft) N-NO 17 0 min 2,5 UV-I 349 W/m 1,9 C -1,2 C 24,1 km/h (4 Bft)
14.05.2020 09:54 5,4 C 7,8 C 75 % 1020,0 hPa 0,0 l/m 16,9 km/h (3 Bft) N-NW 344 0 min 2,1 UV-I 229 W/m 1,3 C -1,3 C 24,1 km/h (4 Bft)
14.05.2020 09:56 5,5 C 8,3 C 76 % 1020,0 hPa 0,0 l/m 16,4 km/h (3 Bft) NO 36 0 min 2,7 UV-I 419 W/m 1,6 C -1,0 C 25,7 km/h (4 Bft)
14.05.2020 09:58 5,8 C 8,9 C 76 % 1020,1 hPa 0,0 l/m 18,5 km/h (3 Bft) N 5 0 min 3,1 UV-I 525 W/m 1,9 C -1,5 C 30,6 km/h (5 Bft)
14.05.2020 10:00 6,1 C 8,9 C 74 % 1020,0 hPa 0,0 l/m 19,1 km/h (3 Bft) N-NO 14 0 min 3,1 UV-I 506 W/m 1,8 C -1,4 C 29,0 km/h (5 Bft)
14.05.2020 10:02 6,3 C 9,4 C 74 % 1019,9 hPa 0,0 l/m 18,5 km/h (3 Bft) N-NO 19 0 min 3,2 UV-I 521 W/m 2,0 C -0,9 C 27,4 km/h (4 Bft)
14.05.2020 10:04 6,6 C 10,0 C 75 % 1020,0 hPa 0,0 l/m 13,5 km/h (3 Bft) N-NO 22 0 min 3,2 UV-I 525 W/m 2,5 C 1,8 C 19,3 km/h (3 Bft)
14.05.2020 10:06 6,7 C 10,0 C 74 % 1020,0 hPa 0,0 l/m 11,4 km/h (2 Bft) N-NO 20 0 min 3,2 UV-I 531 W/m 2,4 C 3,1 C 22,5 km/h (4 Bft)
14.05.2020 10:08 6,9 C 10,6 C 74 % 1020,0 hPa 0,0 l/m 12,3 km/h (3 Bft) N-NO 28 0 min 3,3 UV-I 576 W/m 2,6 C 2,8 C 20,9 km/h (4 Bft)
14.05.2020 10:10 7,1 C 10,6 C 75 % 1019,8 hPa 0,0 l/m 13,4 km/h (3 Bft) N-NO 15 0 min 3,3 UV-I 555 W/m 3,0 C 2,4 C 19,3 km/h (3 Bft)
14.05.2020 10:12 7,3 C 10,6 C 73 % 1020,0 hPa 0,0 l/m 15,3 km/h (3 Bft) N-NW 342 2 min 3,4 UV-I 607 W/m 2,8 C 1,7 C 25,7 km/h (4 Bft)
14.05.2020 10:14 7,0 C 10,6 C 69 % 1020,0 hPa 0,0 l/m 22,2 km/h (4 Bft) N-NW 342 2 min 3,4 UV-I 609 W/m 1,7 C -1,4 C 33,8 km/h (5 Bft)
14.05.2020 10:16 7,0 C 11,1 C 72 % 1020,0 hPa 0,0 l/m 17,3 km/h (3 Bft) N 9 0 min 3,4 UV-I 580 W/m 2,3 C 0,5 C 29,0 km/h (5 Bft)
14.05.2020 10:18 7,1 C 11,1 C 68 % 1020,1 hPa 0,0 l/m 19,7 km/h (3 Bft) N-NO 14 0 min 3,4 UV-I 587 W/m 1,6 C -0,3 C 29,0 km/h (5 Bft)
14.05.2020 10:20 7,2 C 11,1 C 69 % 1020,0 hPa 0,0 l/m 18,0 km/h (3 Bft) NO 38 2 min 3,4 UV-I 602 W/m 1,9 C 0,4 C 32,2 km/h (5 Bft)
14.05.2020 10:22 7,1 C 11,1 C 67 % 1020,1 hPa 0,0 l/m 23,4 km/h (4 Bft) N-NO 30 2 min 3,5 UV-I 615 W/m 1,4 C -1,6 C 30,6 km/h (5 Bft)
14.05.2020 10:24 6,9 C 11,1 C 67 % 1020,0 hPa 0,0 l/m 22,7 km/h (4 Bft) NO 36 2 min 3,5 UV-I 621 W/m 1,2 C -1,7 C 30,6 km/h (5 Bft)
14.05.2020 10:26 6,9 C 11,1 C 69 % 1020,0 hPa 0,0 l/m 15,9 km/h (3 Bft) N 360 2 min 3,5 UV-I 646 W/m 1,6 C 1,0 C 24,1 km/h (4 Bft)
14.05.2020 10:28 7,2 C 11,7 C 70 % 1020,1 hPa 0,0 l/m 17,8 km/h (3 Bft) N-NO 32 2 min 3,6 UV-I 664 W/m 2,1 C 0,5 C 24,1 km/h (4 Bft)
14.05.2020 10:30 7,3 C 11,7 C 66 % 1020,1 hPa 0,0 l/m 21,5 km/h (4 Bft) N-NO 26 2 min 3,7 UV-I 662 W/m 1,4 C -0,7 C 27,4 km/h (4 Bft)
14.05.2020 10:32 7,2 C 11,7 C 67 % 1020,0 hPa 0,0 l/m 16,1 km/h (3 Bft) NO 44 2 min 3,7 UV-I 680 W/m 1,5 C 1,2 C 22,5 km/h (4 Bft)
14.05.2020 10:34 7,2 C 11,7 C 67 % 1020,0 hPa 0,0 l/m 19,0 km/h (3 Bft) N-NO 19 2 min 3,8 UV-I 685 W/m 1,5 C 0,0 C 29,0 km/h (5 Bft)
14.05.2020 10:36 7,3 C 11,7 C 70 % 1020,0 hPa 0,0 l/m 16,1 km/h (3 Bft) N-NO 14 2 min 3,8 UV-I 681 W/m 2,2 C 1,4 C 24,1 km/h (4 Bft)
14.05.2020 10:38 7,4 C 11,7 C 65 % 1020,1 hPa 0,0 l/m 14,2 km/h (3 Bft) N 9 2 min 3,8 UV-I 683 W/m 1,3 C 2,4 C 20,9 km/h (4 Bft)
14.05.2020 10:40 7,4 C 12,2 C 68 % 1020,0 hPa 0,0 l/m 16,0 km/h (3 Bft) N-NO 20 2 min 3,9 UV-I 683 W/m 1,9 C 1,5 C 25,7 km/h (4 Bft)
14.05.2020 10:42 7,5 C 11,7 C 65 % 1020,1 hPa 0,0 l/m 16,2 km/h (3 Bft) N-NO 22 2 min 3,3 UV-I 724 W/m 1,4 C 1,6 C 25,7 km/h (4 Bft)
14.05.2020 10:44 7,6 C 12,2 C 66 % 1020,1 hPa 0,0 l/m 18,1 km/h (3 Bft) N 360 2 min 4,0 UV-I 733 W/m 1,7 C 0,9 C 24,1 km/h (4 Bft)
14.05.2020 10:46 7,6 C 12,2 C 69 % 1020,2 hPa 0,0 l/m 15,3 km/h (3 Bft) N-NO 26 2 min 3,4 UV-I 746 W/m 2,3 C 2,1 C 24,1 km/h (4 Bft)
14.05.2020 10:48 7,6 C 12,2 C 67 % 1020,3 hPa 0,0 l/m 19,4 km/h (3 Bft) N-NO 24 2 min 3,4 UV-I 766 W/m 1,9 C 0,4 C 27,4 km/h (4 Bft)
14.05.2020 10:50 7,3 C 11,7 C 65 % 1020,3 hPa 0,0 l/m 19,1 km/h (3 Bft) N-NW 336 2 min 3,1 UV-I 768 W/m 1,2 C 0,1 C 27,4 km/h (4 Bft)
14.05.2020 10:52 7,0 C 11,1 C 65 % 1020,3 hPa 0,0 l/m 19,8 km/h (3 Bft) N 355 2 min 3,3 UV-I 768 W/m 0,9 C -0,5 C 27,4 km/h (4 Bft)
14.05.2020 10:54 7,1 C 11,7 C 64 % 1020,2 hPa 0,0 l/m 20,3 km/h (4 Bft) N 360 2 min 3,7 UV-I 825 W/m 0,8 C -0,6 C 30,6 km/h (5 Bft)
14.05.2020 10:56 6,8 C 11,1 C 64 % 1020,3 hPa 0,0 l/m 18,9 km/h (3 Bft) N 5 0 min 3,4 UV-I 281 W/m 0,5 C -0,4 C 29,0 km/h (5 Bft)
14.05.2020 10:58 6,9 C 11,1 C 66 % 1020,3 hPa 0,0 l/m 16,3 km/h (3 Bft) N 360 0 min 3,1 UV-I 263 W/m 1,0 C 0,8 C 22,5 km/h (4 Bft)
14.05.2020 11:00 7,4 C 12,8 C 69 % 1020,2 hPa 0,0 l/m 14,9 km/h (3 Bft) N 5 2 min 4,1 UV-I 773 W/m 2,1 C 2,0 C 24,1 km/h (4 Bft)
14.05.2020 11:02 7,7 C 12,8 C 67 % 1020,3 hPa 0,0 l/m 12,7 km/h (3 Bft) N 360 2 min 3,5 UV-I 858 W/m 2,0 C 3,5 C 17,7 km/h (3 Bft)
14.05.2020 11:04 7,9 C 13,3 C 65 % 1020,4 hPa 0,0 l/m 16,2 km/h (3 Bft) NO 40 2 min 3,3 UV-I 858 W/m 1,7 C 2,1 C 20,9 km/h (4 Bft)
14.05.2020 11:06 8,0 C 13,9 C 65 % 1020,4 hPa 0,0 l/m 16,0 km/h (3 Bft) N-NO 30 2 min 4,5 UV-I 828 W/m 1,8 C 2,3 C 25,7 km/h (4 Bft)
14.05.2020 11:08 7,7 C 12,2 C 62 % 1020,3 hPa 0,0 l/m 17,4 km/h (3 Bft) O-NO 59 0 min 3,1 UV-I 510 W/m 0,9 C 1,3 C 25,7 km/h (4 Bft)
14.05.2020 11:10 7,6 C 12,8 C 65 % 1020,3 hPa 0,0 l/m 16,3 km/h (3 Bft) N-NO 23 0 min 4,5 UV-I 479 W/m 1,5 C 1,6 C 24,1 km/h (4 Bft)
14.05.2020 11:12 7,9 C 13,9 C 65 % 1020,3 hPa 0,0 l/m 18,6 km/h (3 Bft) N-NO 24 2 min 4,7 UV-I 841 W/m 1,7 C 1,1 C 25,7 km/h (4 Bft)
14.05.2020 11:14 8,1 C 15,0 C 67 % 1020,3 hPa 0,0 l/m 13,6 km/h (3 Bft) N 360 2 min 4,6 UV-I 798 W/m 2,3 C 3,5 C 19,3 km/h (3 Bft)
14.05.2020 11:16 8,2 C 15,0 C 65 % 1020,4 hPa 0,0 l/m 16,1 km/h (3 Bft) N-NO 13 2 min 4,6 UV-I 779 W/m 2,0 C 2,5 C 22,5 km/h (4 Bft)
14.05.2020 11:18 8,2 C 15,0 C 67 % 1020,3 hPa 0,0 l/m 16,7 km/h (3 Bft) O-NO 65 2 min 4,6 UV-I 787 W/m 2,4 C 2,2 C 22,5 km/h (4 Bft)
14.05.2020 11:20 8,3 C 15,6 C 66 % 1020,3 hPa 0,0 l/m 15,1 km/h (3 Bft) N-NO 28 2 min 4,5 UV-I 772 W/m 2,3 C 3,0 C 24,1 km/h (4 Bft)
14.05.2020 11:22 8,6 C 15,6 C 66 % 1020,3 hPa 0,0 l/m 14,4 km/h (3 Bft) N 11 2 min 4,3 UV-I 780 W/m 2,6 C 3,7 C 24,1 km/h (4 Bft)
14.05.2020 11:24 8,6 C 15,6 C 63 % 1020,1 hPa 0,0 l/m 15,3 km/h (3 Bft) N-NO 30 2 min 4,7 UV-I 771 W/m 2,0 C 3,3 C 22,5 km/h (4 Bft)
14.05.2020 11:26 8,6 C 15,6 C 65 % 1020,2 hPa 0,0 l/m 17,0 km/h (3 Bft) NO 55 2 min 4,8 UV-I 779 W/m 2,4 C 2,6 C 29,0 km/h (5 Bft)
14.05.2020 11:28 8,8 C 16,7 C 65 % 1020,1 hPa 0,0 l/m 18,2 km/h (3 Bft) NO 45 2 min 4,8 UV-I 780 W/m 2,6 C 2,4 C 30,6 km/h (5 Bft)
14.05.2020 11:30 8,7 C 16,7 C 62 % 1020,1 hPa 0,0 l/m 18,3 km/h (3 Bft) N-NO 14 2 min 4,8 UV-I 780 W/m 1,8 C 2,2 C 24,1 km/h (4 Bft)
14.05.2020 11:32 8,5 C 16,1 C 63 % 1020,1 hPa 0,0 l/m 18,0 km/h (3 Bft) NO 38 2 min 4,8 UV-I 777 W/m 1,9 C 2,1 C 27,4 km/h (4 Bft)
14.05.2020 11:34 8,6 C 15,6 C 66 % 1020,2 hPa 0,0 l/m 18,4 km/h (3 Bft) N 5 2 min 4,8 UV-I 774 W/m 2,6 C 2,1 C 27,4 km/h (4 Bft)
14.05.2020 11:36 8,6 C 16,1 C 62 % 1020,2 hPa 0,0 l/m 18,9 km/h (3 Bft) N 5 2 min 4,9 UV-I 780 W/m 1,7 C 1,9 C 24,1 km/h (4 Bft)
14.05.2020 11:38 8,4 C 15,6 C 62 % 1020,1 hPa 0,0 l/m 18,5 km/h (3 Bft) N-NO 32 2 min 4,9 UV-I 786 W/m 1,6 C 1,8 C 27,4 km/h (4 Bft)
14.05.2020 11:40 8,3 C 15,0 C 62 % 1020,0 hPa 0,0 l/m 22,9 km/h (4 Bft) N 5 2 min 4,9 UV-I 809 W/m 1,5 C 0,1 C 29,0 km/h (5 Bft)
14.05.2020 11:42 8,2 C 15,0 C 64 % 1020,1 hPa 0,0 l/m 20,6 km/h (4 Bft) N-NO 17 2 min 4,2 UV-I 807 W/m 1,8 C 0,8 C 30,6 km/h (5 Bft)
14.05.2020 11:44 8,4 C 15,0 C 60 % 1020,1 hPa 0,0 l/m 18,5 km/h (3 Bft) N 10 2 min 4,8 UV-I 794 W/m 1,1 C 1,8 C 24,1 km/h (4 Bft)
14.05.2020 11:46 8,7 C 15,6 C 63 % 1020,2 hPa 0,0 l/m 13,2 km/h (3 Bft) N 355 2 min 4,8 UV-I 799 W/m 2,1 C 4,4 C 20,9 km/h (4 Bft)
14.05.2020 11:48 8,9 C 16,1 C 60 % 1020,2 hPa 0,0 l/m 17,3 km/h (3 Bft) N 355 2 min 5,0 UV-I 798 W/m 1,6 C 2,8 C 24,1 km/h (4 Bft)
14.05.2020 11:50 8,9 C 15,6 C 60 % 1020,1 hPa 0,0 l/m 16,2 km/h (3 Bft) N 5 2 min 5,1 UV-I 799 W/m 1,6 C 3,3 C 25,7 km/h (4 Bft)
14.05.2020 11:52 9,1 C 16,1 C 64 % 1020,1 hPa 0,0 l/m 17,7 km/h (3 Bft) N 5 2 min 5,1 UV-I 807 W/m 2,7 C 2,9 C 27,4 km/h (4 Bft)
14.05.2020 11:54 9,2 C 17,2 C 61 % 1020,2 hPa 0,0 l/m 23,1 km/h (4 Bft) N-NO 27 2 min 5,2 UV-I 818 W/m 2,1 C 1,3 C 32,2 km/h (5 Bft)
14.05.2020 11:56 9,0 C 16,7 C 61 % 1020,1 hPa 0,0 l/m 22,4 km/h (4 Bft) N-NO 26 2 min 5,1 UV-I 811 W/m 1,9 C 1,2 C 29,0 km/h (5 Bft)
14.05.2020 11:58 8,9 C 16,1 C 56 % 1020,1 hPa 0,0 l/m 18,0 km/h (3 Bft) N-NO 25 2 min 5,2 UV-I 818 W/m 0,6 C 2,6 C 27,4 km/h (4 Bft)
14.05.2020 12:00 9,0 C 16,7 C 57 % 1020,1 hPa 0,0 l/m 14,8 km/h (3 Bft) NO 36 2 min 5,2 UV-I 818 W/m 0,9 C 4,0 C 19,3 km/h (3 Bft)
14.05.2020 12:02 9,2 C 16,7 C 57 % 1020,2 hPa 0,0 l/m 18,6 km/h (3 Bft) O-NO 65 2 min 5,3 UV-I 823 W/m 1,1 C 2,7 C 27,4 km/h (4 Bft)
14.05.2020 12:04 9,0 C 15,0 C 55 % 1020,2 hPa 0,0 l/m 19,1 km/h (3 Bft) N-NW 336 2 min 5,3 UV-I 829 W/m 0,5 C 2,3 C 25,7 km/h (4 Bft)
14.05.2020 12:06 8,9 C 15,6 C 57 % 1020,1 hPa 0,0 l/m 14,1 km/h (3 Bft) N 355 2 min 5,3 UV-I 829 W/m 0,9 C 4,2 C 20,9 km/h (4 Bft)
14.05.2020 12:08 9,2 C 16,1 C 62 % 1020,1 hPa 0,0 l/m 16,8 km/h (3 Bft) N-NW 342 2 min 5,3 UV-I 829 W/m 2,3 C 3,4 C 27,4 km/h (4 Bft)
14.05.2020 12:10 9,1 C 16,1 C 58 % 1020,1 hPa 0,0 l/m 21,6 km/h (4 Bft) N-NO 15 2 min 5,4 UV-I 853 W/m 1,3 C 1,6 C 29,0 km/h (5 Bft)
14.05.2020 12:12 8,9 C 15,6 C 59 % 1020,1 hPa 0,0 l/m 11,7 km/h (2 Bft) N-NO 14 2 min 5,1 UV-I 866 W/m 1,3 C 5,4 C 17,7 km/h (3 Bft)
14.05.2020 12:14 9,3 C 16,1 C 65 % 1020,1 hPa 0,0 l/m 13,5 km/h (3 Bft) NO 49 2 min 5,4 UV-I 856 W/m 3,1 C 5,0 C 22,5 km/h (4 Bft)
14.05.2020 12:16 9,7 C 16,7 C 62 % 1020,1 hPa 0,0 l/m 20,8 km/h (4 Bft) N 349 2 min 5,5 UV-I 862 W/m 2,8 C 2,6 C 30,6 km/h (5 Bft)
14.05.2020 12:18 9,3 C 16,7 C 59 % 1020,1 hPa 0,0 l/m 20,4 km/h (4 Bft) N-NO 31 2 min 4,6 UV-I 807 W/m 1,7 C 2,2 C 29,0 km/h (5 Bft)
14.05.2020 12:20 8,9 C 14,4 C 62 % 1020,1 hPa 0,0 l/m 13,0 km/h (3 Bft) N 5 0 min 3,6 UV-I 198 W/m 2,0 C 4,7 C 22,5 km/h (4 Bft)
14.05.2020 12:22 8,9 C 15,0 C 61 % 1020,1 hPa 0,0 l/m 20,5 km/h (4 Bft) N-NO 12 2 min 5,5 UV-I 811 W/m 1,8 C 1,7 C 30,6 km/h (5 Bft)
14.05.2020 12:24 8,8 C 15,0 C 60 % 1020,1 hPa 0,0 l/m 17,4 km/h (3 Bft) N 10 2 min 4,8 UV-I 918 W/m 1,5 C 2,7 C 27,4 km/h (4 Bft)
14.05.2020 12:26 9,0 C 16,1 C 61 % 1020,1 hPa 0,0 l/m 17,3 km/h (3 Bft) N-NW 336 2 min 5,5 UV-I 918 W/m 1,9 C 3,0 C 24,1 km/h (4 Bft)
14.05.2020 12:28 9,3 C 16,1 C 59 % 1020,1 hPa 0,0 l/m 16,8 km/h (3 Bft) N 360 2 min 5,6 UV-I 880 W/m 1,7 C 3,5 C 24,1 km/h (4 Bft)
14.05.2020 12:30 9,5 C 16,7 C 58 % 1020,0 hPa 0,0 l/m 16,9 km/h (3 Bft) N 360 2 min 5,7 UV-I 867 W/m 1,7 C 3,8 C 24,1 km/h (4 Bft)
14.05.2020 12:32 9,7 C 17,2 C 57 % 1020,0 hPa 0,0 l/m 21,2 km/h (4 Bft) N-NW 338 2 min 5,7 UV-I 894 W/m 1,6 C 2,5 C 27,4 km/h (4 Bft)
14.05.2020 12:34 9,5 C 16,7 C 59 % 1019,9 hPa 0,0 l/m 20,3 km/h (4 Bft) N 5 2 min 5,8 UV-I 908 W/m 1,9 C 2,5 C 27,4 km/h (4 Bft)
14.05.2020 12:36 9,5 C 17,2 C 57 % 1020,0 hPa 0,0 l/m 21,1 km/h (4 Bft) N 360 2 min 5,8 UV-I 885 W/m 1,4 C 2,3 C 30,6 km/h (5 Bft)
14.05.2020 12:38 9,6 C 17,8 C 56 % 1019,8 hPa 0,0 l/m 16,8 km/h (3 Bft) N 355 2 min 5,8 UV-I 886 W/m 1,3 C 3,9 C 24,1 km/h (4 Bft)
14.05.2020 12:40 9,4 C 15,6 C 56 % 1019,9 hPa 0,0 l/m 22,1 km/h (4 Bft) N 355 2 min 4,9 UV-I 619 W/m 1,1 C 1,8 C 30,6 km/h (5 Bft)
14.05.2020 12:42 9,4 C 15,6 C 58 % 1019,9 hPa 0,0 l/m 18,2 km/h (3 Bft) N-NO 16 0 min 4,9 UV-I 318 W/m 1,6 C 3,1 C 27,4 km/h (4 Bft)
14.05.2020 12:44 9,6 C 16,7 C 58 % 1020,1 hPa 0,0 l/m 17,8 km/h (3 Bft) N 9 2 min 5,8 UV-I 749 W/m 1,8 C 3,5 C 25,7 km/h (4 Bft)
14.05.2020 12:46 9,8 C 17,8 C 61 % 1020,0 hPa 0,0 l/m 19,4 km/h (3 Bft) N-NO 28 2 min 5,8 UV-I 881 W/m 2,6 C 3,2 C 27,4 km/h (4 Bft)
14.05.2020 12:48 9,9 C 17,8 C 56 % 1019,9 hPa 0,0 l/m 19,1 km/h (3 Bft) NO 46 2 min 5,7 UV-I 893 W/m 1,5 C 3,5 C 30,6 km/h (5 Bft)
14.05.2020 12:50 9,8 C 17,2 C 53 % 1019,9 hPa 0,0 l/m 16,5 km/h (3 Bft) NO 51 2 min 6,0 UV-I 931 W/m 0,7 C 4,3 C 24,1 km/h (4 Bft)
14.05.2020 12:52 9,7 C 17,2 C 56 % 1019,8 hPa 0,0 l/m 14,6 km/h (3 Bft) N-NO 15 2 min 6,0 UV-I 924 W/m 1,4 C 4,9 C 22,5 km/h (4 Bft)
14.05.2020 12:54 10,1 C 18,9 C 60 % 1019,9 hPa 0,0 l/m 14,2 km/h (3 Bft) N-NO 22 2 min 6,0 UV-I 908 W/m 2,7 C 5,6 C 22,5 km/h (4 Bft)
14.05.2020 12:56 10,3 C 18,3 C 59 % 1019,9 hPa 0,0 l/m 17,1 km/h (3 Bft) N-NO 16 2 min 6,1 UV-I 946 W/m 2,6 C 4,7 C 22,5 km/h (4 Bft)
14.05.2020 12:58 10,2 C 17,8 C 61 % 1019,7 hPa 0,0 l/m 18,1 km/h (3 Bft) N-NO 30 2 min 5,1 UV-I 969 W/m 3,0 C 4,2 C 27,4 km/h (4 Bft)
14.05.2020 13:00 9,9 C 18,3 C 57 % 1019,7 hPa 0,0 l/m 19,8 km/h (3 Bft) NO 36 2 min 5,3 UV-I 991 W/m 1,8 C 3,2 C 32,2 km/h (5 Bft)
14.05.2020 13:02 9,8 C 17,8 C 56 % 1019,7 hPa 0,0 l/m 19,8 km/h (3 Bft) N-NW 346 2 min 5,2 UV-I 860 W/m 1,4 C 3,1 C 29,0 km/h (5 Bft)
14.05.2020 13:04 9,7 C 17,8 C 59 % 1019,6 hPa 0,0 l/m 18,7 km/h (3 Bft) N-NW 348 2 min 4,9 UV-I 983 W/m 2,1 C 3,3 C 33,8 km/h (5 Bft)
14.05.2020 13:06 9,6 C 18,3 C 58 % 1019,7 hPa 0,0 l/m 19,8 km/h (3 Bft) N-NW 340 2 min 6,1 UV-I 956 W/m 1,8 C 2,8 C 30,6 km/h (5 Bft)
14.05.2020 13:08 9,9 C 18,9 C 59 % 1019,7 hPa 0,0 l/m 16,6 km/h (3 Bft) N 360 2 min 5,4 UV-I 972 W/m 2,3 C 4,4 C 20,9 km/h (4 Bft)
14.05.2020 13:10 9,7 C 16,7 C 57 % 1019,6 hPa 0,0 l/m 18,1 km/h (3 Bft) N 11 2 min 3,5 UV-I 977 W/m 1,6 C 3,6 C 24,1 km/h (4 Bft)
14.05.2020 13:12 9,5 C 16,1 C 58 % 1019,7 hPa 0,0 l/m 18,4 km/h (3 Bft) N 360 2 min 3,9 UV-I 977 W/m 1,7 C 3,2 C 27,4 km/h (4 Bft)
14.05.2020 13:14 9,8 C 17,8 C 61 % 1019,7 hPa 0,0 l/m 18,6 km/h (3 Bft) N 5 2 min 6,1 UV-I 936 W/m 2,6 C 3,5 C 25,7 km/h (4 Bft)
14.05.2020 13:16 9,9 C 17,8 C 58 % 1019,7 hPa 0,0 l/m 20,0 km/h (4 Bft) N 5 2 min 5,6 UV-I 971 W/m 2,0 C 3,2 C 30,6 km/h (5 Bft)
14.05.2020 13:18 9,9 C 17,8 C 57 % 1019,7 hPa 0,0 l/m 19,3 km/h (3 Bft) N-NO 12 2 min 4,9 UV-I 815 W/m 1,8 C 3,4 C 29,0 km/h (5 Bft)
14.05.2020 13:20 9,5 C 15,6 C 57 % 1019,9 hPa 0,0 l/m 18,9 km/h (3 Bft) N-NO 12 0 min 3,5 UV-I 293 W/m 1,4 C 3,0 C 27,4 km/h (4 Bft)
14.05.2020 13:22 9,4 C 15,0 C 57 % 1019,9 hPa 0,0 l/m 15,9 km/h (3 Bft) N-NO 22 0 min 4,7 UV-I 406 W/m 1,3 C 4,0 C 24,1 km/h (4 Bft)
14.05.2020 13:24 9,2 C 15,0 C 57 % 1019,6 hPa 0,0 l/m 11,5 km/h (2 Bft) N 5 0 min 4,5 UV-I 408 W/m 1,1 C 5,9 C 19,3 km/h (3 Bft)
14.05.2020 13:26 9,6 C 17,2 C 62 % 1019,7 hPa 0,0 l/m 10,4 km/h (2 Bft) N-NO 19 2 min 5,8 UV-I 674 W/m 2,7 C 6,9 C 22,5 km/h (4 Bft)
14.05.2020 13:28 9,8 C 17,8 C 58 % 1019,7 hPa 0,0 l/m 17,7 km/h (3 Bft) N 355 2 min 5,1 UV-I 1065 W/m 1,9 C 3,8 C 25,7 km/h (4 Bft)
14.05.2020 13:30 9,6 C 15,6 C 57 % 1019,8 hPa 0,0 l/m 18,3 km/h (3 Bft) N 355 0 min 3,1 UV-I 510 W/m 1,5 C 3,4 C 25,7 km/h (4 Bft)
14.05.2020 13:32 9,4 C 15,0 C 59 % 1019,7 hPa 0,0 l/m 14,3 km/h (3 Bft) N-NO 26 0 min 4,0 UV-I 323 W/m 1,8 C 4,7 C 22,5 km/h (4 Bft)
14.05.2020 13:34 9,3 C 15,0 C 57 % 1019,7 hPa 0,0 l/m 14,3 km/h (3 Bft) N 5 0 min 4,1 UV-I 400 W/m 1,2 C 4,6 C 20,9 km/h (4 Bft)
14.05.2020 13:36 9,4 C 15,0 C 60 % 1019,8 hPa 0,0 l/m 19,8 km/h (3 Bft) N-NO 27 0 min 3,9 UV-I 367 W/m 2,0 C 2,6 C 30,6 km/h (5 Bft)
14.05.2020 13:38 9,2 C 13,9 C 56 % 1019,8 hPa 0,0 l/m 20,1 km/h (4 Bft) N-NO 14 0 min 3,1 UV-I 272 W/m 0,9 C 2,2 C 25,7 km/h (4 Bft)
14.05.2020 13:40 9,2 C 15,0 C 58 % 1019,8 hPa 0,0 l/m 13,6 km/h (3 Bft) NO 43 0 min 5,8 UV-I 376 W/m 1,4 C 4,8 C 20,9 km/h (4 Bft)
14.05.2020 13:42 9,7 C 17,8 C 61 % 1019,7 hPa 0,0 l/m 11,1 km/h (2 Bft) O-NO 57 2 min 6,1 UV-I 990 W/m 2,5 C 6,6 C 20,9 km/h (4 Bft)
14.05.2020 13:44 10,2 C 18,9 C 61 % 1019,7 hPa 0,0 l/m 17,7 km/h (3 Bft) N-NO 17 2 min 6,4 UV-I 1010 W/m 3,0 C 4,3 C 24,1 km/h (4 Bft)
14.05.2020 13:46 10,8 C 20,6 C 58 % 1019,6 hPa 0,0 l/m 13,2 km/h (3 Bft) N-NO 22 2 min 6,6 UV-I 1090 W/m 2,9 C 6,9 C 17,7 km/h (3 Bft)
14.05.2020 13:48 10,9 C 20,6 C 54 % 1019,6 hPa 0,0 l/m 18,7 km/h (3 Bft) N-NO 21 2 min 5,3 UV-I 1098 W/m 2,0 C 4,9 C 24,1 km/h (4 Bft)
14.05.2020 13:50 10,4 C 17,8 C 53 % 1019,6 hPa 0,0 l/m 18,5 km/h (3 Bft) N-NO 17 0 min 4,4 UV-I 486 W/m 1,2 C 4,3 C 24,1 km/h (4 Bft)
14.05.2020 13:52 10,3 C 18,3 C 57 % 1019,6 hPa 0,0 l/m 18,1 km/h (3 Bft) N-NO 31 0 min 5,2 UV-I 484 W/m 2,2 C 4,3 C 24,1 km/h (4 Bft)
14.05.2020 13:54 10,6 C 19,4 C 59 % 1019,7 hPa 0,0 l/m 12,4 km/h (3 Bft) NO 38 2 min 6,2 UV-I 1129 W/m 2,9 C 7,0 C 22,5 km/h (4 Bft)
14.05.2020 13:56 10,6 C 17,8 C 54 % 1019,6 hPa 0,0 l/m 16,9 km/h (3 Bft) N 355 2 min 3,5 UV-I 762 W/m 1,7 C 5,1 C 25,7 km/h (4 Bft)
14.05.2020 13:58 10,0 C 16,7 C 56 % 1019,6 hPa 0,0 l/m 14,4 km/h (3 Bft) N 360 0 min 3,1 UV-I 327 W/m 1,6 C 5,4 C 20,9 km/h (4 Bft)
14.05.2020 14:00 9,6 C 15,6 C 55 % 1019,5 hPa 0,0 l/m 12,8 km/h (3 Bft) N-NO 23 0 min 3,1 UV-I 317 W/m 1,0 C 5,7 C 17,7 km/h (3 Bft)
14.05.2020 14:02 9,4 C 15,0 C 56 % 1019,5 hPa 0,0 l/m 9,9 km/h (2 Bft) N 9 0 min 3,2 UV-I 309 W/m 1,1 C 7,0 C 16,1 km/h (3 Bft)
14.05.2020 14:04 9,4 C 15,0 C 56 % 1019,5 hPa 0,0 l/m 17,8 km/h (3 Bft) N-NO 28 0 min 4,6 UV-I 318 W/m 1,1 C 3,3 C 24,1 km/h (4 Bft)
14.05.2020 14:06 9,8 C 17,8 C 56 % 1019,4 hPa 0,0 l/m 20,7 km/h (4 Bft) N-NO 30 2 min 6,2 UV-I 917 W/m 1,4 C 2,8 C 25,7 km/h (4 Bft)
14.05.2020 14:08 10,0 C 17,2 C 55 % 1019,5 hPa 0,0 l/m 20,9 km/h (4 Bft) N-NO 26 2 min 4,8 UV-I 1042 W/m 1,4 C 3,0 C 30,6 km/h (5 Bft)
14.05.2020 14:10 9,8 C 15,0 C 54 % 1019,5 hPa 0,0 l/m 16,0 km/h (3 Bft) N-NO 27 0 min 2,9 UV-I 306 W/m 0,9 C 4,5 C 24,1 km/h (4 Bft)
14.05.2020 14:12 9,6 C 14,4 C 58 % 1019,4 hPa 0,0 l/m 17,2 km/h (3 Bft) N 350 0 min 2,8 UV-I 297 W/m 1,8 C 3,8 C 24,1 km/h (4 Bft)
14.05.2020 14:14 9,3 C 13,9 C 56 % 1019,5 hPa 0,0 l/m 17,8 km/h (3 Bft) NO 42 0 min 3,0 UV-I 315 W/m 1,0 C 3,2 C 25,7 km/h (4 Bft)
14.05.2020 14:16 9,8 C 16,7 C 57 % 1019,5 hPa 0,0 l/m 9,6 km/h (2 Bft) N-NO 13 0 min 4,9 UV-I 478 W/m 1,7 C 7,6 C 14,5 km/h (3 Bft)
14.05.2020 14:18 10,4 C 18,3 C 58 % 1019,5 hPa 0,0 l/m 15,9 km/h (3 Bft) N-NO 15 2 min 5,0 UV-I 1060 W/m 2,5 C 5,3 C 25,7 km/h (4 Bft)
14.05.2020 14:20 10,3 C 17,2 C 55 % 1019,5 hPa 0,0 l/m 22,4 km/h (4 Bft) N-NW 348 0 min 3,0 UV-I 398 W/m 1,7 C 2,9 C 32,2 km/h (5 Bft)
14.05.2020 14:22 9,7 C 15,6 C 54 % 1019,4 hPa 0,0 l/m 20,7 km/h (4 Bft) N 360 0 min 3,0 UV-I 361 W/m 0,9 C 2,7 C 30,6 km/h (5 Bft)
14.05.2020 14:24 9,4 C 15,0 C 56 % 1019,4 hPa 0,0 l/m 15,5 km/h (3 Bft) N 5 0 min 3,0 UV-I 364 W/m 1,1 C 4,2 C 22,5 km/h (4 Bft)
14.05.2020 14:26 9,4 C 14,4 C 56 % 1019,4 hPa 0,0 l/m 16,1 km/h (3 Bft) N 360 0 min 2,8 UV-I 319 W/m 1,1 C 3,9 C 25,7 km/h (4 Bft)
14.05.2020 14:28 9,4 C 13,9 C 57 % 1019,4 hPa 0,0 l/m 13,6 km/h (3 Bft) N-NW 336 0 min 3,0 UV-I 324 W/m 1,3 C 5,0 C 22,5 km/h (4 Bft)
14.05.2020 14:30 9,6 C 14,4 C 56 % 1019,4 hPa 0,0 l/m 16,5 km/h (3 Bft) N 360 0 min 3,9 UV-I 366 W/m 1,3 C 4,0 C 25,7 km/h (4 Bft)
14.05.2020 14:32 9,8 C 15,0 C 55 % 1019,4 hPa 0,0 l/m 14,6 km/h (3 Bft) N 5 0 min 3,7 UV-I 368 W/m 1,2 C 5,1 C 22,5 km/h (4 Bft)
14.05.2020 14:34 10,3 C 17,8 C 55 % 1019,4 hPa 0,0 l/m 20,2 km/h (4 Bft) N 349 0 min 5,8 UV-I 546 W/m 1,7 C 3,6 C 30,6 km/h (5 Bft)
14.05.2020 14:36 10,4 C 18,3 C 60 % 1019,4 hPa 0,0 l/m 15,6 km/h (3 Bft) N 5 2 min 4,6 UV-I 829 W/m 3,0 C 5,4 C 27,4 km/h (4 Bft)
14.05.2020 14:38 10,6 C 18,9 C 57 % 1019,2 hPa 0,0 l/m 13,8 km/h (3 Bft) N-NO 30 2 min 5,8 UV-I 828 W/m 2,4 C 6,4 C 27,4 km/h (4 Bft)
14.05.2020 14:40 10,6 C 16,7 C 53 % 1019,4 hPa 0,0 l/m 21,4 km/h (4 Bft) N-NO 28 2 min 3,4 UV-I 633 W/m 1,4 C 3,6 C 37,0 km/h (5 Bft)
14.05.2020 14:42 10,2 C 16,7 C 54 % 1019,3 hPa 0,0 l/m 12,8 km/h (3 Bft) N 355 0 min 3,1 UV-I 366 W/m 1,3 C 6,4 C 20,9 km/h (4 Bft)
14.05.2020 14:44 10,1 C 16,1 C 56 % 1019,3 hPa 0,0 l/m 14,8 km/h (3 Bft) N 351 0 min 3,6 UV-I 409 W/m 1,7 C 5,3 C 24,1 km/h (4 Bft)
14.05.2020 14:46 9,8 C 15,0 C 54 % 1019,2 hPa 0,0 l/m 13,8 km/h (3 Bft) NO 38 0 min 3,0 UV-I 348 W/m 0,9 C 5,4 C 22,5 km/h (4 Bft)
14.05.2020 14:48 9,6 C 13,9 C 56 % 1019,3 hPa 0,0 l/m 11,3 km/h (2 Bft) N 350 0 min 2,8 UV-I 287 W/m 1,3 C 6,4 C 17,7 km/h (3 Bft)
14.05.2020 14:50 9,4 C 13,3 C 56 % 1019,3 hPa 0,0 l/m 18,4 km/h (3 Bft) NO 36 0 min 2,9 UV-I 286 W/m 1,1 C 3,1 C 32,2 km/h (5 Bft)
14.05.2020 14:52 9,6 C 15,0 C 58 % 1019,1 hPa 0,0 l/m 17,5 km/h (3 Bft) N-NO 19 0 min 4,7 UV-I 517 W/m 1,8 C 3,6 C 22,5 km/h (4 Bft)
14.05.2020 14:54 10,5 C 18,9 C 60 % 1019,2 hPa 0,0 l/m 19,4 km/h (3 Bft) N-NO 24 2 min 5,6 UV-I 1076 W/m 3,1 C 4,1 C 30,6 km/h (5 Bft)
14.05.2020 14:56 10,4 C 18,3 C 52 % 1019,3 hPa 0,0 l/m 23,9 km/h (4 Bft) N-NO 19 2 min 3,1 UV-I 651 W/m 1,0 C 2,7 C 33,8 km/h (5 Bft)
14.05.2020 14:58 9,9 C 15,0 C 56 % 1019,3 hPa 0,0 l/m 18,3 km/h (3 Bft) N 355 0 min 2,8 UV-I 316 W/m 1,5 C 3,7 C 25,7 km/h (4 Bft)
14.05.2020 15:00 9,6 C 13,9 C 52 % 1019,4 hPa 0,0 l/m 20,8 km/h (4 Bft) N 360 0 min 2,9 UV-I 311 W/m 0,2 C 2,5 C 29,0 km/h (5 Bft)
14.05.2020 15:02 9,4 C 13,9 C 54 % 1019,2 hPa 0,0 l/m 19,6 km/h (3 Bft) N 5 0 min 4,3 UV-I 315 W/m 0,6 C 2,6 C 25,7 km/h (4 Bft)
14.05.2020 15:04 9,8 C 16,7 C 57 % 1019,3 hPa 0,0 l/m 16,3 km/h (3 Bft) N-NW 327 0 min 5,0 UV-I 315 W/m 1,7 C 4,4 C 22,5 km/h (4 Bft)
14.05.2020 15:06 10,2 C 17,8 C 53 % 1019,2 hPa 0,0 l/m 16,4 km/h (3 Bft) N-NO 23 2 min 5,3 UV-I 612 W/m 1,1 C 4,8 C 22,5 km/h (4 Bft)
14.05.2020 15:08 10,6 C 18,9 C 56 % 1019,3 hPa 0,0 l/m 13,8 km/h (3 Bft) N-NO 17 2 min 5,1 UV-I 979 W/m 2,2 C 6,4 C 20,9 km/h (4 Bft)
14.05.2020 15:10 11,1 C 20,0 C 55 % 1019,2 hPa 0,0 l/m 17,5 km/h (3 Bft) N-NO 33 2 min 5,6 UV-I 1009 W/m 2,4 C 5,5 C 24,1 km/h (4 Bft)
14.05.2020 15:12 10,8 C 18,3 C 54 % 1019,2 hPa 0,0 l/m 13,3 km/h (3 Bft) N 5 2 min 3,6 UV-I 677 W/m 1,9 C 6,8 C 19,3 km/h (3 Bft)
14.05.2020 15:14 10,5 C 17,8 C 52 % 1019,1 hPa 0,0 l/m 17,5 km/h (3 Bft) NO 52 0 min 4,5 UV-I 262 W/m 1,1 C 4,8 C 29,0 km/h (5 Bft)
14.05.2020 15:16 10,7 C 18,9 C 54 % 1019,2 hPa 0,0 l/m 18,2 km/h (3 Bft) N-NO 17 2 min 5,5 UV-I 759 W/m 1,8 C 4,8 C 25,7 km/h (4 Bft)
14.05.2020 15:18 10,9 C 21,1 C 53 % 1019,2 hPa 0,0 l/m 15,5 km/h (3 Bft) N 355 2 min 5,5 UV-I 942 W/m 1,7 C 6,0 C 20,9 km/h (4 Bft)
14.05.2020 15:20 11,0 C 21,7 C 53 % 1019,1 hPa 0,0 l/m 13,5 km/h (3 Bft) N-NO 15 2 min 5,4 UV-I 931 W/m 1,8 C 7,0 C 17,7 km/h (3 Bft)
14.05.2020 15:22 11,6 C 22,2 C 58 % 1019,0 hPa 0,0 l/m 14,2 km/h (3 Bft) N-NW 346 2 min 5,5 UV-I 939 W/m 3,6 C 7,4 C 22,5 km/h (4 Bft)
14.05.2020 15:24 11,6 C 21,7 C 55 % 1019,1 hPa 0,0 l/m 20,7 km/h (4 Bft) NW 313 2 min 4,8 UV-I 953 W/m 2,9 C 5,1 C 29,0 km/h (5 Bft)
14.05.2020 15:26 11,3 C 21,7 C 52 % 1019,1 hPa 0,0 l/m 22,2 km/h (4 Bft) N 351 2 min 5,5 UV-I 1014 W/m 1,8 C 4,3 C 35,4 km/h (5 Bft)
14.05.2020 15:28 11,4 C 20,6 C 55 % 1019,1 hPa 0,0 l/m 14,4 km/h (3 Bft) N-NO 13 2 min 4,6 UV-I 972 W/m 2,7 C 7,1 C 22,5 km/h (4 Bft)
14.05.2020 15:30 11,3 C 20,6 C 54 % 1019,1 hPa 0,0 l/m 19,8 km/h (3 Bft) N-NO 28 2 min 4,2 UV-I 972 W/m 2,3 C 5,0 C 30,6 km/h (5 Bft)
14.05.2020 15:32 10,7 C 18,3 C 52 % 1019,2 hPa 0,0 l/m 21,7 km/h (4 Bft) N-NO 22 0 min 2,6 UV-I 563 W/m 1,3 C 3,7 C 25,7 km/h (4 Bft)
14.05.2020 15:34 10,1 C 15,6 C 53 % 1019,1 hPa 0,0 l/m 23,4 km/h (4 Bft) N 360 0 min 2,4 UV-I 293 W/m 1,0 C 2,4 C 32,2 km/h (5 Bft)
14.05.2020 15:36 9,7 C 14,4 C 52 % 1019,2 hPa 0,0 l/m 20,0 km/h (4 Bft) N 360 0 min 2,5 UV-I 292 W/m 0,3 C 2,9 C 25,7 km/h (4 Bft)
14.05.2020 15:38 9,5 C 13,9 C 54 % 1019,1 hPa 0,0 l/m 17,2 km/h (3 Bft) N 10 0 min 2,9 UV-I 317 W/m 0,7 C 3,6 C 24,1 km/h (4 Bft)
14.05.2020 15:40 9,9 C 15,6 C 54 % 1019,1 hPa 0,0 l/m 15,6 km/h (3 Bft) N 5 0 min 4,0 UV-I 355 W/m 1,0 C 4,8 C 22,5 km/h (4 Bft)
14.05.2020 15:42 9,9 C 15,6 C 55 % 1019,1 hPa 0,0 l/m 11,4 km/h (2 Bft) N-NW 345 0 min 3,0 UV-I 337 W/m 1,3 C 6,7 C 27,4 km/h (4 Bft)
14.05.2020 15:44 10,4 C 16,7 C 56 % 1019,1 hPa 0,0 l/m 17,2 km/h (3 Bft) N 11 2 min 4,9 UV-I 796 W/m 2,0 C 4,8 C 27,4 km/h (4 Bft)
14.05.2020 15:46 10,7 C 17,8 C 52 % 1019,1 hPa 0,0 l/m 21,8 km/h (4 Bft) N-NO 26 2 min 3,0 UV-I 772 W/m 1,3 C 3,6 C 35,4 km/h (5 Bft)
14.05.2020 15:48 10,2 C 16,1 C 52 % 1019,1 hPa 0,0 l/m 25,0 km/h (4 Bft) N-NW 348 0 min 2,4 UV-I 342 W/m 0,8 C 2,1 C 35,4 km/h (5 Bft)
14.05.2020 15:50 9,7 C 14,4 C 53 % 1019,2 hPa 0,0 l/m 23,1 km/h (4 Bft) N 355 0 min 2,2 UV-I 281 W/m 0,6 C 1,9 C 27,4 km/h (4 Bft)
14.05.2020 15:52 9,4 C 13,3 C 52 % 1019,2 hPa 0,0 l/m 25,1 km/h (4 Bft) N 5 0 min 2,2 UV-I 276 W/m 0,1 C 1,0 C 29,0 km/h (5 Bft)
14.05.2020 15:54 9,4 C 13,9 C 56 % 1019,1 hPa 0,0 l/m 15,5 km/h (3 Bft) N-NW 346 0 min 3,4 UV-I 281 W/m 1,1 C 4,2 C 20,9 km/h (4 Bft)
14.05.2020 15:56 9,8 C 15,0 C 57 % 1019,2 hPa 0,0 l/m 9,9 km/h (2 Bft) N-NO 30 0 min 2,8 UV-I 281 W/m 1,7 C 7,4 C 17,7 km/h (3 Bft)
14.05.2020 15:58 10,1 C 16,1 C 55 % 1019,2 hPa 0,0 l/m 13,4 km/h (3 Bft) N 355 0 min 4,1 UV-I 281 W/m 1,5 C 6,0 C 22,5 km/h (4 Bft)
14.05.2020 16:00 10,7 C 18,9 C 57 % 1019,1 hPa 0,0 l/m 15,0 km/h (3 Bft) N 9 2 min 4,9 UV-I 911 W/m 2,5 C 6,0 C 22,5 km/h (4 Bft)
14.05.2020 16:02 11,3 C 20,6 C 54 % 1019,1 hPa 0,0 l/m 17,0 km/h (3 Bft) NO 39 2 min 4,8 UV-I 992 W/m 2,3 C 6,0 C 22,5 km/h (4 Bft)
14.05.2020 16:04 11,4 C 19,4 C 52 % 1018,9 hPa 0,0 l/m 8,0 km/h (2 Bft) N-NO 32 2 min 3,6 UV-I 779 W/m 1,9 C 10,3 C 12,9 km/h (3 Bft)
14.05.2020 16:06 11,1 C 18,9 C 52 % 1019,1 hPa 0,0 l/m 14,9 km/h (3 Bft) N-NO 31 0 min 3,0 UV-I 472 W/m 1,6 C 6,5 C 22,5 km/h (4 Bft)
14.05.2020 16:08 10,8 C 17,2 C 51 % 1019,0 hPa 0,0 l/m 17,1 km/h (3 Bft) NO 39 0 min 2,2 UV-I 370 W/m 1,1 C 5,3 C 24,1 km/h (4 Bft)
14.05.2020 16:10 10,4 C 15,0 C 50 % 1019,1 hPa 0,0 l/m 16,8 km/h (3 Bft) N-NO 14 0 min 1,9 UV-I 267 W/m 0,4 C 4,9 C 29,0 km/h (5 Bft)
14.05.2020 16:12 10,1 C 13,3 C 52 % 1019,1 hPa 0,0 l/m 17,1 km/h (3 Bft) N 350 0 min 1,9 UV-I 202 W/m 0,7 C 4,4 C 24,1 km/h (4 Bft)
14.05.2020 16:14 9,7 C 13,3 C 52 % 1019,1 hPa 0,0 l/m 14,1 km/h (3 Bft) N-NW 348 0 min 1,9 UV-I 184 W/m 0,3 C 5,2 C 24,1 km/h (4 Bft)
14.05.2020 16:16 9,5 C 12,8 C 54 % 1019,1 hPa 0,0 l/m 14,9 km/h (3 Bft) N 355 0 min 2,4 UV-I 225 W/m 0,7 C 4,6 C 25,7 km/h (4 Bft)
14.05.2020 16:18 10,2 C 16,1 C 57 % 1019,1 hPa 0,0 l/m 10,9 km/h (2 Bft) N 5 0 min 4,1 UV-I 581 W/m 2,1 C 7,3 C 19,3 km/h (3 Bft)
14.05.2020 16:20 10,8 C 18,3 C 54 % 1019,1 hPa 0,0 l/m 12,5 km/h (3 Bft) O-NO 58 2 min 4,4 UV-I 824 W/m 1,9 C 7,2 C 20,9 km/h (4 Bft)
14.05.2020 16:22 11,3 C 20,0 C 55 % 1019,0 hPa 0,0 l/m 12,7 km/h (3 Bft) N-NW 347 2 min 4,5 UV-I 853 W/m 2,6 C 7,7 C 24,1 km/h (4 Bft)
14.05.2020 16:24 11,5 C 18,9 C 52 % 1019,1 hPa 0,0 l/m 21,2 km/h (4 Bft) N-NW 345 2 min 3,8 UV-I 706 W/m 2,0 C 4,9 C 29,0 km/h (5 Bft)
14.05.2020 16:26 10,9 C 17,8 C 50 % 1019,0 hPa 0,0 l/m 18,2 km/h (3 Bft) N 11 0 min 2,6 UV-I 329 W/m 0,9 C 5,0 C 22,5 km/h (4 Bft)
14.05.2020 16:28 10,4 C 15,6 C 52 % 1019,1 hPa 0,0 l/m 16,6 km/h (3 Bft) N-NW 338 0 min 2,3 UV-I 194 W/m 1,0 C 5,0 C 27,4 km/h (4 Bft)
14.05.2020 16:30 10,4 C 15,6 C 55 % 1019,0 hPa 0,0 l/m 13,5 km/h (3 Bft) N 5 0 min 3,6 UV-I 307 W/m 1,8 C 6,3 C 20,9 km/h (4 Bft)
14.05.2020 16:32 11,1 C 18,3 C 56 % 1019,1 hPa 0,0 l/m 11,2 km/h (2 Bft) NO 40 2 min 4,1 UV-I 786 W/m 2,7 C 8,2 C 19,3 km/h (3 Bft)
14.05.2020 16:34 11,3 C 19,4 C 52 % 1019,0 hPa 0,0 l/m 13,6 km/h (3 Bft) NO 38 2 min 4,1 UV-I 805 W/m 1,8 C 7,3 C 22,5 km/h (4 Bft)
14.05.2020 16:36 11,5 C 19,4 C 49 % 1019,0 hPa 0,0 l/m 20,0 km/h (4 Bft) NO 37 2 min 4,0 UV-I 788 W/m 1,2 C 5,2 C 29,0 km/h (5 Bft)
14.05.2020 16:38 11,3 C 19,4 C 50 % 1019,1 hPa 0,0 l/m 17,2 km/h (3 Bft) NO 50 2 min 3,6 UV-I 740 W/m 1,3 C 5,9 C 29,0 km/h (5 Bft)
14.05.2020 16:40 11,2 C 18,9 C 49 % 1019,1 hPa 0,0 l/m 18,6 km/h (3 Bft) N-NO 31 2 min 4,0 UV-I 755 W/m 0,9 C 5,3 C 24,1 km/h (4 Bft)
14.05.2020 16:42 10,9 C 19,4 C 49 % 1019,0 hPa 0,0 l/m 14,3 km/h (3 Bft) O 79 2 min 4,0 UV-I 789 W/m 0,6 C 6,5 C 17,7 km/h (3 Bft)
14.05.2020 16:44 10,9 C 17,8 C 48 % 1018,9 hPa 0,0 l/m 17,1 km/h (3 Bft) O-NO 76 2 min 3,7 UV-I 841 W/m 0,3 C 5,4 C 24,1 km/h (4 Bft)
14.05.2020 16:46 10,9 C 16,1 C 50 % 1018,9 hPa 0,0 l/m 14,3 km/h (3 Bft) NO 35 0 min 2,8 UV-I 452 W/m 0,9 C 6,5 C 24,1 km/h (4 Bft)
14.05.2020 16:48 11,1 C 16,1 C 54 % 1019,0 hPa 0,0 l/m 15,2 km/h (3 Bft) N-NO 32 0 min 2,6 UV-I 474 W/m 2,2 C 6,4 C 22,5 km/h (4 Bft)
14.05.2020 16:50 10,9 C 16,1 C 50 % 1019,0 hPa 0,0 l/m 19,9 km/h (4 Bft) N-NO 17 0 min 2,0 UV-I 297 W/m 0,9 C 4,5 C 32,2 km/h (5 Bft)
14.05.2020 16:52 10,6 C 15,0 C 50 % 1019,0 hPa 0,0 l/m 15,1 km/h (3 Bft) N 5 0 min 1,9 UV-I 259 W/m 0,6 C 5,8 C 24,1 km/h (4 Bft)
14.05.2020 16:54 10,3 C 13,9 C 52 % 1019,0 hPa 0,0 l/m 14,7 km/h (3 Bft) N 350 0 min 1,9 UV-I 237 W/m 0,9 C 5,6 C 20,9 km/h (4 Bft)
14.05.2020 16:56 10,1 C 13,3 C 51 % 1019,0 hPa 0,0 l/m 19,2 km/h (3 Bft) N-NO 22 0 min 1,9 UV-I 219 W/m 0,4 C 3,7 C 30,6 km/h (5 Bft)
14.05.2020 16:58 9,9 C 12,8 C 52 % 1019,1 hPa 0,0 l/m 21,4 km/h (4 Bft) N-NO 26 0 min 2,2 UV-I 214 W/m 0,5 C 2,7 C 32,2 km/h (5 Bft)
14.05.2020 17:00 9,8 C 13,3 C 52 % 1019,0 hPa 0,0 l/m 15,5 km/h (3 Bft) N-NO 21 0 min 2,3 UV-I 182 W/m 0,4 C 4,7 C 24,1 km/h (4 Bft)
14.05.2020 17:02 10,1 C 15,6 C 55 % 1019,0 hPa 0,0 l/m 10,0 km/h (2 Bft) N-NO 30 0 min 3,4 UV-I 581 W/m 1,5 C 7,7 C 17,7 km/h (3 Bft)
14.05.2020 17:04 10,6 C 17,8 C 52 % 1019,0 hPa 0,0 l/m 11,3 km/h (2 Bft) NO 39 2 min 3,5 UV-I 702 W/m 1,2 C 7,6 C 16,1 km/h (3 Bft)
14.05.2020 17:06 10,6 C 18,3 C 49 % 1019,0 hPa 0,0 l/m 10,9 km/h (2 Bft) NO 52 2 min 3,4 UV-I 705 W/m 0,3 C 7,8 C 16,1 km/h (3 Bft)
14.05.2020 17:08 10,8 C 18,3 C 50 % 1019,0 hPa 0,0 l/m 8,4 km/h (2 Bft) N-NO 24 2 min 3,0 UV-I 636 W/m 0,8 C 9,4 C 19,3 km/h (3 Bft)
14.05.2020 17:10 10,8 C 16,1 C 49 % 1019,0 hPa 0,0 l/m 20,9 km/h (4 Bft) N 355 0 min 2,2 UV-I 443 W/m 0,5 C 4,0 C 29,0 km/h (5 Bft)
14.05.2020 17:12 10,6 C 15,0 C 48 % 1019,0 hPa 0,0 l/m 19,6 km/h (3 Bft) N-NO 22 0 min 2,6 UV-I 197 W/m 0,1 C 4,2 C 25,7 km/h (4 Bft)
14.05.2020 17:14 10,4 C 15,6 C 50 % 1019,0 hPa 0,0 l/m 12,3 km/h (3 Bft) N-NO 28 0 min 2,4 UV-I 183 W/m 0,4 C 6,8 C 19,3 km/h (3 Bft)
14.05.2020 17:16 10,5 C 16,1 C 48 % 1018,9 hPa 0,0 l/m 9,9 km/h (2 Bft) N-NO 29 0 min 3,0 UV-I 392 W/m -0,0 C 8,2 C 17,7 km/h (3 Bft)
14.05.2020 17:18 10,9 C 18,3 C 53 % 1019,0 hPa 0,0 l/m 15,3 km/h (3 Bft) N-NO 23 2 min 3,1 UV-I 653 W/m 1,7 C 6,1 C 25,7 km/h (4 Bft)
14.05.2020 17:20 11,2 C 18,9 C 51 % 1018,9 hPa 0,0 l/m 10,6 km/h (2 Bft) N-NO 24 2 min 3,0 UV-I 657 W/m 1,4 C 8,6 C 17,7 km/h (3 Bft)
14.05.2020 17:22 11,2 C 18,3 C 48 % 1018,8 hPa 0,0 l/m 11,8 km/h (2 Bft) N-NO 24 2 min 2,5 UV-I 661 W/m 0,6 C 8,0 C 17,7 km/h (3 Bft)
14.05.2020 17:24 10,9 C 17,8 C 48 % 1018,9 hPa 0,0 l/m 15,1 km/h (3 Bft) N-NO 12 2 min 2,5 UV-I 670 W/m 0,3 C 6,2 C 19,3 km/h (3 Bft)
14.05.2020 17:26 11,2 C 18,9 C 52 % 1018,8 hPa 0,0 l/m 14,4 km/h (3 Bft) N-NW 346 2 min 2,9 UV-I 692 W/m 1,7 C 6,8 C 22,5 km/h (4 Bft)
14.05.2020 17:28 11,6 C 19,4 C 52 % 1018,9 hPa 0,0 l/m 14,7 km/h (3 Bft) N-NO 19 2 min 3,0 UV-I 696 W/m 2,1 C 7,2 C 19,3 km/h (3 Bft)
14.05.2020 17:30 11,7 C 20,6 C 50 % 1018,9 hPa 0,0 l/m 10,5 km/h (2 Bft) N 360 2 min 3,0 UV-I 716 W/m 1,6 C 9,2 C 16,1 km/h (3 Bft)
14.05.2020 17:32 11,8 C 21,1 C 48 % 1019,0 hPa 0,0 l/m 11,5 km/h (2 Bft) N 360 2 min 3,0 UV-I 730 W/m 1,2 C 8,8 C 19,3 km/h (3 Bft)
14.05.2020 17:34 11,9 C 21,7 C 50 % 1018,9 hPa 0,0 l/m 8,4 km/h (2 Bft) N-NW 330 2 min 2,9 UV-I 705 W/m 1,8 C 10,6 C 14,5 km/h (3 Bft)
14.05.2020 17:36 11,8 C 20,6 C 48 % 1019,0 hPa 0,0 l/m 16,2 km/h (3 Bft) N-NW 337 2 min 2,5 UV-I 673 W/m 1,2 C 6,9 C 24,1 km/h (4 Bft)
14.05.2020 17:38 11,6 C 18,9 C 49 % 1018,8 hPa 0,0 l/m 17,3 km/h (3 Bft) NO 38 2 min 2,1 UV-I 677 W/m 1,3 C 6,2 C 25,7 km/h (4 Bft)
14.05.2020 17:40 11,2 C 17,2 C 47 % 1018,9 hPa 0,0 l/m 14,2 km/h (3 Bft) NO 37 0 min 1,6 UV-I 223 W/m 0,3 C 6,9 C 19,3 km/h (3 Bft)
14.05.2020 17:42 10,7 C 15,6 C 48 % 1018,8 hPa 0,0 l/m 14,3 km/h (3 Bft) O 81 0 min 1,6 UV-I 166 W/m 0,1 C 6,3 C 24,1 km/h (4 Bft)
14.05.2020 17:44 10,6 C 15,6 C 47 % 1018,8 hPa 0,0 l/m 11,5 km/h (2 Bft) O-NO 59 0 min 2,0 UV-I 303 W/m -0,2 C 7,5 C 17,7 km/h (3 Bft)
14.05.2020 17:46 10,7 C 16,1 C 49 % 1018,8 hPa 0,0 l/m 10,3 km/h (2 Bft) O-NO 67 0 min 2,4 UV-I 576 W/m 0,4 C 8,2 C 17,7 km/h (3 Bft)
14.05.2020 17:48 10,8 C 15,0 C 47 % 1018,8 hPa 0,0 l/m 8,5 km/h (2 Bft) NO 45 0 min 1,8 UV-I 428 W/m -0,1 C 9,4 C 14,5 km/h (3 Bft)
14.05.2020 17:50 10,7 C 14,4 C 49 % 1018,9 hPa 0,0 l/m 6,6 km/h (2 Bft) N-NO 30 0 min 1,9 UV-I 198 W/m 0,4 C 10,6 C 9,7 km/h (2 Bft)
14.05.2020 17:52 10,6 C 14,4 C 48 % 1018,8 hPa 0,0 l/m 12,6 km/h (3 Bft) N-NO 33 0 min 1,6 UV-I 224 W/m 0,1 C 6,9 C 20,9 km/h (4 Bft)
14.05.2020 17:54 10,5 C 13,3 C 51 % 1018,8 hPa 0,0 l/m 12,8 km/h (3 Bft) N 350 0 min 1,4 UV-I 172 W/m 0,8 C 6,7 C 24,1 km/h (4 Bft)
14.05.2020 17:56 10,3 C 13,3 C 51 % 1018,9 hPa 0,0 l/m 16,5 km/h (3 Bft) NO 44 0 min 1,3 UV-I 151 W/m 0,6 C 4,9 C 22,5 km/h (4 Bft)
14.05.2020 17:58 10,1 C 12,8 C 51 % 1018,9 hPa 0,0 l/m 14,7 km/h (3 Bft) N-NO 22 0 min 1,3 UV-I 128 W/m 0,4 C 5,4 C 19,3 km/h (3 Bft)
14.05.2020 18:00 9,9 C 11,7 C 52 % 1018,9 hPa 0,0 l/m 15,3 km/h (3 Bft) N-NO 19 0 min 1,3 UV-I 106 W/m 0,5 C 4,9 C 20,9 km/h (4 Bft)
14.05.2020 18:02 9,7 C 12,8 C 53 % 1018,8 hPa 0,0 l/m 14,3 km/h (3 Bft) N-NO 18 0 min 1,3 UV-I 102 W/m 0,6 C 5,1 C 19,3 km/h (3 Bft)
14.05.2020 18:04 9,7 C 12,2 C 51 % 1018,8 hPa 0,0 l/m 11,8 km/h (2 Bft) N-NO 19 0 min 1,3 UV-I 90 W/m 0,1 C 6,3 C 19,3 km/h (3 Bft)
14.05.2020 18:06 9,4 C 11,7 C 51 % 1018,8 hPa 0,0 l/m 10,1 km/h (2 Bft) N-NW 344 0 min 1,5 UV-I 85 W/m -0,2 C 6,9 C 17,7 km/h (3 Bft)
14.05.2020 18:08 9,7 C 13,9 C 54 % 1018,9 hPa 0,0 l/m 8,8 km/h (2 Bft) N 360 0 min 2,0 UV-I 270 W/m 0,9 C 8,0 C 14,5 km/h (3 Bft)
14.05.2020 18:10 10,2 C 16,1 C 52 % 1018,8 hPa 0,0 l/m 6,9 km/h (2 Bft) N 355 0 min 2,0 UV-I 470 W/m 0,8 C 9,8 C 12,9 km/h (3 Bft)
14.05.2020 18:12 10,8 C 16,7 C 51 % 1018,8 hPa 0,0 l/m 6,8 km/h (2 Bft) N 5 0 min 1,9 UV-I 460 W/m 1,1 C 10,5 C 14,5 km/h (3 Bft)
14.05.2020 18:14 10,9 C 17,2 C 48 % 1018,7 hPa 0,0 l/m 15,4 km/h (3 Bft) N-NW 348 0 min 1,9 UV-I 459 W/m 0,3 C 6,1 C 22,5 km/h (4 Bft)
14.05.2020 18:16 10,9 C 17,8 C 50 % 1018,6 hPa 0,0 l/m 12,2 km/h (2 Bft) N-NO 28 0 min 1,9 UV-I 481 W/m 0,9 C 7,5 C 20,9 km/h (4 Bft)
14.05.2020 18:18 11,1 C 18,3 C 49 % 1018,6 hPa 0,0 l/m 13,6 km/h (3 Bft) N 360 0 min 1,9 UV-I 506 W/m 0,8 C 7,1 C 19,3 km/h (3 Bft)
14.05.2020 18:20 11,2 C 18,3 C 49 % 1018,6 hPa 0,0 l/m 11,4 km/h (2 Bft) NO 34 0 min 1,9 UV-I 535 W/m 0,9 C 8,2 C 17,7 km/h (3 Bft)
14.05.2020 18:22 11,3 C 17,8 C 48 % 1018,7 hPa 0,0 l/m 11,4 km/h (2 Bft) NO 38 0 min 1,7 UV-I 506 W/m 0,7 C 8,3 C 17,7 km/h (3 Bft)
14.05.2020 18:24 11,2 C 16,1 C 49 % 1018,6 hPa 0,0 l/m 10,5 km/h (2 Bft) N 5 0 min 1,4 UV-I 322 W/m 0,9 C 8,7 C 16,1 km/h (3 Bft)
14.05.2020 18:26 10,9 C 15,0 C 51 % 1018,5 hPa 0,0 l/m 16,3 km/h (3 Bft) N 11 0 min 1,1 UV-I 322 W/m 1,2 C 5,7 C 20,9 km/h (4 Bft)
14.05.2020 18:28 10,6 C 13,9 C 50 % 1018,6 hPa 0,0 l/m 14,9 km/h (3 Bft) NO 37 0 min 1,0 UV-I 201 W/m 0,6 C 5,9 C 20,9 km/h (4 Bft)
14.05.2020 18:30 10,4 C 13,3 C 50 % 1018,7 hPa 0,0 l/m 18,6 km/h (3 Bft) NO 39 0 min 1,2 UV-I 128 W/m 0,4 C 4,3 C 25,7 km/h (4 Bft)
14.05.2020 18:32 10,1 C 12,8 C 50 % 1018,6 hPa 0,0 l/m 17,2 km/h (3 Bft) NO 34 0 min 0,9 UV-I 92 W/m 0,2 C 4,4 C 22,5 km/h (4 Bft)
14.05.2020 18:34 9,8 C 11,7 C 51 % 1018,7 hPa 0,0 l/m 14,9 km/h (3 Bft) N 350 0 min 0,9 UV-I 80 W/m 0,2 C 4,9 C 20,9 km/h (4 Bft)
14.05.2020 18:36 9,5 C 10,6 C 51 % 1018,6 hPa 0,0 l/m 12,2 km/h (2 Bft) N 355 0 min 0,9 UV-I 64 W/m -0,1 C 5,8 C 24,1 km/h (4 Bft)
14.05.2020 18:38 9,3 C 10,0 C 52 % 1018,6 hPa 0,0 l/m 11,3 km/h (2 Bft) N 355 0 min 0,9 UV-I 61 W/m -0,0 C 6,1 C 17,7 km/h (3 Bft)
14.05.2020 18:40 9,1 C 9,4 C 52 % 1018,7 hPa 0,0 l/m 12,2 km/h (2 Bft) N 10 0 min 1,1 UV-I 66 W/m -0,2 C 5,4 C 17,7 km/h (3 Bft)
14.05.2020 18:42 9,2 C 10,0 C 53 % 1018,6 hPa 0,0 l/m 8,0 km/h (2 Bft) N-NO 25 0 min 1,4 UV-I 185 W/m 0,1 C 8,0 C 16,1 km/h (3 Bft)
14.05.2020 18:44 9,7 C 11,1 C 53 % 1018,6 hPa 0,0 l/m 12,0 km/h (2 Bft) N-NO 24 0 min 1,4 UV-I 358 W/m 0,6 C 6,2 C 17,7 km/h (3 Bft)
14.05.2020 18:46 10,0 C 11,1 C 51 % 1018,6 hPa 0,0 l/m 10,3 km/h (2 Bft) N 360 0 min 1,3 UV-I 351 W/m 0,3 C 7,4 C 17,7 km/h (3 Bft)
14.05.2020 18:48 10,2 C 11,7 C 50 % 1018,7 hPa 0,0 l/m 14,3 km/h (3 Bft) N-NO 32 0 min 1,3 UV-I 350 W/m 0,3 C 5,7 C 19,3 km/h (3 Bft)
14.05.2020 18:50 10,2 C 11,7 C 48 % 1018,7 hPa 0,0 l/m 15,1 km/h (3 Bft) N 351 0 min 1,3 UV-I 359 W/m -0,3 C 5,3 C 20,9 km/h (4 Bft)
14.05.2020 18:52 10,2 C 11,7 C 48 % 1018,6 hPa 0,0 l/m 13,0 km/h (3 Bft) N-NW 346 0 min 1,3 UV-I 367 W/m -0,3 C 6,3 C 19,3 km/h (3 Bft)
14.05.2020 18:54 10,4 C 12,2 C 51 % 1018,6 hPa 0,0 l/m 10,7 km/h (2 Bft) N-NO 27 0 min 1,3 UV-I 379 W/m 0,7 C 7,6 C 16,1 km/h (3 Bft)
14.05.2020 18:56 10,6 C 12,8 C 50 % 1018,7 hPa 0,0 l/m 14,4 km/h (3 Bft) N-NO 30 0 min 1,2 UV-I 399 W/m 0,6 C 6,1 C 20,9 km/h (4 Bft)
14.05.2020 18:58 10,7 C 12,8 C 49 % 1018,6 hPa 0,0 l/m 19,8 km/h (3 Bft) N-NO 28 0 min 1,2 UV-I 414 W/m 0,4 C 4,3 C 29,0 km/h (5 Bft)
14.05.2020 19:00 10,8 C 13,3 C 50 % 1018,7 hPa 0,0 l/m 12,9 km/h (3 Bft) N 5 0 min 1,2 UV-I 410 W/m 0,8 C 7,0 C 22,5 km/h (4 Bft)
14.05.2020 19:02 10,9 C 13,9 C 49 % 1018,6 hPa 0,0 l/m 13,9 km/h (3 Bft) NO 37 0 min 1,1 UV-I 396 W/m 0,6 C 6,7 C 25,7 km/h (4 Bft)
14.05.2020 19:04 11,0 C 14,4 C 50 % 1018,6 hPa 0,0 l/m 14,2 km/h (3 Bft) N-NO 30 0 min 1,0 UV-I 362 W/m 1,0 C 6,7 C 20,9 km/h (4 Bft)
14.05.2020 19:06 10,8 C 13,9 C 48 % 1018,7 hPa 0,0 l/m 15,9 km/h (3 Bft) N 355 0 min 0,9 UV-I 366 W/m 0,2 C 5,7 C 22,5 km/h (4 Bft)
14.05.2020 19:08 10,6 C 12,8 C 50 % 1018,7 hPa 0,0 l/m 13,8 km/h (3 Bft) N 9 0 min 0,8 UV-I 152 W/m 0,6 C 6,4 C 20,9 km/h (4 Bft)
14.05.2020 19:10 10,3 C 12,8 C 49 % 1018,7 hPa 0,0 l/m 17,2 km/h (3 Bft) N-NO 31 0 min 0,9 UV-I 286 W/m 0,1 C 4,6 C 24,1 km/h (4 Bft)
14.05.2020 19:12 10,2 C 12,8 C 50 % 1018,8 hPa 0,0 l/m 13,7 km/h (3 Bft) O-NO 73 0 min 0,8 UV-I 252 W/m 0,3 C 5,9 C 24,1 km/h (4 Bft)
14.05.2020 19:14 10,1 C 12,2 C 51 % 1018,7 hPa 0,0 l/m 11,5 km/h (2 Bft) N 9 0 min 0,7 UV-I 225 W/m 0,4 C 6,9 C 17,7 km/h (3 Bft)
14.05.2020 19:16 9,9 C 11,7 C 52 % 1018,7 hPa 0,0 l/m 12,6 km/h (3 Bft) N 5 0 min 0,7 UV-I 151 W/m 0,5 C 6,1 C 17,7 km/h (3 Bft)
14.05.2020 19:18 9,8 C 11,7 C 51 % 1018,7 hPa 0,0 l/m 11,4 km/h (2 Bft) N-NO 25 0 min 0,7 UV-I 242 W/m 0,2 C 6,6 C 17,7 km/h (3 Bft)
14.05.2020 19:20 9,7 C 11,1 C 50 % 1018,8 hPa 0,0 l/m 14,1 km/h (3 Bft) N-NO 15 0 min 0,7 UV-I 141 W/m -0,2 C 5,2 C 20,9 km/h (4 Bft)
14.05.2020 19:22 9,7 C 11,1 C 51 % 1018,8 hPa 0,0 l/m 9,6 km/h (2 Bft) NO 36 0 min 0,8 UV-I 242 W/m 0,1 C 7,5 C 16,1 km/h (3 Bft)
14.05.2020 19:24 9,7 C 11,7 C 51 % 1018,8 hPa 0,0 l/m 9,4 km/h (2 Bft) N-NO 30 0 min 0,8 UV-I 231 W/m 0,1 C 7,6 C 14,5 km/h (3 Bft)
14.05.2020 19:26 9,8 C 11,7 C 50 % 1018,8 hPa 0,0 l/m 10,7 km/h (2 Bft) N-NO 19 0 min 0,7 UV-I 231 W/m -0,1 C 7,0 C 16,1 km/h (3 Bft)
14.05.2020 19:28 9,8 C 11,1 C 50 % 1018,9 hPa 0,0 l/m 8,8 km/h (2 Bft) N 351 0 min 0,7 UV-I 230 W/m -0,1 C 8,1 C 14,5 km/h (3 Bft)
14.05.2020 19:30 9,9 C 11,1 C 49 % 1018,9 hPa 0,0 l/m 15,5 km/h (3 Bft) N-NO 18 0 min 0,7 UV-I 228 W/m -0,3 C 4,8 C 20,9 km/h (4 Bft)
14.05.2020 19:32 9,9 C 10,6 C 49 % 1018,9 hPa 0,0 l/m 15,8 km/h (3 Bft) N-NW 347 0 min 0,7 UV-I 228 W/m -0,3 C 4,7 C 22,5 km/h (4 Bft)
14.05.2020 19:34 9,9 C 10,6 C 50 % 1018,9 hPa 0,0 l/m 10,7 km/h (2 Bft) N-NO 25 0 min 0,7 UV-I 229 W/m -0,0 C 7,1 C 16,1 km/h (3 Bft)
14.05.2020 19:36 9,9 C 10,6 C 50 % 1018,9 hPa 0,0 l/m 17,7 km/h (3 Bft) NO 34 0 min 0,6 UV-I 224 W/m -0,0 C 4,0 C 25,7 km/h (4 Bft)
14.05.2020 19:38 9,9 C 10,6 C 49 % 1019,0 hPa 0,0 l/m 16,5 km/h (3 Bft) N-NO 19 0 min 0,6 UV-I 221 W/m -0,3 C 4,4 C 24,1 km/h (4 Bft)
14.05.2020 19:40 9,9 C 10,6 C 49 % 1018,9 hPa 0,0 l/m 16,3 km/h (3 Bft) N 350 0 min 0,6 UV-I 221 W/m -0,3 C 4,5 C 27,4 km/h (4 Bft)
14.05.2020 19:42 9,9 C 10,6 C 50 % 1018,9 hPa 0,0 l/m 15,8 km/h (3 Bft) N-NO 24 0 min 0,6 UV-I 197 W/m -0,0 C 4,7 C 27,4 km/h (4 Bft)
14.05.2020 19:44 9,8 C 10,6 C 50 % 1019,0 hPa 0,0 l/m 14,0 km/h (3 Bft) N-NO 25 0 min 0,5 UV-I 220 W/m -0,1 C 5,3 C 24,1 km/h (4 Bft)
14.05.2020 19:46 9,8 C 10,6 C 51 % 1019,0 hPa 0,0 l/m 12,8 km/h (3 Bft) N 5 0 min 0,5 UV-I 201 W/m 0,2 C 5,9 C 20,9 km/h (4 Bft)
14.05.2020 19:48 9,7 C 10,6 C 50 % 1019,0 hPa 0,0 l/m 14,6 km/h (3 Bft) N-NO 23 0 min 0,1 UV-I 118 W/m -0,2 C 4,9 C 27,4 km/h (4 Bft)
14.05.2020 19:50 9,6 C 10,0 C 52 % 1019,0 hPa 0,0 l/m 13,5 km/h (3 Bft) N 360 0 min 0,2 UV-I 119 W/m 0,2 C 5,3 C 22,5 km/h (4 Bft)
14.05.2020 19:52 9,5 C 9,4 C 51 % 1019,1 hPa 0,0 l/m 14,2 km/h (3 Bft) N-NO 13 0 min 0,0 UV-I 137 W/m -0,1 C 4,9 C 29,0 km/h (5 Bft)
14.05.2020 19:54 9,4 C 9,4 C 50 % 1019,1 hPa 0,0 l/m 13,4 km/h (3 Bft) N-NO 13 0 min 0,0 UV-I 129 W/m -0,5 C 5,1 C 17,7 km/h (3 Bft)
14.05.2020 19:56 9,4 C 9,4 C 50 % 1019,0 hPa 0,0 l/m 15,8 km/h (3 Bft) N 5 0 min 0,0 UV-I 140 W/m -0,5 C 4,1 C 20,9 km/h (4 Bft)
14.05.2020 19:58 9,4 C 8,9 C 51 % 1019,1 hPa 0,0 l/m 13,5 km/h (3 Bft) NO 39 0 min 0,0 UV-I 135 W/m -0,2 C 5,1 C 20,9 km/h (4 Bft)
14.05.2020 20:00 9,3 C 8,9 C 53 % 1019,1 hPa 0,0 l/m 11,0 km/h (2 Bft) N 5 0 min 0,0 UV-I 124 W/m 0,2 C 6,2 C 17,7 km/h (3 Bft)
14.05.2020 20:02 9,2 C 8,9 C 52 % 1019,1 hPa 0,0 l/m 11,6 km/h (2 Bft) N 355 0 min 0,0 UV-I 124 W/m -0,1 C 5,8 C 17,7 km/h (3 Bft)
14.05.2020 20:04 9,1 C 8,9 C 52 % 1019,0 hPa 0,0 l/m 14,0 km/h (3 Bft) N 11 0 min 0,0 UV-I 104 W/m -0,2 C 4,5 C 19,3 km/h (3 Bft)
14.05.2020 20:06 9,1 C 8,3 C 53 % 1019,0 hPa 0,0 l/m 10,6 km/h (2 Bft) N-NO 15 0 min 0,0 UV-I 98 W/m 0,0 C 6,2 C 19,3 km/h (3 Bft)
14.05.2020 20:08 9,0 C 8,3 C 52 % 1019,0 hPa 0,0 l/m 13,8 km/h (3 Bft) N-NO 26 0 min 0,0 UV-I 87 W/m -0,3 C 4,5 C 20,9 km/h (4 Bft)
14.05.2020 20:10 8,9 C 8,3 C 53 % 1019,0 hPa 0,0 l/m 9,0 km/h (2 Bft) N-NO 28 0 min 0,0 UV-I 55 W/m -0,1 C 7,0 C 19,3 km/h (3 Bft)
14.05.2020 20:12 8,8 C 8,3 C 53 % 1019,0 hPa 0,0 l/m 10,1 km/h (2 Bft) N-NO 22 0 min 0,0 UV-I 58 W/m -0,2 C 6,2 C 16,1 km/h (3 Bft)
14.05.2020 20:14 8,8 C 8,3 C 54 % 1019,0 hPa 0,0 l/m 13,3 km/h (3 Bft) N-NO 17 0 min 0,0 UV-I 63 W/m 0,0 C 4,5 C 19,3 km/h (3 Bft)
14.05.2020 20:16 8,8 C 8,3 C 53 % 1019,1 hPa 0,0 l/m 14,7 km/h (3 Bft) N-NO 16 0 min 0,0 UV-I 63 W/m -0,2 C 3,8 C 22,5 km/h (4 Bft)
14.05.2020 20:18 8,9 C 8,3 C 53 % 1019,1 hPa 0,0 l/m 10,9 km/h (2 Bft) N-NO 16 0 min 0,0 UV-I 63 W/m -0,1 C 5,9 C 16,1 km/h (3 Bft)
14.05.2020 20:20 8,8 C 8,3 C 54 % 1019,1 hPa 0,0 l/m 8,4 km/h (2 Bft) N 349 0 min 0,0 UV-I 63 W/m 0,0 C 7,3 C 14,5 km/h (3 Bft)
14.05.2020 20:22 8,9 C 8,3 C 52 % 1019,1 hPa 0,0 l/m 14,0 km/h (3 Bft) N-NO 19 0 min 0,0 UV-I 64 W/m -0,4 C 4,3 C 17,7 km/h (3 Bft)
14.05.2020 20:24 8,9 C 8,3 C 52 % 1019,1 hPa 0,0 l/m 12,2 km/h (2 Bft) N-NO 22 0 min 0,0 UV-I 62 W/m -0,4 C 5,1 C 20,9 km/h (4 Bft)
14.05.2020 20:26 8,9 C 8,3 C 53 % 1019,0 hPa 0,0 l/m 11,0 km/h (2 Bft) N-NW 345 0 min 0,0 UV-I 57 W/m -0,1 C 5,8 C 19,3 km/h (3 Bft)
14.05.2020 20:28 8,9 C 8,3 C 52 % 1019,0 hPa 0,0 l/m 10,1 km/h (2 Bft) N 5 0 min 0,0 UV-I 54 W/m -0,4 C 6,3 C 17,7 km/h (3 Bft)
14.05.2020 20:30 8,9 C 8,3 C 53 % 1019,0 hPa 0,0 l/m 12,7 km/h (3 Bft) N 360 0 min 0,0 UV-I 50 W/m -0,1 C 4,9 C 19,3 km/h (3 Bft)
14.05.2020 20:32 8,9 C 8,3 C 52 % 1019,0 hPa 0,0 l/m 12,7 km/h (3 Bft) N-NW 346 0 min 0,0 UV-I 48 W/m -0,4 C 4,9 C 19,3 km/h (3 Bft)
14.05.2020 20:34 8,9 C 8,3 C 52 % 1019,0 hPa 0,0 l/m 12,2 km/h (2 Bft) N 360 0 min 0,0 UV-I 47 W/m -0,4 C 5,1 C 19,3 km/h (3 Bft)
14.05.2020 20:36 8,9 C 8,3 C 52 % 1019,0 hPa 0,0 l/m 16,1 km/h (3 Bft) N-NO 22 0 min 0,0 UV-I 46 W/m -0,4 C 3,3 C 20,9 km/h (4 Bft)
14.05.2020 20:38 8,9 C 8,3 C 52 % 1019,0 hPa 0,0 l/m 11,3 km/h (2 Bft) N 360 0 min 0,0 UV-I 42 W/m -0,4 C 5,6 C 19,3 km/h (3 Bft)
14.05.2020 20:40 8,8 C 8,3 C 52 % 1019,0 hPa 0,0 l/m 14,4 km/h (3 Bft) N-NW 342 0 min 0,0 UV-I 38 W/m -0,5 C 4,0 C 20,9 km/h (4 Bft)
14.05.2020 20:42 8,8 C 8,3 C 53 % 1019,0 hPa 0,0 l/m 13,9 km/h (3 Bft) N 360 0 min 0,0 UV-I 34 W/m -0,2 C 4,2 C 20,9 km/h (4 Bft)
14.05.2020 20:44 8,7 C 7,8 C 53 % 1019,0 hPa 0,0 l/m 9,3 km/h (2 Bft) N 355 0 min 0,0 UV-I 32 W/m -0,3 C 6,6 C 20,9 km/h (4 Bft)
14.05.2020 20:46 8,6 C 7,8 C 52 % 1019,1 hPa 0,0 l/m 11,5 km/h (2 Bft) N-NW 345 0 min 0,0 UV-I 31 W/m -0,7 C 5,2 C 19,3 km/h (3 Bft)
14.05.2020 20:48 8,6 C 7,8 C 53 % 1019,1 hPa 0,0 l/m 12,2 km/h (2 Bft) N 360 0 min 0,0 UV-I 29 W/m -0,4 C 4,8 C 16,1 km/h (3 Bft)
14.05.2020 20:50 8,5 C 7,8 C 53 % 1019,1 hPa 0,0 l/m 9,9 km/h (2 Bft) N 349 0 min 0,0 UV-I 28 W/m -0,5 C 6,0 C 16,1 km/h (3 Bft)
14.05.2020 20:52 8,4 C 7,8 C 54 % 1019,1 hPa 0,0 l/m 11,5 km/h (2 Bft) N 355 0 min 0,0 UV-I 26 W/m -0,4 C 4,9 C 16,1 km/h (3 Bft)
14.05.2020 20:54 8,4 C 7,2 C 53 % 1019,0 hPa 0,0 l/m 13,5 km/h (3 Bft) N 9 0 min 0,0 UV-I 22 W/m -0,6 C 3,9 C 20,9 km/h (4 Bft)
14.05.2020 20:56 8,3 C 7,2 C 53 % 1019,1 hPa 0,0 l/m 13,9 km/h (3 Bft) N 5 0 min 0,0 UV-I 19 W/m -0,7 C 3,6 C 19,3 km/h (3 Bft)
14.05.2020 20:58 8,3 C 7,2 C 53 % 1019,1 hPa 0,0 l/m 12,8 km/h (3 Bft) N 355 0 min 0,0 UV-I 15 W/m -0,7 C 4,1 C 19,3 km/h (3 Bft)
14.05.2020 21:00 8,2 C 6,7 C 53 % 1019,1 hPa 0,0 l/m 13,3 km/h (3 Bft) N-NW 346 0 min 0,0 UV-I 13 W/m -0,8 C 3,8 C 19,3 km/h (3 Bft)
14.05.2020 21:02 8,1 C 6,7 C 53 % 1019,1 hPa 0,0 l/m 13,9 km/h (3 Bft) N 360 0 min 0,0 UV-I 11 W/m -0,9 C 3,3 C 19,3 km/h (3 Bft)
14.05.2020 21:04 8,0 C 6,1 C 53 % 1019,1 hPa 0,0 l/m 12,6 km/h (3 Bft) N-NW 336 0 min 0,0 UV-I 11 W/m -1,0 C 3,9 C 19,3 km/h (3 Bft)
14.05.2020 21:06 7,9 C 6,1 C 53 % 1019,1 hPa 0,0 l/m 13,2 km/h (3 Bft) N 355 0 min 0,0 UV-I 9 W/m -1,1 C 3,5 C 17,7 km/h (3 Bft)
14.05.2020 21:08 7,8 C 6,1 C 54 % 1019,1 hPa 0,0 l/m 10,6 km/h (2 Bft) N-NO 21 0 min 0,0 UV-I 9 W/m -0,9 C 4,8 C 16,1 km/h (3 Bft)
14.05.2020 21:10 7,6 C 6,1 C 54 % 1019,1 hPa 0,0 l/m 12,2 km/h (2 Bft) N-NO 13 0 min 0,0 UV-I 7 W/m -1,1 C 3,6 C 20,9 km/h (4 Bft)
14.05.2020 21:12 7,5 C 5,6 C 55 % 1019,1 hPa 0,0 l/m 12,5 km/h (3 Bft) N-NW 342 0 min 0,0 UV-I 7 W/m -0,9 C 3,4 C 19,3 km/h (3 Bft)
14.05.2020 21:14 7,5 C 6,1 C 54 % 1019,1 hPa 0,0 l/m 18,0 km/h (3 Bft) N-NW 346 0 min 0,0 UV-I 5 W/m -1,2 C 0,8 C 22,5 km/h (4 Bft)
14.05.2020 21:16 7,6 C 6,1 C 54 % 1019,2 hPa 0,0 l/m 13,9 km/h (3 Bft) N-NW 346 0 min 0,0 UV-I 5 W/m -1,1 C 2,8 C 22,5 km/h (4 Bft)
14.05.2020 21:18 7,6 C 6,1 C 54 % 1019,1 hPa 0,0 l/m 14,6 km/h (3 Bft) NO 40 0 min 0,0 UV-I 0 W/m -1,1 C 2,4 C 19,3 km/h (3 Bft)
14.05.2020 21:20 7,4 C 6,1 C 55 % 1019,2 hPa 0,0 l/m 14,1 km/h (3 Bft) N 351 0 min 0,0 UV-I 0 W/m -1,0 C 2,4 C 19,3 km/h (3 Bft)
14.05.2020 21:22 7,4 C 5,6 C 55 % 1019,2 hPa 0,0 l/m 15,8 km/h (3 Bft) N 355 0 min 0,0 UV-I 0 W/m -1,0 C 1,6 C 24,1 km/h (4 Bft)
14.05.2020 21:24 7,4 C 5,6 C 54 % 1019,3 hPa 0,0 l/m 15,5 km/h (3 Bft) N-NW 338 0 min 0,0 UV-I 0 W/m -1,3 C 1,8 C 24,1 km/h (4 Bft)
14.05.2020 21:26 7,4 C 5,6 C 54 % 1019,2 hPa 0,0 l/m 15,8 km/h (3 Bft) N 355 0 min 0,0 UV-I 0 W/m -1,3 C 1,6 C 20,9 km/h (4 Bft)
14.05.2020 21:28 7,3 C 5,6 C 55 % 1019,2 hPa 0,0 l/m 11,4 km/h (2 Bft) N-NO 24 0 min 0,0 UV-I 0 W/m -1,1 C 3,8 C 16,1 km/h (3 Bft)
14.05.2020 21:30 7,2 C 5,6 C 55 % 1019,2 hPa 0,0 l/m 12,0 km/h (2 Bft) N 355 0 min 0,0 UV-I 0 W/m -1,2 C 3,3 C 19,3 km/h (3 Bft)
14.05.2020 21:32 7,1 C 5,6 C 55 % 1019,2 hPa 0,0 l/m 12,2 km/h (2 Bft) N 360 0 min 0,0 UV-I 0 W/m -1,3 C 3,1 C 19,3 km/h (3 Bft)
14.05.2020 21:34 7,1 C 5,0 C 56 % 1019,2 hPa 0,0 l/m 13,1 km/h (3 Bft) N 350 0 min 0,0 UV-I 0 W/m -1,1 C 2,6 C 19,3 km/h (3 Bft)
14.05.2020 21:36 6,9 C 5,0 C 56 % 1019,3 hPa 0,0 l/m 12,7 km/h (3 Bft) N 9 0 min 0,0 UV-I 0 W/m -1,3 C 2,6 C 16,1 km/h (3 Bft)
14.05.2020 21:38 6,9 C 5,0 C 56 % 1019,2 hPa 0,0 l/m 11,4 km/h (2 Bft) N 355 0 min 0,0 UV-I 0 W/m -1,3 C 3,3 C 16,1 km/h (3 Bft)
14.05.2020 21:40 6,8 C 5,0 C 57 % 1019,3 hPa 0,0 l/m 11,0 km/h (2 Bft) N-NW 346 0 min 0,0 UV-I 0 W/m -1,1 C 3,4 C 16,1 km/h (3 Bft)
14.05.2020 21:42 6,8 C 5,0 C 57 % 1019,3 hPa 0,0 l/m 13,0 km/h (3 Bft) N 355 0 min 0,0 UV-I 0 W/m -1,1 C 2,3 C 19,3 km/h (3 Bft)
14.05.2020 21:44 6,7 C 5,0 C 57 % 1019,2 hPa 0,0 l/m 14,9 km/h (3 Bft) N 360 0 min 0,0 UV-I 0 W/m -1,2 C 1,2 C 20,9 km/h (4 Bft)
14.05.2020 21:46 6,6 C 4,4 C 57 % 1019,3 hPa 0,0 l/m 13,2 km/h (3 Bft) N-NW 344 0 min 0,0 UV-I 0 W/m -1,3 C 1,9 C 16,1 km/h (3 Bft)
14.05.2020 21:48 6,6 C 4,4 C 58 % 1019,4 hPa 0,0 l/m 11,3 km/h (2 Bft) N 355 0 min 0,0 UV-I 0 W/m -1,1 C 3,0 C 17,7 km/h (3 Bft)
14.05.2020 21:50 6,5 C 4,4 C 58 % 1019,4 hPa 0,0 l/m 14,7 km/h (3 Bft) N 355 0 min 0,0 UV-I 0 W/m -1,2 C 1,0 C 17,7 km/h (3 Bft)
14.05.2020 21:52 6,5 C 4,4 C 57 % 1019,4 hPa 0,0 l/m 16,4 km/h (3 Bft) N 350 0 min 0,0 UV-I 0 W/m -1,4 C 0,2 C 22,5 km/h (4 Bft)
14.05.2020 21:54 6,6 C 4,4 C 57 % 1019,4 hPa 0,0 l/m 16,8 km/h (3 Bft) N 5 0 min 0,0 UV-I 0 W/m -1,3 C 0,2 C 20,9 km/h (4 Bft)
14.05.2020 21:56 6,6 C 5,0 C 57 % 1019,4 hPa 0,0 l/m 16,1 km/h (3 Bft) N-NW 347 0 min 0,0 UV-I 0 W/m -1,3 C 0,5 C 24,1 km/h (4 Bft)
14.05.2020 21:58 6,6 C 5,0 C 58 % 1019,5 hPa 0,0 l/m 13,3 km/h (3 Bft) N-NW 344 0 min 0,0 UV-I 0 W/m -1,1 C 1,9 C 17,7 km/h (3 Bft)
14.05.2020 22:00 6,4 C 4,4 C 58 % 1019,5 hPa 0,0 l/m 12,0 km/h (2 Bft) N 360 0 min 0,0 UV-I 0 W/m -1,2 C 2,4 C 16,1 km/h (3 Bft)
14.05.2020 22:02 6,4 C 4,4 C 58 % 1019,5 hPa 0,0 l/m 11,6 km/h (2 Bft) N-NW 346 0 min 0,0 UV-I 0 W/m -1,2 C 2,6 C 16,1 km/h (3 Bft)
14.05.2020 22:04 6,3 C 4,4 C 58 % 1019,6 hPa 0,0 l/m 14,3 km/h (3 Bft) N 355 0 min 0,0 UV-I 0 W/m -1,3 C 1,0 C 17,7 km/h (3 Bft)
14.05.2020 22:06 6,3 C 4,4 C 59 % 1019,5 hPa 0,0 l/m 12,0 km/h (2 Bft) N 5 0 min 0,0 UV-I 0 W/m -1,1 C 2,3 C 16,1 km/h (3 Bft)
14.05.2020 22:08 6,2 C 4,4 C 59 % 1019,6 hPa 0,0 l/m 11,3 km/h (2 Bft) N-NW 344 0 min 0,0 UV-I 0 W/m -1,2 C 2,6 C 14,5 km/h (3 Bft)
14.05.2020 22:10 6,1 C 4,4 C 59 % 1019,5 hPa 0,0 l/m 12,8 km/h (3 Bft) N 355 0 min 0,0 UV-I 0 W/m -1,3 C 1,6 C 17,7 km/h (3 Bft)
14.05.2020 22:12 6,1 C 3,9 C 59 % 1019,6 hPa 0,0 l/m 9,4 km/h (2 Bft) N-NW 345 0 min 0,0 UV-I 0 W/m -1,3 C 3,7 C 14,5 km/h (3 Bft)
14.05.2020 22:14 5,9 C 3,9 C 60 % 1019,6 hPa 0,0 l/m 8,9 km/h (2 Bft) N 355 0 min 0,0 UV-I 0 W/m -1,3 C 3,9 C 16,1 km/h (3 Bft)
14.05.2020 22:16 5,8 C 3,3 C 60 % 1019,6 hPa 0,0 l/m 11,0 km/h (2 Bft) N 360 0 min 0,0 UV-I 0 W/m -1,4 C 2,3 C 17,7 km/h (3 Bft)
14.05.2020 22:18 5,8 C 3,9 C 60 % 1019,5 hPa 0,0 l/m 13,6 km/h (3 Bft) N-NO 21 0 min 0,0 UV-I 0 W/m -1,4 C 0,8 C 16,1 km/h (3 Bft)
14.05.2020 22:20 5,8 C 3,3 C 60 % 1019,6 hPa 0,0 l/m 9,9 km/h (2 Bft) N 360 0 min 0,0 UV-I 0 W/m -1,4 C 3,0 C 14,5 km/h (3 Bft)
14.05.2020 22:22 5,7 C 3,9 C 60 % 1019,7 hPa 0,0 l/m 11,2 km/h (2 Bft) N 360 0 min 0,0 UV-I 0 W/m -1,4 C 2,1 C 16,1 km/h (3 Bft)
14.05.2020 22:24 5,7 C 3,9 C 61 % 1019,7 hPa 0,0 l/m 11,4 km/h (2 Bft) N 360 0 min 0,0 UV-I 0 W/m -1,2 C 1,9 C 16,1 km/h (3 Bft)
14.05.2020 22:26 5,6 C 3,3 C 61 % 1019,7 hPa 0,0 l/m 9,5 km/h (2 Bft) N-NO 13 0 min 0,0 UV-I 0 W/m -1,3 C 3,1 C 14,5 km/h (3 Bft)
14.05.2020 22:28 5,4 C 3,3 C 61 % 1019,6 hPa 0,0 l/m 5,0 km/h (1 Bft) N 5 0 min 0,0 UV-I 0 W/m -1,5 C 5,4 C 8,0 km/h (2 Bft)
14.05.2020 22:30 5,3 C 2,8 C 62 % 1019,6 hPa 0,0 l/m 6,7 km/h (2 Bft) N-NO 13 0 min 0,0 UV-I 0 W/m -1,4 C 5,1 C 11,3 km/h (2 Bft)
14.05.2020 22:32 5,2 C 2,8 C 63 % 1019,6 hPa 0,0 l/m 7,4 km/h (2 Bft) N 360 0 min 0,0 UV-I 0 W/m -1,3 C 4,3 C 14,5 km/h (3 Bft)
14.05.2020 22:34 5,1 C 2,8 C 63 % 1019,6 hPa 0,0 l/m 9,3 km/h (2 Bft) N 355 0 min 0,0 UV-I 0 W/m -1,4 C 2,7 C 14,5 km/h (3 Bft)
14.05.2020 22:36 5,1 C 2,8 C 63 % 1019,6 hPa 0,0 l/m 8,4 km/h (2 Bft) N-NW 346 0 min 0,0 UV-I 0 W/m -1,4 C 3,4 C 11,3 km/h (2 Bft)
14.05.2020 22:38 5,1 C 2,2 C 63 % 1019,7 hPa 0,0 l/m 6,2 km/h (2 Bft) N 355 0 min 0,0 UV-I 0 W/m -1,4 C 5,1 C 9,7 km/h (2 Bft)
14.05.2020 22:40 5,1 C 2,2 C 63 % 1019,6 hPa 0,0 l/m 7,0 km/h (2 Bft) N 360 0 min 0,0 UV-I 0 W/m -1,4 C 4,6 C 12,9 km/h (3 Bft)
14.05.2020 22:42 5,0 C 2,2 C 63 % 1019,6 hPa 0,0 l/m 7,1 km/h (2 Bft) N 355 0 min 0,0 UV-I 0 W/m -1,4 C 4,4 C 9,7 km/h (2 Bft)
14.05.2020 22:44 5,0 C 2,2 C 63 % 1019,6 hPa 0,0 l/m 8,1 km/h (2 Bft) N-NW 348 0 min 0,0 UV-I 0 W/m -1,4 C 3,5 C 12,9 km/h (3 Bft)
14.05.2020 22:46 5,0 C 2,2 C 63 % 1019,6 hPa 0,0 l/m 8,2 km/h (2 Bft) N-NW 339 0 min 0,0 UV-I 0 W/m -1,4 C 3,4 C 11,3 km/h (2 Bft)
14.05.2020 22:48 4,9 C 2,2 C 63 % 1019,6 hPa 0,0 l/m 9,1 km/h (2 Bft) N 360 0 min 0,0 UV-I 0 W/m -1,5 C 2,6 C 16,1 km/h (3 Bft)
14.05.2020 22:50 4,9 C 2,2 C 63 % 1019,7 hPa 0,0 l/m 9,0 km/h (2 Bft) N 360 0 min 0,0 UV-I 0 W/m -1,5 C 2,7 C 12,9 km/h (3 Bft)
14.05.2020 22:52 4,9 C 2,2 C 64 % 1019,5 hPa 0,0 l/m 8,8 km/h (2 Bft) N 5 0 min 0,0 UV-I 0 W/m -1,3 C 2,9 C 12,9 km/h (3 Bft)
14.05.2020 22:54 4,9 C 2,8 C 63 % 1019,6 hPa 0,0 l/m 9,3 km/h (2 Bft) N 11 0 min 0,0 UV-I 0 W/m -1,5 C 2,5 C 14,5 km/h (3 Bft)
14.05.2020 22:56 5,0 C 2,8 C 63 % 1019,6 hPa 0,0 l/m 8,7 km/h (2 Bft) N 5 0 min 0,0 UV-I 0 W/m -1,4 C 3,0 C 12,9 km/h (3 Bft)
14.05.2020 22:58 4,9 C 2,2 C 63 % 1019,5 hPa 0,0 l/m 10,3 km/h (2 Bft) N 360 0 min 0,0 UV-I 0 W/m -1,5 C 1,8 C 14,5 km/h (3 Bft)
14.05.2020 23:00 4,9 C 2,2 C 63 % 1019,7 hPa 0,0 l/m 8,6 km/h (2 Bft) N-NO 16 0 min 0,0 UV-I 0 W/m -1,5 C 3,0 C 14,5 km/h (3 Bft)
14.05.2020 23:02 4,9 C 2,2 C 63 % 1019,6 hPa 0,0 l/m 11,5 km/h (2 Bft) N 351 0 min 0,0 UV-I 0 W/m -1,5 C 1,0 C 14,5 km/h (3 Bft)
14.05.2020 23:04 5,1 C 2,8 C 63 % 1019,6 hPa 0,0 l/m 10,6 km/h (2 Bft) N 360 0 min 0,0 UV-I 0 W/m -1,4 C 1,8 C 14,5 km/h (3 Bft)
14.05.2020 23:06 5,0 C 2,8 C 63 % 1019,5 hPa 0,0 l/m 10,1 km/h (2 Bft) N 355 0 min 0,0 UV-I 0 W/m -1,4 C 2,0 C 16,1 km/h (3 Bft)
14.05.2020 23:08 5,0 C 2,8 C 63 % 1019,6 hPa 0,0 l/m 10,7 km/h (2 Bft) N 355 0 min 0,0 UV-I 0 W/m -1,4 C 1,6 C 16,1 km/h (3 Bft)
14.05.2020 23:10 4,9 C 2,8 C 63 % 1019,6 hPa 0,0 l/m 11,1 km/h (2 Bft) N-NW 345 0 min 0,0 UV-I 0 W/m -1,5 C 1,2 C 14,5 km/h (3 Bft)
14.05.2020 23:12 4,9 C 2,8 C 64 % 1019,6 hPa 0,0 l/m 11,1 km/h (2 Bft) N 10 0 min 0,0 UV-I 0 W/m -1,3 C 1,2 C 16,1 km/h (3 Bft)
14.05.2020 23:14 4,9 C 2,2 C 64 % 1019,6 hPa 0,0 l/m 13,1 km/h (3 Bft) N-NO 19 0 min 0,0 UV-I 0 W/m -1,3 C -0,0 C 17,7 km/h (3 Bft)
14.05.2020 23:16 4,9 C 2,2 C 63 % 1019,7 hPa 0,0 l/m 11,5 km/h (2 Bft) N-NO 14 0 min 0,0 UV-I 0 W/m -1,5 C 1,0 C 16,1 km/h (3 Bft)
14.05.2020 23:18 4,9 C 2,8 C 63 % 1019,7 hPa 0,0 l/m 12,1 km/h (2 Bft) N-NW 346 0 min 0,0 UV-I 0 W/m -1,5 C 0,6 C 16,1 km/h (3 Bft)
14.05.2020 23:20 4,9 C 2,2 C 63 % 1019,7 hPa 0,0 l/m 10,3 km/h (2 Bft) N-NO 15 0 min 0,0 UV-I 0 W/m -1,5 C 1,8 C 16,1 km/h (3 Bft)
14.05.2020 23:22 4,9 C 2,8 C 63 % 1019,7 hPa 0,0 l/m 11,7 km/h (2 Bft) N 10 0 min 0,0 UV-I 0 W/m -1,5 C 0,8 C 17,7 km/h (3 Bft)
14.05.2020 23:24 4,9 C 2,8 C 63 % 1019,7 hPa 0,0 l/m 10,9 km/h (2 Bft) N-NO 25 0 min 0,0 UV-I 0 W/m -1,5 C 1,3 C 16,1 km/h (3 Bft)
14.05.2020 23:26 4,9 C 2,8 C 63 % 1019,7 hPa 0,0 l/m 10,2 km/h (2 Bft) N 355 0 min 0,0 UV-I 0 W/m -1,5 C 1,8 C 17,7 km/h (3 Bft)
14.05.2020 23:28 4,9 C 2,8 C 63 % 1019,8 hPa 0,0 l/m 14,3 km/h (3 Bft) N-NW 348 0 min 0,0 UV-I 0 W/m -1,5 C -0,7 C 19,3 km/h (3 Bft)
14.05.2020 23:30 5,0 C 2,8 C 63 % 1019,7 hPa 0,0 l/m 14,0 km/h (3 Bft) N-NW 336 0 min 0,0 UV-I 0 W/m -1,4 C -0,4 C 16,1 km/h (3 Bft)
14.05.2020 23:32 5,0 C 2,8 C 63 % 1019,8 hPa 0,0 l/m 14,8 km/h (3 Bft) N 355 0 min 0,0 UV-I 0 W/m -1,4 C -0,8 C 20,9 km/h (4 Bft)
14.05.2020 23:34 5,0 C 2,8 C 63 % 1019,8 hPa 0,0 l/m 13,9 km/h (3 Bft) N-NO 25 0 min 0,0 UV-I 0 W/m -1,4 C -0,3 C 20,9 km/h (4 Bft)
14.05.2020 23:36 5,1 C 2,8 C 63 % 1019,9 hPa 0,0 l/m 14,0 km/h (3 Bft) N 355 0 min 0,0 UV-I 0 W/m -1,4 C -0,3 C 20,9 km/h (4 Bft)
14.05.2020 23:38 5,0 C 2,8 C 63 % 1019,8 hPa 0,0 l/m 12,6 km/h (3 Bft) N 10 0 min 0,0 UV-I 0 W/m -1,4 C 0,4 C 19,3 km/h (3 Bft)
14.05.2020 23:40 5,1 C 2,8 C 63 % 1019,7 hPa 0,0 l/m 16,1 km/h (3 Bft) N 5 0 min 0,0 UV-I 0 W/m -1,4 C -1,3 C 20,9 km/h (4 Bft)
14.05.2020 23:42 5,1 C 2,8 C 63 % 1019,7 hPa 0,0 l/m 13,6 km/h (3 Bft) N 350 0 min 0,0 UV-I 0 W/m -1,4 C -0,1 C 20,9 km/h (4 Bft)
14.05.2020 23:44 5,1 C 2,8 C 63 % 1019,7 hPa 0,0 l/m 12,2 km/h (2 Bft) N 5 0 min 0,0 UV-I 0 W/m -1,4 C 0,8 C 19,3 km/h (3 Bft)
14.05.2020 23:46 5,0 C 2,8 C 63 % 1019,7 hPa 0,0 l/m 11,5 km/h (2 Bft) N 5 0 min 0,0 UV-I 0 W/m -1,4 C 1,1 C 20,9 km/h (4 Bft)
14.05.2020 23:48 5,0 C 2,8 C 63 % 1019,7 hPa 0,0 l/m 10,3 km/h (2 Bft) N 5 0 min 0,0 UV-I 0 W/m -1,4 C 1,9 C 16,1 km/h (3 Bft)
14.05.2020 23:50 4,9 C 2,8 C 63 % 1019,7 hPa 0,0 l/m 11,7 km/h (2 Bft) N-NO 13 0 min 0,0 UV-I 0 W/m -1,5 C 0,8 C 20,9 km/h (4 Bft)
14.05.2020 23:52 4,8 C 2,8 C 64 % 1019,7 hPa 0,0 l/m 8,3 km/h (2 Bft) N 9 0 min 0,0 UV-I 0 W/m -1,4 C 3,1 C 12,9 km/h (3 Bft)
14.05.2020 23:54 4,7 C 2,2 C 64 % 1019,6 hPa 0,0 l/m 10,9 km/h (2 Bft) N-NW 344 0 min 0,0 UV-I 0 W/m -1,5 C 1,1 C 19,3 km/h (3 Bft)
14.05.2020 23:56 4,7 C 2,2 C 64 % 1019,7 hPa 0,0 l/m 8,3 km/h (2 Bft) N-NO 21 0 min 0,0 UV-I 0 W/m -1,5 C 3,0 C 16,1 km/h (3 Bft)
14.05.2020 23:58 4,6 C 2,2 C 64 % 1019,7 hPa 0,0 l/m 10,2 km/h (2 Bft) N-NO 12 0 min 0,0 UV-I 0 W/m -1,6 C 1,5 C 16,1 km/h (3 Bft)
14.05.2020 23:59 4,6 C 2,2 C 64 % 1019,7 hPa 0,0 l/m 12,9 km/h (3 Bft) N 360 0 min 0,0 UV-I 0 W/m -1,6 C -0,2 C 16,1 km/h (3 Bft)
_ Min-Zeit 05:42 05:38 17:40 00:01 - 01:42 - - - - - 23:58 06:33 02:25
Minimum _ 0,8 C -1,1 C 47 % 1016,0 hPa - 3,2 km/h (1 Bft) - - - - - -1,6 C -7,1 C 4,8 km/h (1 Bft)
_ Max-Zeit 17:34 15:22 06:29 11:04 00:00 15:52 - - 10:12 13:46 13:54 15:22 17:34 14:40
Maximum _ 11,9 C 22,2 C 89 % 1020,4 hPa 0,0 l/m 25,1 km/h
N (4 Bft)
- - 2 min 6,6 UV-I 1129 W/m 3,6 C 10,6 C 37,0 km/h
N (5 Bft)
Durchschnitt _ 6,2 C 7,9 C 68 % 1018,8 hPa #0,0 l/m 13,3 km/h (3 Bft) N-NO - #4:46 h 3,0 UV-I 413 W/m 0,4 C 1,9 C 19,8 km/h (3 Bft)